[[{"header":{"parameterUnit":"m.s-1","parameterCategory":1,"la1":30.6,"la2":29.2853,"lo1":-89.7004,"lo2":-87.6739,"dy":0.0162,"dx":0.0183,"nx":112,"ny":82,"refTime":"2026-03-24T00:00:00:Z","depth":0,"parameterNumber":2,"parameterNumberName":"U-component_of_WINDS"},"data":[0.0,0.0,0.0,0.0,0.0,0.0,0.0,0.0,0.0,0.0,0.0,0.0,0.0,0.0,0.0,0.0,0.0,0.0,0.0,0.0,0.0,0.0,0.0,0.0,0.0,0.0,0.0,0.0,0.0,0.0,0.0,0.0,0.0,0.0,0.0,0.0,0.0,0.0,0.0,0.0,0.0,0.0,0.0,0.0,0.0,0.0,0.0,0.0,0.0,0.0,0.0,0.0,0.0,0.0,0.0,0.0,0.0,0.0,0.0,0.0,0.0,0.0,0.0,0.0,0.0,0.0,0.0,0.0,0.0,0.0,0.0,0.0,0.0,0.0,0.0,0.0,0.0,0.0,0.0,0.0,0.0,0.0,0.0,0.0,0.0,0.0,0.0,0.0,0.0,0.0,0.0,3.7287,4.3796,4.6926,4.4986,4.221,3.8603,3.4008,0.0,0.0,0.0,0.0,0.0,0.0,0.0,0.0,0.0,0.0,0.0,0.0,0.0,0.0,0.0,0.0,0.0,0.0,0.0,0.0,0.0,0.0,0.0,0.0,0.0,0.0,0.0,0.0,0.0,0.0,0.0,0.0,0.0,0.0,0.0,0.0,0.0,0.0,0.0,0.0,0.0,0.0,0.0,0.0,0.0,0.0,0.0,0.0,0.0,0.0,0.0,0.0,0.0,0.0,0.0,0.0,0.0,0.0,0.0,0.0,0.0,0.0,0.0,0.0,0.0,0.0,0.0,0.0,0.0,0.0,0.0,0.0,0.0,0.0,0.0,0.0,0.0,0.0,0.0,0.0,0.0,0.0,0.0,0.0,0.0,0.0,0.0,0.0,0.0,0.0,0.0,0.0,0.0,0.0,0.0,0.0,0.0,0.0,0.0,0.0,0.0,0.0,0.0,0.0,3.4316,4.2529,4.657,4.7827,4.5634,4.2894,3.9101,3.41,0.0,0.0,0.0,0.0,0.0,0.0,0.0,0.0,0.0,0.0,0.0,0.0,0.0,0.0,0.0,0.0,0.0,0.0,0.0,0.0,0.0,0.0,0.0,0.0,0.0,0.0,0.0,0.0,0.0,0.0,0.0,0.0,0.0,0.0,0.0,0.0,0.0,0.0,0.0,0.0,0.0,0.0,0.0,0.0,0.0,0.0,0.0,0.0,0.0,0.0,0.0,0.0,0.0,0.0,0.0,0.0,0.0,0.0,0.0,0.0,0.0,0.0,0.0,0.0,0.0,0.0,0.0,0.0,0.0,0.0,0.0,0.0,0.0,0.0,0.0,0.0,0.0,0.0,0.0,0.0,0.0,0.0,0.0,0.0,0.0,0.0,0.0,0.0,0.0,0.0,0.0,0.0,0.0,0.0,0.0,0.0,0.0,0.0,0.0,0.0,0.0,0.0,0.0,3.3942,3.9444,4.4481,4.6949,4.7129,4.451,4.167,3.7888,3.2832,2.7096,0.0,0.0,0.0,0.0,0.0,0.0,0.0,0.0,0.0,0.0,0.0,0.0,0.0,0.0,0.0,0.0,0.0,0.0,0.0,0.0,0.0,0.0,0.0,0.0,0.0,0.0,0.0,0.0,0.0,0.0,0.0,0.0,0.0,0.0,0.0,0.0,0.0,0.0,0.0,0.0,0.0,0.0,0.0,0.0,0.0,0.0,0.0,0.0,0.0,0.0,0.0,0.0,0.0,0.0,0.0,0.0,0.0,0.0,0.0,0.0,0.0,0.0,0.0,0.0,0.0,0.0,0.0,0.0,0.0,0.0,0.0,0.0,0.0,0.0,0.0,0.0,0.0,0.0,0.0,0.0,0.0,0.0,0.0,0.0,0.0,0.0,0.0,0.0,0.0,0.0,0.0,0.0,0.0,0.0,0.0,0.0,0.0,0.0,0.0,0.0,0.0,0.0,3.9529,4.3333,4.5088,4.63,4.5795,4.282,3.9943,3.6183,3.1164,2.558,0.0,0.0,0.0,0.0,0.0,0.0,0.0,0.0,0.0,0.0,0.0,0.0,0.0,0.0,0.0,0.0,0.0,0.0,0.0,0.0,0.0,0.0,0.0,0.0,0.0,0.0,0.0,0.0,0.0,0.0,0.0,0.0,0.0,0.0,0.0,0.0,0.0,0.0,0.0,0.0,0.0,0.0,0.0,0.0,0.0,0.0,0.0,0.0,0.0,0.0,0.0,0.0,0.0,0.0,0.0,0.0,0.0,0.0,0.0,0.0,0.0,0.0,0.0,0.0,0.0,0.0,0.0,0.0,0.0,0.0,0.0,0.0,0.0,0.0,0.0,0.0,0.0,0.0,0.0,0.0,0.0,0.0,0.0,0.0,0.0,0.0,0.0,0.0,0.0,0.0,0.0,0.0,0.0,0.0,0.0,0.0,0.0,0.0,0.0,0.0,0.0,0.0,4.0502,4.3661,4.4787,4.5065,4.3979,4.1023,3.82,3.4464,2.9498,2.4173,0.0,0.0,0.0,0.0,0.0,0.0,0.0,0.0,0.0,0.0,0.0,0.0,0.0,0.0,0.0,0.0,0.0,0.0,0.0,0.0,0.0,0.0,0.0,0.0,0.0,0.0,0.0,0.0,0.0,0.0,0.0,0.0,0.0,0.0,0.0,0.0,0.0,0.0,0.0,0.0,0.0,0.0,0.0,0.0,0.0,0.0,0.0,0.0,0.0,0.0,0.0,0.0,0.0,0.0,0.0,0.0,0.0,0.0,0.0,0.0,0.0,0.0,0.0,0.0,0.0,0.0,0.0,0.0,0.0,0.0,0.0,0.0,0.0,0.0,0.0,0.0,0.0,0.0,0.0,0.0,0.0,0.0,0.0,0.0,0.0,0.0,0.0,0.0,0.0,0.0,0.0,0.0,0.0,0.0,0.0,0.0,0.0,0.0,0.0,0.0,0.0,0.0,3.9952,4.2792,0.0,4.3307,4.2052,3.8937,3.6348,3.2847,2.7993,0.0,0.0,0.0,0.0,0.0,0.0,0.0,0.0,0.0,0.0,0.0,0.0,0.0,0.0,0.0,0.0,0.0,0.0,0.0,0.0,0.0,0.0,0.0,0.0,0.0,0.0,0.0,0.0,0.0,0.0,0.0,0.0,0.0,0.0,0.0,0.0,0.0,0.0,0.0,0.0,0.0,0.0,0.0,0.0,0.0,0.0,0.0,0.0,0.0,0.0,0.0,0.0,0.0,0.0,0.0,0.0,0.0,0.0,0.0,0.0,0.0,0.0,0.0,0.0,0.0,0.0,0.0,0.0,0.0,0.0,0.0,0.0,0.0,0.0,0.0,0.0,0.0,0.0,0.0,0.0,0.0,0.0,0.0,0.0,0.0,0.0,0.0,0.0,0.0,0.0,0.0,0.0,0.0,0.0,0.0,0.0,0.0,0.0,0.0,0.0,0.0,0.0,3.4658,3.8711,4.1153,0.0,4.1194,3.9956,3.6878,3.4594,3.1389,2.6912,0.0,0.0,0.0,0.0,0.0,0.0,0.0,0.0,0.0,0.0,0.0,0.0,0.0,0.0,0.0,0.0,0.0,0.0,0.0,0.0,0.0,0.0,0.0,0.0,0.0,0.0,0.0,0.0,0.0,0.0,0.0,0.0,0.0,0.0,0.0,0.0,0.0,0.0,0.0,0.0,0.0,0.0,0.0,0.0,0.0,0.0,0.0,0.0,0.0,0.0,0.0,0.0,0.0,0.0,0.0,0.0,0.0,0.0,0.0,0.0,0.0,0.0,0.0,0.0,0.0,0.0,0.0,0.0,0.0,0.0,0.0,0.0,0.0,0.0,0.0,0.0,0.0,0.0,0.0,0.0,0.0,0.0,0.0,0.0,0.0,0.0,0.0,0.0,0.0,0.0,0.0,0.0,0.0,0.0,0.0,0.0,0.0,0.0,0.0,0.0,0.0,0.0,3.3412,3.6864,3.8837,3.8991,3.8881,3.7725,3.5032,3.2977,3.0174,0.0,0.0,0.0,0.0,0.0,0.0,0.0,0.0,0.0,0.0,0.0,0.0,0.0,0.0,0.0,0.0,0.0,0.0,0.0,0.0,0.0,0.0,0.0,0.0,0.0,0.0,0.0,0.0,0.0,0.0,0.0,0.0,0.0,0.0,0.0,0.0,0.0,0.0,0.0,0.0,0.0,0.0,0.0,0.0,0.0,0.0,0.0,0.0,0.0,0.0,0.0,0.0,0.0,0.0,0.0,0.0,0.0,0.0,0.0,0.0,0.0,0.0,0.0,0.0,0.0,0.0,0.0,0.0,0.0,0.0,0.0,0.0,0.0,0.0,0.0,0.0,0.0,0.0,0.0,0.0,0.0,0.0,0.0,0.0,0.0,0.0,0.0,0.0,0.0,0.0,0.0,0.0,0.0,0.0,0.0,0.0,0.0,0.0,0.0,0.0,0.0,0.0,0.0,3.225,3.5867,3.8044,3.7998,3.8167,3.7508,3.5684,3.399,3.1476,2.7712,0.0,0.0,0.0,0.0,0.0,0.0,0.0,0.0,0.0,0.0,0.0,0.0,0.0,0.0,0.0,0.0,0.0,0.0,0.0,0.0,0.0,0.0,0.0,0.0,0.0,0.0,0.0,0.0,0.0,0.0,0.0,0.0,0.0,0.0,0.0,0.0,0.0,0.0,0.0,0.0,0.0,0.0,0.0,0.0,0.0,0.0,0.0,0.0,0.0,0.0,0.0,0.0,0.0,0.0,0.0,0.0,0.0,0.0,0.0,0.0,0.0,0.0,0.0,0.0,0.0,0.0,0.0,0.0,0.0,0.0,0.0,0.0,0.0,0.0,0.0,0.0,0.0,0.0,0.0,0.0,0.0,0.0,0.0,0.0,0.0,0.0,0.0,0.0,0.0,0.0,0.0,0.0,0.0,0.0,0.0,0.0,0.0,0.0,0.0,0.0,0.0,0.0,3.1044,3.47,3.6877,3.6997,3.7378,3.7103,3.582,3.4651,3.2429,2.8773,0.0,0.0,0.0,0.0,0.0,0.0,0.0,0.0,0.0,0.0,0.0,0.0,0.0,0.0,0.0,0.0,0.0,0.0,0.0,0.0,0.0,0.0,0.0,0.0,0.0,0.0,0.0,0.0,0.0,0.0,0.0,0.0,0.0,0.0,0.0,0.0,0.0,0.0,0.0,0.0,0.0,0.0,0.0,0.0,0.0,0.0,0.0,0.0,0.0,0.0,0.0,0.0,0.0,0.0,0.0,0.0,0.0,0.0,0.0,0.0,0.0,0.0,0.0,0.0,0.0,0.0,0.0,0.0,0.0,0.0,0.0,0.0,0.0,0.0,0.0,0.0,0.0,0.0,0.0,0.0,0.0,0.0,0.0,0.0,0.0,0.0,0.0,0.0,0.0,0.0,0.0,0.0,0.0,0.0,0.0,0.0,0.0,0.0,0.0,0.0,0.0,0.0,2.9952,3.3524,3.5764,3.6114,3.6765,3.6781,3.5812,3.5065,3.3153,2.9631,0.0,0.0,0.0,0.0,0.0,0.0,0.0,0.0,0.0,0.0,0.0,0.0,0.0,0.0,0.0,0.0,0.0,0.0,0.0,0.0,0.0,0.0,0.0,0.0,0.0,0.0,0.0,0.0,0.0,0.0,0.0,0.0,0.0,0.0,0.0,0.0,0.0,0.0,0.0,0.0,0.0,0.0,0.0,0.0,0.0,0.0,0.0,0.0,0.0,0.0,0.0,0.0,0.0,0.0,0.0,0.0,0.0,0.0,0.0,0.0,3.1063,0.0,0.0,0.0,0.0,0.0,0.0,0.0,0.0,0.0,0.0,0.0,0.0,0.0,0.0,0.0,0.0,0.0,0.0,0.0,0.0,0.0,0.0,0.0,0.0,0.0,0.0,0.0,0.0,0.0,0.0,0.0,0.0,0.0,0.0,0.0,0.0,0.0,0.0,0.0,0.0,0.0,2.9832,3.3667,3.6114,3.6463,3.7131,3.7353,3.6845,3.6161,3.4349,3.1045,2.7357,0.0,0.0,0.0,0.0,0.0,0.0,0.0,0.0,0.0,0.0,0.0,0.0,0.0,0.0,0.0,0.0,0.0,0.0,0.0,0.0,0.0,0.0,0.0,0.0,0.0,0.0,0.0,0.0,0.0,0.0,0.0,0.0,0.0,0.0,0.0,0.0,0.0,0.0,0.0,0.0,0.0,0.0,0.0,0.0,0.0,0.0,0.0,0.0,0.0,0.0,0.0,0.0,0.0,0.0,0.0,0.0,0.0,0.0,0.0,0.0,3.3544,0.0,0.0,0.0,0.0,0.0,0.0,0.0,0.0,0.0,0.0,0.0,0.0,0.0,0.0,0.0,0.0,0.0,0.0,0.0,0.0,0.0,0.0,0.0,0.0,0.0,0.0,0.0,0.0,0.0,0.0,0.0,0.0,0.0,0.0,0.0,0.0,0.0,0.0,0.0,0.0,2.9773,3.3686,3.6304,3.6797,3.7337,3.7528,3.7117,3.6638,3.5071,3.2042,2.8771,0.0,0.0,0.0,0.0,0.0,0.0,0.0,0.0,0.0,0.0,0.0,0.0,0.0,0.0,0.0,0.0,0.0,0.0,0.0,0.0,0.0,0.0,0.0,0.0,0.0,0.0,0.0,0.0,0.0,0.0,0.0,0.0,0.0,0.0,0.0,0.0,0.0,0.0,0.0,0.0,0.0,0.0,0.0,0.0,0.0,0.0,0.0,0.0,0.0,0.0,0.0,0.0,0.0,4.3976,4.4173,4.4402,4.3289,4.3418,4.4401,4.1545,3.9094,3.7189,0.0,0.0,0.0,0.0,0.0,0.0,0.0,0.0,0.0,0.0,0.0,0.0,0.0,0.0,0.0,0.0,0.0,0.0,0.0,0.0,0.0,0.0,0.0,0.0,0.0,3.6279,3.4271,0.0,0.0,0.0,0.0,0.0,0.0,0.0,0.0,0.0,0.0,0.0,0.0,2.9981,3.3937,3.659,3.7162,3.7591,3.7702,3.7307,3.6988,3.5637,3.2952,3.0315,2.7453,0.0,0.0,0.0,0.0,0.0,0.0,0.0,0.0,0.0,0.0,0.0,0.0,0.0,0.0,0.0,0.0,0.0,0.0,0.0,0.0,0.0,0.0,0.0,0.0,0.0,0.0,0.0,0.0,0.0,0.0,0.0,0.0,2.9414,2.9659,0.0,0.0,0.0,0.0,0.0,0.0,0.0,0.0,0.0,0.0,0.0,0.0,0.0,4.4807,4.7308,4.9775,5.1215,5.1611,5.0226,4.9767,5.0167,4.8555,4.8445,4.9434,4.9457,0.0,4.1365,4.1041,0.0,0.0,0.0,0.0,0.0,0.0,0.0,0.0,0.0,0.0,0.0,0.0,0.0,0.0,0.0,0.0,0.0,0.0,0.0,0.0,0.0,0.0,4.1528,4.2423,4.1107,3.9354,0.0,3.4555,3.0631,2.8529,0.0,0.0,0.0,0.0,0.0,0.0,0.0,0.0,3.0791,3.489,3.7496,3.7591,3.8179,3.8417,3.8084,3.7734,3.659,3.4366,3.2459,3.0119,2.7262,2.4358,0.0,0.0,0.0,0.0,0.0,0.0,0.0,0.0,0.0,0.0,0.0,0.0,0.0,0.0,0.0,0.0,0.0,0.0,0.0,0.0,0.0,0.0,0.0,0.0,0.0,0.0,0.0,0.0,0.0,3.0184,3.3384,3.3384,3.3919,3.381,0.0,0.0,0.0,0.0,0.0,0.0,0.0,0.0,0.0,4.5955,4.9172,5.1874,5.4026,5.6841,5.8278,5.8295,5.6612,5.5704,5.539,5.3422,5.2768,5.3257,5.4019,5.2406,4.907,4.6969,4.3974,4.0449,0.0,0.0,0.0,0.0,3.676,3.7837,3.9013,3.8937,0.0,0.0,0.0,0.0,0.0,0.0,0.0,0.0,0.0,0.0,0.0,0.0,0.0,4.3944,4.2589,4.1183,4.0583,3.8266,3.5427,0.0,3.0627,2.8408,2.4993,0.0,0.0,0.0,0.0,2.8233,3.1538,3.5303,3.7796,3.7957,3.8402,3.864,3.8497,3.8163,3.7321,3.578,3.4414,3.2467,2.9901,2.7852,2.558,0.0,0.0,0.0,0.0,0.0,0.0,0.0,0.0,0.0,0.0,0.0,0.0,0.0,0.0,0.0,0.0,0.0,0.0,0.0,0.0,0.0,0.0,0.0,0.0,0.0,0.0,0.0,0.0,3.4353,3.7609,3.7772,3.845,3.8423,0.0,0.0,0.0,0.0,0.0,0.0,4.5378,4.7027,4.9287,5.2257,5.4978,5.7294,5.9166,6.1788,6.2896,6.2513,6.0798,5.9583,5.8842,5.671,5.5875,5.6159,5.688,5.6574,5.5354,5.2276,4.8908,4.5552,4.3241,4.1801,4.1046,4.1294,4.2031,4.3091,4.4533,4.4581,4.3753,4.2231,0.0,3.7717,3.5584,0.0,0.0,0.0,0.0,3.9124,4.1633,4.4056,4.5695,4.4938,4.3409,4.1959,4.1337,4.049,3.8871,0.0,3.3852,3.1826,2.8162,0.0,0.0,0.0,0.0,2.96,3.2571,3.5859,3.8068,3.8417,3.8767,3.8926,3.8831,3.8529,3.7909,3.694,3.5891,3.4414,3.2396,3.0807,2.8694,2.5977,0.0,0.0,0.0,0.0,0.0,0.0,0.0,0.0,0.0,0.0,0.0,0.0,0.0,0.0,0.0,0.0,0.0,0.0,0.0,0.0,0.0,0.0,0.0,0.0,0.0,0.0,0.0,0.0,0.0,4.3332,4.4445,0.0,0.0,0.0,0.0,4.5721,4.8165,5.0381,5.237,5.3254,5.4997,5.7807,5.8668,6.0053,6.2056,6.3311,6.36,6.2854,6.099,5.9906,5.947,5.7619,5.7252,5.8147,5.8191,5.8169,5.7954,5.5442,5.2703,4.9705,4.6858,4.6311,4.6958,4.6015,4.7177,4.9212,4.9829,5.0015,4.9678,4.7901,4.4624,4.1099,3.962,3.8833,0.0,0.0,4.1835,4.3686,4.5534,4.6331,4.6628,4.6523,4.4271,4.2222,4.2296,4.1528,3.998,0.0,3.6048,3.4577,3.1002,0.0,2.6771,2.7852,2.9552,3.164,3.408,3.6876,3.8783,3.9132,3.9498,3.9577,3.9228,3.8878,3.837,3.7701,3.6638,3.5685,3.4832,3.2832,3.1093,2.9547,2.6215,0.0,0.0,0.0,0.0,0.0,0.0,0.0,0.0,0.0,0.0,0.0,0.0,0.0,0.0,0.0,0.0,0.0,0.0,0.0,0.0,0.0,0.0,0.0,0.0,0.0,0.0,0.0,0.0,4.9359,5.0932,0.0,5.02,4.9486,4.999,5.2254,5.5076,5.7371,5.8962,5.9222,5.997,6.1444,6.1337,6.1752,6.2731,6.3553,6.3826,6.3595,6.1968,6.0958,6.0522,5.8919,5.8387,5.8784,5.9065,5.9021,5.8697,5.7823,5.5768,5.2948,5.0939,5.0015,4.9732,4.9698,5.0207,5.1075,5.193,5.1995,5.1456,4.9642,4.7465,4.5312,4.4197,4.3577,4.3408,4.4174,4.5271,4.6391,4.6995,4.7148,4.6803,4.552,4.358,4.1893,4.1161,4.0583,3.9644,3.7839,3.7828,3.7242,3.4485,3.2178,3.0877,3.1258,3.2189,3.3524,3.5303,3.7385,3.8831,3.918,3.9546,3.9609,3.9244,3.8894,3.8402,3.7765,3.7099,3.6352,3.5415,3.489,3.3524,3.1182,2.9266,2.6483,0.0,0.0,0.0,0.0,0.0,0.0,0.0,0.0,0.0,0.0,0.0,0.0,0.0,0.0,0.0,0.0,0.0,0.0,0.0,0.0,0.0,0.0,0.0,0.0,0.0,0.0,5.2181,5.3999,5.5817,5.654,5.56,5.5234,5.573,5.7231,5.9872,6.159,6.2076,6.1804,6.1886,6.2455,6.1582,6.1597,6.2582,6.3195,6.3404,6.3287,6.211,6.1339,6.0838,5.9721,5.9305,5.948,5.9807,5.9764,5.9436,5.9283,5.7988,5.5954,5.4344,5.3408,5.2906,5.2749,5.2855,5.324,5.3922,5.3789,5.3199,5.2023,5.086,4.9866,4.9057,4.8623,4.8459,4.8561,4.908,4.9463,4.909,4.8138,4.6841,4.5169,4.3125,4.1306,4.0134,3.9487,3.879,3.7884,3.8402,3.8317,3.6216,3.4617,3.3651,3.3651,3.4159,3.5049,3.6463,3.7845,3.8878,3.9355,3.9625,3.9609,3.9244,3.8799,3.8274,3.7749,3.7003,3.64,3.5939,3.5554,3.4424,3.245,2.9725,2.6445,2.2531,0.0,0.0,0.0,0.0,0.0,0.0,0.0,0.0,0.0,0.0,0.0,0.0,0.0,0.0,0.0,0.0,0.0,0.0,0.0,0.0,0.0,0.0,0.0,4.4556,5.0553,5.5387,5.7174,5.8992,5.9907,5.9436,5.9368,5.9744,6.0658,6.2358,6.2816,6.1669,6.0811,6.0523,6.073,5.9408,5.9648,6.1648,6.2256,6.2292,6.1853,6.1317,6.0835,6.0372,5.9913,5.9982,6.037,6.037,6.037,6.0375,5.9895,5.936,5.8729,5.6854,5.6422,5.6649,5.5196,5.5241,5.5984,5.5919,5.5579,5.5207,5.5186,5.4917,5.4435,5.3938,5.3773,5.3649,5.322,5.3075,5.2822,5.1818,4.9214,4.6676,4.5664,4.3036,4.0499,3.945,3.8402,3.756,3.7194,3.7719,3.7712,3.6042,3.5387,3.5086,3.5086,3.5415,0.0,3.7574,3.829,3.8974,3.9737,3.9817,3.9609,3.9228,3.8592,3.8036,3.7701,3.6397,3.5875,3.6527,3.4749,3.3602,3.3229,2.7548,2.318,2.0231,0.0,0.0,0.0,0.0,0.0,0.0,0.0,0.0,0.0,0.0,0.0,0.0,0.0,0.0,0.0,0.0,0.0,0.0,0.0,0.0,0.0,4.2277,4.6651,4.8897,5.4867,5.967,6.1488,6.3371,6.4338,6.3834,6.3564,6.3453,6.3421,6.3381,6.2669,6.1114,5.8958,5.7715,5.7438,5.6357,5.6755,5.8672,5.9899,6.0626,6.0826,6.0681,6.0506,6.0417,6.0271,6.031,6.037,6.037,6.037,6.0326,5.9458,5.9047,5.8816,5.7953,5.7245,5.6633,5.6219,5.6007,5.5898,5.5925,5.5835,5.5621,5.5289,5.5331,5.5227,5.3799,5.3137,5.2548,5.1141,5.0251,4.9505,4.8423,4.6614,4.4856,4.4101,4.2311,4.0499,3.945,3.8402,3.756,3.7194,3.708,3.7095,3.7118,3.7253,3.7337,3.7337,3.7194,0.0,3.829,3.8576,3.8974,3.9737,3.9817,3.9562,3.8894,3.8449,3.783,3.694,3.6066,3.5411,3.5043,3.3643,3.1757,2.9465,2.6392,2.3577,0.0,0.0,0.0,0.0,0.0,0.0,0.0,0.0,0.0,0.0,0.0,0.0,0.0,0.0,0.0,0.0,0.0,0.0,0.0,0.0,0.0,0.0,4.7131,5.1322,5.3623,5.7986,6.1621,6.3516,6.5128,6.5952,6.5563,6.5595,6.5222,6.4258,6.3977,6.2746,6.0135,5.7995,5.6561,5.6096,5.5159,5.5724,5.782,5.9065,5.9938,6.037,6.037,6.037,6.037,6.037,6.037,0.0,6.037,6.0272,6.0006,5.9431,5.8911,0.0,0.0,0.0,0.0,0.0,5.6453,5.6229,5.6366,5.6324,5.6208,5.6055,5.6097,5.5918,5.4234,5.3157,5.2073,5.0104,4.8377,4.6995,4.6458,4.4985,4.3637,4.3312,4.236,4.1134,3.9927,3.8846,3.8036,3.783,0.0,0.0,3.8179,3.837,3.8402,3.8402,3.8227,3.829,3.8846,3.891,3.9132,3.9753,3.9817,3.953,3.8751,3.8386,0.0,0.0,0.0,3.498,3.3525,3.2461,0.0,0.0,0.0,0.0,0.0,0.0,0.0,0.0,1.9035,1.9721,0.0,0.0,0.0,0.0,0.0,0.0,0.0,0.0,0.0,0.0,0.0,0.0,0.0,0.0,0.0,0.0,5.1624,5.5353,5.7853,6.0053,6.2075,6.3863,6.5057,6.5602,6.5286,6.5678,6.5282,6.3677,6.3834,6.2469,5.902,0.0,0.0,0.0,0.0,5.5986,5.8256,5.9283,6.0004,6.037,6.037,6.037,6.037,6.037,6.037,6.037,6.0321,6.0027,5.9586,5.9466,5.8825,5.7849,5.7011,5.6676,5.669,5.6687,5.6684,5.6697,5.709,0.0,0.0,5.7049,5.6925,5.6366,5.48,5.3437,5.192,4.9532,4.7058,4.5106,4.5154,4.3951,4.2837,4.3017,4.2729,4.2024,4.0689,3.9593,3.8862,3.8815,3.8322,3.8211,3.918,3.9021,3.8751,3.8751,3.8719,3.8815,3.918,3.9228,3.9355,3.9769,0.0,0.0,3.8815,3.8449,3.7814,3.6781,3.5946,3.4445,3.2121,3.1396,3.016,2.8316,2.662,2.5498,2.4916,2.427,2.3933,2.3884,2.279,2.2731,0.0,0.0,0.0,0.0,0.0,0.0,0.0,0.0,0.0,0.0,0.0,0.0,0.0,0.0,0.0,4.8708,5.2452,5.5751,5.7974,6.0353,6.2265,6.3272,6.4165,6.4478,6.396,6.3375,6.2867,6.2605,6.1575,6.0173,5.8359,5.6621,5.5643,5.5552,5.5724,5.6618,5.8278,5.9611,6.0332,6.037,0.0,0.0,6.037,6.037,6.037,6.037,5.9929,5.9684,5.9515,5.8677,5.7933,5.7364,5.7128,5.7066,5.7066,5.707,5.709,5.7111,5.7144,5.7173,5.7049,5.678,5.6883,5.6619,5.4129,5.2722,0.0,4.774,4.5348,4.362,4.2712,4.2235,4.2069,4.2276,4.238,4.2151,4.1309,4.0515,3.9895,3.9658,3.9499,3.9562,4.0006,3.9546,3.9117,3.9117,3.8878,3.8815,3.918,3.9228,3.9355,3.9769,3.9817,3.9593,3.9148,3.8799,3.8274,3.7512,3.5825,3.3722,3.1174,3.0664,2.9564,2.7611,2.7442,2.7193,2.6876,2.7121,2.7172,2.6885,2.5403,2.5138,0.0,0.0,0.0,0.0,0.0,0.0,0.0,0.0,0.0,0.0,0.0,4.1297,4.423,0.0,4.8815,5.1138,5.3877,5.6331,5.8052,6.0153,6.196,6.2991,6.3283,6.3311,6.3099,6.266,6.2234,6.1752,6.1235,6.0269,5.8635,5.7497,5.6837,5.6837,5.7077,5.7776,5.8977,5.9938,6.037,6.037,6.037,6.0501,6.0768,6.0768,6.0752,6.0672,6.0424,5.9976,5.9427,5.8624,5.7975,5.7537,5.7836,5.7629,5.7185,5.7185,5.738,5.7546,5.7268,5.733,5.7504,5.7049,5.7049,5.6784,5.4436,5.2357,5.0152,4.7177,4.4078,4.1684,4.1417,4.1326,4.1423,4.1828,4.2418,4.2755,4.2215,4.1833,4.1484,4.1201,4.0928,4.0801,4.0801,4.0356,4.0006,4.0006,3.9847,3.98,3.9974,4.0006,4.007,4.026,4.0276,4.007,3.9546,3.8846,3.8197,3.7569,3.5746,3.3711,3.171,3.0796,2.961,2.8029,2.8415,2.8475,2.8222,2.8741,2.8934,2.8789,2.827,2.7982,0.0,0.0,0.0,0.0,0.0,0.0,0.0,3.4899,3.6944,3.9639,4.3231,4.6458,4.8303,4.9939,5.1554,5.3152,5.4995,5.6699,5.7903,5.9693,6.114,6.2031,6.1935,6.1806,6.2041,6.1919,6.1649,6.1023,6.1326,6.0892,5.9356,5.893,5.8693,5.8693,5.8693,5.9065,5.9829,6.0222,6.037,6.037,6.037,6.0659,6.1118,6.1019,6.0982,6.0964,6.0763,6.0128,5.9214,5.8755,5.8394,5.8084,5.8457,5.8146,5.7454,5.7454,5.7732,5.8001,5.7629,5.767,5.7806,5.7333,5.7097,5.6638,5.4581,5.2025,4.9415,4.6887,4.3477,4.0663,4.1099,4.1178,4.1261,4.1897,4.2739,4.3327,4.3041,4.293,4.2787,4.2453,4.2151,4.1782,4.1484,4.1182,4.0944,4.0801,4.0785,4.0785,4.0785,4.0785,4.0785,4.0785,4.0785,4.0562,4.0055,3.91,3.8276,3.7594,3.5881,3.4169,3.2558,3.1335,3.0216,2.9091,2.955,2.9719,2.9562,2.9924,3.0105,3.0117,3.0552,3.0383,2.7008,2.9212,3.3032,3.4483,3.6942,3.9088,0.0,4.0899,4.2778,4.4699,4.7799,5.0298,5.0916,5.1817,5.265,5.3289,5.4724,5.614,5.7251,5.8846,5.9581,5.8944,5.9159,5.9539,5.9968,5.963,5.9717,6.0431,6.0509,6.0483,6.0227,6.0179,6.0179,6.0179,6.0179,6.0244,6.0353,6.0348,6.037,6.037,6.037,6.0659,6.1047,6.0623,6.0584,6.0964,5.9976,5.9214,5.8653,5.8601,5.8581,5.8539,5.8581,5.8539,5.8457,5.8457,5.8498,5.8519,5.8477,5.8208,5.7817,5.73,5.6811,5.5949,5.304,5.1286,4.9639,4.6284,4.4053,4.2588,4.2077,4.2101,4.231,4.2675,4.3089,4.3406,4.3359,4.3104,4.2787,4.2453,4.2358,4.2215,4.1798,4.1703,4.1516,4.088,4.0785,4.0785,4.0785,4.0785,4.0785,4.0785,4.0785,4.0753,4.0674,4.013,3.9305,3.8189,3.6778,3.5057,3.2932,3.2263,3.1526,3.0733,3.1022,3.1276,3.1493,3.13,3.1215,3.1215,3.1276,3.1131,3.0881,3.2921,3.6248,3.8632,4.1604,4.3988,4.4288,4.5983,4.792,4.9278,5.1883,5.3864,5.3495,5.3392,5.3412,0.0,5.4801,5.594,5.6729,5.8038,5.8436,5.7201,5.5954,5.5844,5.7459,5.7661,5.8125,5.9108,5.996,6.037,6.037,6.037,6.037,6.037,6.037,6.037,6.037,6.037,6.037,6.037,6.037,6.0615,6.1013,6.0835,6.0791,6.0811,6.0081,5.9471,5.9036,5.9305,5.9264,5.9036,5.9305,5.9409,5.9347,5.8808,5.8788,5.8974,5.8705,5.8664,5.8582,5.7751,5.6687,5.5298,5.3384,5.1122,4.8787,4.7025,4.537,4.4093,4.3831,4.3837,4.3883,4.3819,4.4074,4.4201,4.3804,4.3772,4.3645,4.3089,4.2977,4.2866,4.2501,4.2453,4.2342,4.2056,4.1659,4.1404,4.1404,4.1404,4.1404,4.1404,4.1214,4.0936,4.0649,3.964,3.8509,3.7411,3.5591,3.4044,3.2763,3.1889,3.1159,3.0703,3.094,3.1048,3.1001,3.1048,3.1071,3.1071,3.1071,3.1165,3.3599,3.5958,3.9151,4.2062,4.5295,4.7925,4.8303,4.9931,5.158,5.2298,5.4154,5.5423,5.4558,5.3889,5.3541,5.4019,5.4967,5.5937,5.6659,5.7669,5.7691,5.611,5.3885,5.3163,5.4741,5.5597,5.6574,5.7972,5.9414,6.0288,6.037,6.037,6.037,6.037,6.037,6.037,6.037,6.037,6.037,6.037,6.0272,6.0477,6.0986,6.0992,6.082,6.0542,6.0198,5.9802,5.9512,5.9843,5.9802,5.9533,5.9864,5.9988,5.9906,5.9243,5.9202,5.945,5.8892,5.8861,5.8829,5.7497,5.5958,5.4378,5.2798,5.0348,4.7938,4.7248,4.6062,4.4979,4.4979,4.4979,4.4932,4.4716,4.4789,4.4843,4.4217,4.4296,4.4264,4.3549,4.3406,4.3295,4.2946,4.2882,4.2882,4.2882,4.2453,4.2068,4.2068,4.2068,4.2068,4.2068,4.1743,4.1191,4.0523,3.92,3.781,3.6447,3.466,3.3339,3.2744,3.1671,3.0985,3.0707,3.0665,3.0574,3.0308,3.0431,3.0521,3.06,3.0521,3.0667,3.3975,3.7994,4.2121,4.444,4.7834,5.072,5.1261,5.239,5.3276,5.3105,5.3717,5.4059,5.3374,5.2815,5.2845,5.4088,5.5145,5.6159,5.7318,5.7962,5.7593,5.5645,5.3687,5.2337,0.0,5.3189,5.4957,5.7361,5.889,5.9917,6.0397,6.037,6.037,6.037,6.037,6.037,6.037,6.037,6.037,6.037,5.988,6.0109,6.1008,6.0836,6.0501,6.0041,5.9988,5.9988,5.9968,5.9988,5.9988,5.9968,5.9988,5.9988,5.9988,5.9968,5.9968,5.9915,5.9297,5.8801,5.8069,5.5826,5.4407,5.301,5.0259,4.8552,4.7319,4.6156,4.542,4.4979,4.4979,4.4979,4.4979,4.4979,4.4979,4.4884,4.4589,4.4471,4.4264,4.3549,4.3406,4.3295,4.2946,4.2882,4.2882,4.2882,4.2866,4.285,4.285,4.285,4.285,4.285,4.2309,4.1519,4.0392,3.9276,3.7731,3.5642,3.474,3.391,3.3004,3.2139,3.151,3.1188,3.0611,3.0239,3.0108,2.9846,2.9846,3.0047,2.979,2.9615,3.6857,4.0862,4.467,4.7554,5.0816,5.3341,5.351,5.4444,5.4944,5.3788,5.3516,5.3347,5.2822,5.2575,5.2881,5.4142,5.5537,5.6612,5.7,5.7169,5.6717,5.5115,5.323,0.0,0.0,0.0,0.0,5.5439,5.7252,5.8606,5.9414,6.0069,6.037,6.037,6.037,6.037,6.037,6.037,6.0572,6.0878,6.0563,6.0429,6.0412,6.0323,6.0198,5.9988,5.9988,5.9988,5.9988,5.9988,5.9988,5.9988,5.9988,5.9988,5.9988,5.9988,5.9988,5.9936,5.9286,5.8248,5.6873,5.5348,5.3012,5.0606,4.931,4.78,4.6444,4.6054,4.5774,4.5678,4.5678,4.5678,4.5631,4.5376,4.5504,4.5504,4.4932,4.5034,4.5011,4.4534,4.4439,4.4407,4.4296,4.4264,4.4264,4.4264,4.347,4.2882,4.2882,4.2567,4.2145,4.1776,4.0862,3.9625,3.813,3.6558,3.503,3.362,3.2561,3.1872,3.1569,3.103,3.0577,3.0205,2.9792,2.94,2.908,2.8998,2.8946,2.8863,2.8936,2.8967,4.0086,4.4124,4.7762,5.0394,5.2956,5.4952,5.5145,5.5578,5.5433,5.363,5.2091,5.0986,5.0674,5.0412,5.0964,5.3033,5.4989,5.6376,5.6729,5.6914,5.6596,5.5374,5.3779,5.2249,0.0,0.0,0.0,5.3538,5.5417,5.723,5.8916,6.0048,6.0659,6.0659,6.0659,6.0594,6.037,6.037,6.0463,6.0524,6.0768,6.0521,5.9843,5.9938,5.9988,5.9988,5.9988,5.9988,5.9988,5.9988,5.9988,5.9988,5.9988,5.9988,5.9988,5.9988,5.9988,5.9884,5.9075,5.7641,5.595,5.4355,5.178,4.9096,4.8278,4.712,4.5971,4.5971,4.5971,4.5971,4.5971,4.5971,4.5924,4.5702,4.5853,4.5853,4.5281,4.5329,4.5408,4.5059,4.4979,4.4979,4.4979,4.4979,4.4979,4.4979,4.3927,4.3225,4.3454,4.2636,4.1698,4.0717,3.9423,3.7769,3.5644,3.4263,3.2987,3.1797,3.1037,3.06,3.0578,3.0139,2.9671,2.9196,2.8781,2.8372,2.8089,2.801,2.798,2.801,2.8138,2.8188,4.3595,4.768,5.1321,5.2921,5.4399,5.565,5.6116,5.5818,5.4784,5.2608,4.9541,4.7217,4.7001,4.6481,4.7217,5.0766,5.3518,5.5579,5.664,5.72,5.7186,0.0,0.0,0.0,0.0,0.0,0.0,5.1834,0.0,5.5943,5.8784,6.0266,6.1074,6.1074,6.1074,6.0856,6.037,6.0414,6.0134,5.9541,6.0455,6.0337,5.9347,5.9781,5.9988,5.9988,5.9988,5.9988,5.9988,5.9988,5.9988,5.9988,5.9988,5.9988,5.9988,5.9988,5.9936,5.9779,5.8601,5.7003,5.5072,5.2909,5.0534,4.8334,4.7193,4.6422,4.5971,4.5971,4.5971,4.5971,4.5971,4.5971,4.5971,4.5971,4.5971,4.5892,4.5599,4.5551,4.5408,4.5106,4.5066,4.5066,4.5066,4.5066,4.5011,4.5011,4.4176,4.3816,4.4323,4.3014,4.1422,3.9818,3.8027,3.5878,3.3102,3.2379,3.1583,3.0355,3.0297,3.0211,3.0012,2.9448,2.8884,2.8318,2.7694,2.7309,2.7103,2.6935,2.7039,2.7377,2.7437,2.75,4.7449,5.1273,5.4496,5.5698,5.6612,5.7141,5.6837,5.6083,5.4351,5.0648,4.7073,4.44,4.382,4.3286,4.4324,4.8583,5.2086,5.4719,5.61,5.697,5.7295,5.6684,5.64,5.5548,5.3713,5.2577,0.0,0.0,5.4172,5.5658,5.7776,5.9611,6.0594,6.0594,6.0594,6.055,6.037,6.0722,6.0584,6.003,6.0585,6.0458,5.9823,5.9926,5.9988,5.9988,5.9988,5.9988,5.9988,5.9988,5.9988,5.9988,5.9988,5.9988,5.9936,5.9496,5.9338,5.9075,5.7023,5.5164,5.3452,5.1999,4.9335,4.6647,4.635,4.6125,4.5971,4.5971,4.5971,4.5971,4.5971,4.5971,4.5971,4.5971,4.5971,4.5996,4.5901,4.5901,4.5853,4.5774,4.5774,4.5774,4.5774,4.5774,4.5605,4.5156,4.4284,4.3548,4.3221,4.1074,3.8983,3.7331,3.5226,3.3141,3.1215,3.0518,2.988,2.9087,2.9087,2.9057,2.9005,2.8821,2.8553,2.808,2.7953,2.7696,2.7301,2.7254,2.7282,2.7377,2.7547,2.7651,5.0648,5.3798,5.6299,5.7165,5.7598,5.7478,5.6251,5.4784,5.2403,4.793,4.3673,4.0736,4.0516,4.0462,4.202,4.6762,5.0932,5.3931,5.4979,5.5985,5.6487,5.6203,5.6181,5.5832,5.4935,5.4194,5.415,0.0,5.4871,5.5724,5.8038,5.9785,6.0725,6.0725,6.0921,6.0795,6.0381,6.0798,6.0633,5.9845,6.0517,6.0542,5.9988,5.9988,5.9988,5.9988,0.0,5.9988,5.9988,5.9988,5.9988,5.9988,5.9988,5.9988,5.9936,5.9338,5.8702,5.792,5.6152,5.3968,5.1785,5.086,4.8501,4.5971,4.5971,4.5971,4.5971,4.5971,4.5971,4.5971,4.5971,4.5971,4.5971,4.5971,4.5971,4.5971,4.5971,4.5971,4.5971,4.5971,4.5971,4.5971,4.5971,4.5802,4.5422,4.4784,4.3218,4.165,4.0458,3.8862,3.6907,3.446,3.2574,3.0829,2.9237,2.8787,2.8484,2.8237,2.8237,2.8237,2.8237,2.8237,2.8128,2.7877,2.7877,2.7813,2.7651,2.7556,2.7575,2.7651,2.7774,2.7878,5.3365,5.5659,5.743,5.7814,5.7862,5.7189,5.4832,5.2499,4.9469,4.458,3.9822,3.6735,3.7268,3.7941,4.0084,4.5162,4.9875,5.3123,5.3626,5.4477,5.5045,5.5176,5.5198,5.546,5.6138,5.5985,5.6225,5.7121,5.6028,5.6445,5.8894,6.0266,6.1052,6.1118,6.1412,6.1206,6.039,6.0713,6.0416,5.9472,6.0331,6.0438,5.9988,5.9988,5.9988,5.9988,0.0,0.0,5.9988,5.9988,5.9988,5.9988,5.9988,5.9988,5.9936,5.9294,5.8139,5.6696,5.5505,5.3047,5.0363,4.9753,4.797,4.6076,4.6028,4.6019,4.6067,4.6067,4.6123,4.6171,4.6171,4.6171,4.6171,4.6171,4.6171,4.6171,4.6171,4.6123,4.6067,4.6067,4.6019,4.5971,4.5899,4.5366,4.4671,4.3731,4.1359,3.8893,3.6743,3.6245,3.4873,3.1605,3.0256,2.8957,2.7537,2.7377,2.7481,2.7679,2.7698,2.7698,2.7745,2.7745,2.7745,2.7745,2.7745,2.7821,2.8001,2.7821,2.7849,2.8048,2.8048,2.8171,5.5491,5.7357,5.8897,5.856,5.8127,5.69,5.3461,5.0022,4.6054,4.0831,3.6338,3.36,3.449,3.5872,3.8529,4.3587,4.8377,5.1747,5.2621,5.2883,5.3298,5.4062,5.415,5.4804,5.6509,5.7688,0.0,0.0,5.8955,5.8868,5.9003,5.996,6.0725,6.1096,6.0759,6.0655,6.0885,6.0468,6.0159,5.9954,6.0084,6.0093,5.9988,5.9988,5.9988,5.9988,5.9988,0.0,5.9988,5.9988,5.9988,5.9988,5.9988,5.9988,5.9925,5.9218,5.7809,5.6104,5.4321,5.2028,4.9767,4.9425,4.8028,4.6441,4.6123,4.625,4.6489,4.6489,4.6721,4.6886,4.6886,4.6886,4.6886,4.6886,4.6886,4.6886,4.6886,4.6663,4.6489,4.6489,4.625,4.5818,4.535,4.4769,4.3447,4.0786,3.9073,3.6644,3.2666,3.263,3.2216,3.0293,2.9033,2.808,2.7478,2.7377,2.7481,2.7679,2.7698,2.7774,2.7953,2.7953,2.7953,2.7953,2.7953,2.7972,2.8001,2.7972,2.8048,2.8275,2.8275,2.8411,5.6756,5.8199,5.9137,5.8055,5.6949,5.4952,5.0407,4.6078,4.1677,3.6916,3.2779,3.0324,3.1359,3.2997,3.5761,4.0574,4.5339,4.8776,4.9759,5.0305,5.107,5.2315,5.2664,5.3866,5.6531,5.8104,5.9331,6.0026,5.9851,5.9807,6.0069,6.0768,6.1231,6.1388,6.0921,6.0627,6.054,6.0211,5.9977,5.9667,5.9865,5.9988,5.9988,5.9988,5.9988,5.9988,5.9988,0.0,5.9988,5.9988,5.9988,5.9988,5.9988,6.0133,6.0276,5.9241,5.7441,5.5227,5.3698,5.1286,4.8815,4.8456,4.7599,4.6568,4.6568,4.6568,4.6616,4.679,4.6991,4.7118,4.7118,4.7118,4.7118,4.7118,4.7118,4.7118,4.7118,4.6864,4.6568,4.6568,4.6014,4.5448,4.514,4.4088,4.2333,3.9491,3.749,3.4863,3.1111,3.0387,2.9814,2.8842,2.8214,2.7832,2.774,2.7698,2.7802,2.8001,2.8019,2.8123,2.8322,2.8322,2.8322,2.8322,2.8322,2.8369,2.8492,2.8492,2.8596,2.8794,2.8794,2.8854,5.7574,5.8656,5.8969,5.7285,5.5385,5.2524,4.7112,4.1918,3.7108,3.3092,2.9484,2.7339,2.8448,3.0192,3.2946,3.7383,4.2036,4.5456,4.657,4.7531,4.8755,5.0455,5.1114,5.2839,5.6312,5.8235,0.0,6.0353,6.0244,6.0441,6.1074,6.1427,6.1655,6.1726,6.1128,6.0642,6.0257,6.0123,5.9865,5.945,5.9823,5.9988,5.9988,5.9988,5.9988,5.9988,5.9988,0.0,0.0,5.9988,5.9988,5.9988,5.9988,6.0216,6.0442,5.9436,5.7114,5.4405,5.3472,5.0908,4.8077,4.7807,4.7283,4.6838,4.7013,4.6991,4.6838,4.7108,4.7235,4.7283,4.7283,4.7199,4.7109,4.6951,4.6893,4.6893,4.6893,4.6625,4.6405,4.6405,4.5706,4.5083,4.4835,4.3455,4.1344,3.8311,3.604,3.3496,3.0138,2.8831,2.8156,2.7863,2.7755,2.7774,2.7972,2.8001,2.8095,2.8293,2.8322,2.8364,2.8624,2.8624,2.8624,2.8624,2.8671,2.8766,2.8882,2.8929,2.9033,2.9184,2.9184,2.9184,5.8223,5.8945,5.8897,5.6789,5.4015,5.0263,4.4474,3.8361,3.2923,2.9629,2.6724,2.5141,2.6287,2.8119,3.0802,3.4883,3.9239,4.2573,4.4028,4.5041,4.6505,4.882,4.989,5.1966,5.581,5.8671,6.0332,6.037,6.1134,6.1489,6.1118,6.1056,6.1302,6.1675,6.0684,6.0381,6.0719,6.0219,5.9979,5.9926,5.9968,5.9988,5.9988,5.9988,5.9988,5.9988,5.9988,0.0,0.0,5.9988,5.9988,5.9988,5.9988,6.0009,6.0049,5.9679,5.7227,5.4021,5.3668,5.1161,4.8066,4.8077,4.7823,4.7458,4.7156,4.7283,4.7505,4.7553,4.7776,4.803,4.803,4.7574,4.7027,4.6405,4.6302,4.6302,4.6302,4.6042,4.5797,4.5797,4.5463,4.491,4.4072,4.3065,4.0813,3.623,3.4559,3.2531,2.8718,2.8118,2.809,2.8246,2.7925,2.7774,2.7972,2.8001,2.8095,2.8293,2.8322,2.8364,2.8624,2.8624,2.8624,2.8624,2.876,2.8854,2.8882,2.9052,2.9156,2.9184,2.9184,2.9184,5.7093,5.8488,5.8656,5.5515,5.2163,4.7858,4.1389,3.5232,3.0041,2.7086,2.5093,2.4072,2.4593,2.6113,2.8338,3.1602,3.5077,3.8182,4.0498,4.2158,4.4124,4.6832,4.8012,5.0021,5.3582,5.6553,5.8846,6.0261,6.0945,6.1251,6.1056,6.159,6.1678,6.1181,6.0463,6.0009,5.9917,5.9678,5.9574,5.9574,5.9864,5.9988,5.9988,5.9988,5.9988,5.9988,5.9988,0.0,0.0,5.9988,5.9988,5.9988,5.9988,6.0154,6.038,5.9801,5.7401,5.4351,5.3775,5.1161,4.8125,4.8125,4.7735,4.7433,4.7627,4.7648,4.7633,4.7855,4.7971,4.7991,4.7653,4.7105,4.6528,4.6231,4.6216,4.6216,4.6216,4.5972,4.5712,4.5712,4.4795,4.3941,4.3575,4.1601,3.8867,3.5442,3.3594,3.1457,2.8429,2.8001,2.8076,2.8293,2.8171,2.8152,2.835,2.8369,2.8426,2.8501,2.8501,2.8596,2.8794,2.876,2.887,2.8929,2.9068,2.9127,2.9324,2.9399,2.9446,2.9446,2.9446,2.9446,5.5265,5.7574,5.8223,5.4327,5.0455,4.5862,3.9272,3.3117,2.8151,2.5784,2.4428,2.3641,2.3619,2.4542,2.6141,2.8722,3.1331,3.407,3.7104,3.9417,4.1808,4.4408,4.5849,4.7903,5.1114,5.4674,5.7751,6.0,6.0697,6.0864,6.0511,6.1431,6.1633,6.0834,6.0207,5.9667,5.9305,5.9305,5.9305,5.9305,5.9781,5.9988,5.9988,5.9988,5.9988,5.9988,0.0,0.0,0.0,5.9988,5.9988,5.9988,5.9779,5.9932,6.0103,5.9014,5.6755,5.4106,5.3212,5.0804,4.8066,4.7889,4.7578,4.7239,4.7476,4.7347,4.7205,4.7472,4.7519,4.7417,4.6781,4.6291,4.586,4.5681,4.5606,4.5606,4.5606,4.5441,4.5275,4.5275,4.4195,4.3121,4.2402,4.0177,3.744,3.438,3.2691,3.0884,2.8479,2.8171,2.8246,2.8397,2.8364,2.8473,2.8624,2.8624,2.8624,2.8624,2.8671,2.8731,2.8882,2.8929,2.9033,2.9184,2.925,2.9418,2.9569,2.9691,2.9673,2.9673,2.972,2.9833,5.2836,5.6179,5.7598,5.3365,4.9084,4.4388,3.8551,3.2298,2.7363,2.6057,2.4826,2.3874,2.3478,2.3514,2.4346,2.655,2.8425,3.0712,3.407,3.7016,3.9548,4.1503,4.3447,4.5762,4.8667,5.3713,5.7564,5.9441,6.0497,0.0,5.9469,6.0278,6.0834,6.0782,5.9844,5.9305,5.9305,5.9305,5.9305,5.9305,5.9781,5.9988,5.9988,5.9988,5.9988,0.0,0.0,0.0,0.0,5.9988,5.9988,5.9936,5.9338,5.9128,5.8926,5.7012,5.5019,5.3016,5.1742,4.9906,4.7991,4.7417,4.718,4.7105,4.6394,4.6231,4.6231,4.6231,4.6231,4.6068,4.5502,4.5339,4.5115,4.4488,4.4323,4.4323,4.4323,4.4323,4.4323,4.4323,4.3844,4.2636,4.0373,3.9162,3.7065,3.2766,3.1854,3.0842,2.8865,2.8624,2.8624,2.8624,2.8624,2.8624,2.8624,2.8624,2.8624,2.8624,2.8823,2.8882,2.8882,2.908,2.9184,2.9184,2.9446,2.9569,2.9569,2.9768,2.9872,2.9872,3.007,3.0269,4.7554,5.0768,5.2259,4.8329,4.502,4.1148,3.5304,3.0449,2.6655,2.4915,2.4143,2.3671,2.3266,2.3293,2.3838,2.5181,2.6602,2.8835,3.2525,3.6362,3.9767,4.2398,4.6133,4.9388,5.1638,5.4849,5.7564,5.9441,5.9848,5.9788,5.9418,5.9332,5.9585,6.0208,5.9326,5.8829,5.8829,5.8519,5.8353,5.8374,5.914,5.9512,5.9533,5.9843,5.9988,0.0,0.0,0.0,0.0,5.9988,5.9988,5.9936,5.9338,5.8349,5.7202,5.6074,5.3603,5.0669,5.0181,4.8626,4.6765,4.6557,4.6231,4.589,4.5681,4.5844,4.6216,4.6216,4.5919,4.5517,4.5339,4.4966,4.4563,4.4323,4.401,4.3679,4.3679,4.3304,4.299,4.299,4.1799,4.0367,3.9145,3.6833,3.4413,3.2092,3.0915,2.9855,2.8759,2.8624,2.8624,2.8624,2.8624,2.8624,2.8624,2.8624,2.8637,2.8778,2.8835,2.9068,2.9371,2.9446,2.9522,2.9673,2.9749,2.9833,2.9833,2.9843,2.9872,2.9872,3.0136,3.0259,4.1924,4.5324,4.6968,4.3787,4.1196,3.8118,3.3307,2.944,2.6468,2.4932,2.4213,2.3754,2.336,2.3227,2.3451,2.4202,2.5157,2.7283,3.1498,3.5794,4.0323,4.5041,4.8558,5.1441,5.356,5.5766,5.7666,5.9217,5.9421,5.9388,5.9091,5.8755,5.8953,5.9699,5.8829,5.8353,5.8353,5.8063,5.7918,5.7939,5.885,5.9305,5.9326,5.9781,5.9988,0.0,0.0,0.0,0.0,5.9988,5.9988,5.9884,5.8865,5.7535,5.5969,5.4148,5.1717,4.9191,4.8406,4.7287,4.6157,4.5919,4.5443,4.4936,4.4936,4.5205,4.5502,4.5502,4.5205,4.4936,4.4936,4.4622,4.4323,4.4323,4.3844,4.3199,4.2448,4.1758,4.108,4.0307,3.9005,3.7616,3.6417,3.4374,3.2271,3.0728,2.975,2.9062,2.8624,2.8624,2.8643,2.8684,2.8684,2.8766,2.8842,2.8731,2.8794,2.8882,2.9097,2.9295,2.9569,2.9645,2.9749,2.9872,2.9872,2.9872,2.9872,3.0013,3.0023,3.0117,3.0316,3.0448,0.0,3.9778,4.173,3.9561,3.7541,3.5256,3.2128,2.9003,0.0,2.5664,2.4746,2.3977,2.3621,2.3217,2.3132,2.3681,2.4268,2.6321,3.108,3.5845,4.159,4.9021,5.0808,5.2357,5.4631,5.6463,5.7867,5.8747,5.918,5.9145,5.859,5.8519,5.8726,5.9181,5.8332,5.7877,5.7918,5.7877,5.7877,5.7877,5.8767,5.9202,5.9222,5.9719,5.9947,0.0,0.0,0.0,0.0,5.9988,5.9988,5.9831,5.8072,5.6577,5.4965,5.1597,4.9566,4.8236,4.6599,4.6003,4.5978,4.5443,4.4802,4.4323,4.4323,4.4323,4.4323,4.4323,4.4323,4.4323,4.4323,4.4249,4.4249,4.4249,4.3679,4.2583,4.0704,3.9687,3.8592,3.6723,3.5804,3.4721,3.2786,3.1899,3.0842,2.8865,2.8624,2.8624,2.8624,2.858,2.8719,2.8854,2.8901,2.8976,2.9156,2.9005,2.891,2.8929,2.9342,2.9634,2.9598,2.9768,2.9872,2.9872,2.9872,2.9872,2.9872,3.0098,3.0297,3.0495,3.0713,3.0921,2.8342,0.0,3.6194,3.4077,3.3163,3.208,0.0,2.7085,2.5433,2.4555,2.3653,2.3022,2.3001,2.2713,2.2873,2.4115,2.5338,2.7784,3.2612,4.052,4.7575,5.2316,5.4062,5.5286,5.6203,5.7383,5.8245,5.874,5.8535,5.8289,5.8063,5.7732,5.7723,5.8229,5.7691,5.7566,5.7918,5.7516,5.733,5.7351,5.796,5.825,5.827,5.9098,5.9471,0.0,0.0,0.0,5.9988,5.9988,5.9988,5.9831,5.8072,5.5594,5.2691,5.0775,4.8055,4.534,4.5133,4.495,4.4727,4.4563,4.4428,4.4323,4.4323,4.4323,4.4323,4.4323,4.4323,4.4323,4.4323,4.3979,4.3605,4.3605,4.1966,4.0138,3.914,3.7616,3.6147,3.5164,3.4043,3.2953,3.1961,3.0842,2.974,2.8759,2.8624,2.8624,2.8624,2.8703,2.8835,2.8882,2.9033,2.9127,2.9184,2.9127,2.9248,2.9418,2.9522,2.9645,2.9796,2.9843,2.9872,2.9872,2.9872,2.9872,2.9872,3.024,3.0439,3.0495,3.0864,3.1062,2.536,2.8112,3.0593,2.9725,2.9484,2.8979,2.7036,2.5739,2.4691,2.3806,2.3142,2.2702,2.2781,2.2694,2.3176,2.4858,2.6889,3.0927,3.8641,4.5937,5.2009,5.6094,5.747,5.8184,0.0,5.8853,5.8926,5.8458,5.8181,5.7972,5.7898,5.7434,5.7442,5.7898,5.7413,5.7289,5.7608,5.7359,5.7185,5.7235,5.7691,5.7918,5.7939,5.8871,5.9305,0.0,0.0,0.0,5.9988,5.9726,5.9464,5.897,5.6703,5.3958,5.1085,4.8909,4.6543,4.4322,4.4179,4.4225,4.4323,4.4323,4.4323,4.4323,4.4323,4.4323,4.4323,4.4323,4.4323,4.4323,4.4323,4.3844,4.3199,4.224,4.0502,3.8435,3.6245,3.4721,3.3357,3.2171,3.138,3.0785,3.0519,2.9899,2.9277,2.8898,2.8898,2.8898,2.8898,2.8958,2.9052,2.922,2.9324,2.9418,2.9522,2.9522,2.9541,2.9569,2.971,2.9814,2.9872,2.9872,2.9872,2.9872,2.9872,2.9919,3.0023,3.0344,3.0543,3.0647,3.0968,3.1119,2.49,2.5572,2.6329,2.6772,2.7066,2.7018,2.6063,2.5445,2.4812,2.3925,2.3282,2.2965,2.3208,2.3375,2.4181,2.6409,2.9816,3.5692,4.5725,5.0851,5.5045,5.9108,5.9994,6.0278,6.0202,6.0047,5.9428,5.8103,5.7933,5.7851,5.7794,5.7442,5.7351,5.7794,5.7442,5.7185,5.7185,5.7185,5.7185,5.7185,5.7629,5.7815,5.7836,5.8705,5.9098,0.0,0.0,0.0,5.9833,5.9213,5.8548,5.7608,5.4733,5.209,4.9505,4.6928,4.5144,4.4028,4.3621,4.3841,4.4323,4.4323,4.4323,4.4323,4.4323,4.4323,4.4323,4.4323,4.4323,4.4323,4.4323,4.377,4.2749,4.0704,3.914,3.7005,3.3291,3.1826,3.0789,2.9205,2.8882,2.8958,2.9156,2.9184,2.9184,2.9184,2.9184,2.9184,2.9184,2.9267,2.9371,2.9615,2.9662,2.9692,2.9909,2.9872,2.9861,2.9691,2.9833,2.9872,2.9872,2.9872,2.9872,2.9872,2.9965,3.006,3.0174,3.042,3.0618,3.0788,3.1015,3.1042,2.5205,2.603,2.6723,2.6866,2.7926,2.8823,2.8433,2.7945,2.7262,2.6356,2.4862,2.4053,2.5136,2.5383,2.6605,3.0141,3.661,4.3053,4.8388,5.2577,5.605,5.8806,5.9485,5.9706,5.9721,5.8882,5.8245,5.8032,5.7585,5.7306,5.7339,5.7206,5.7206,5.7339,5.7206,5.7185,5.7185,5.7185,5.7185,5.7185,5.7247,5.7339,5.7359,5.7877,5.8125,0.0,0.0,5.9409,5.9326,5.8722,5.7482,5.5804,5.3397,5.0354,4.7223,4.6071,4.456,4.3195,4.3621,4.4002,4.4323,4.4323,4.4323,4.4323,4.4323,4.4323,4.4323,4.4323,4.4323,4.4323,4.4323,4.341,4.2073,4.0064,3.7677,3.5164,3.2333,3.077,2.9727,2.9034,2.8882,2.8958,2.9156,2.9184,2.9184,2.9184,2.9184,2.9184,2.9184,2.9399,2.9541,2.9569,2.972,2.9843,2.9872,2.9872,2.9909,2.989,2.9909,2.9872,2.9872,2.9872,2.9872,2.9872,3.0042,3.0146,3.0174,3.0571,3.0769,3.0788,3.1015,3.0779,2.5381,2.6062,2.677,2.7816,2.9576,3.0958,3.063,3.0648,3.0334,2.8785,2.6969,2.6037,2.7278,2.7898,3.0428,3.7156,4.2529,4.7291,5.1334,5.4368,5.6766,0.0,0.0,5.9368,5.8776,5.8281,5.7883,5.7585,5.7335,5.7185,5.7185,5.7185,5.7185,5.7185,5.7185,5.7185,5.7185,5.7185,5.7185,5.7185,5.7185,5.7185,5.7206,5.7711,5.7918,5.7909,0.0,5.8662,5.8287,5.6952,5.5379,5.3487,5.0867,4.8211,4.5755,4.4568,4.3745,4.3255,4.3665,4.4031,4.4323,4.4323,4.4323,4.4323,4.4323,4.4323,4.4323,4.4323,4.4323,4.4323,4.4323,4.3336,4.1604,3.8567,3.638,3.4043,3.0728,2.9578,2.9157,2.9068,2.9191,2.9342,2.9541,2.9598,2.9598,2.9598,2.9598,2.9598,2.9598,2.9673,2.9785,2.9785,2.9824,2.9872,2.9872,2.9872,2.9872,2.9872,2.9872,2.9872,2.9872,2.9872,2.9919,3.0088,3.0117,3.0335,3.0514,3.0694,3.0845,3.0968,3.1062,3.071,2.5439,2.5909,2.6694,2.8694,3.0858,3.252,3.2604,3.3356,3.3524,3.1884,3.0139,2.9252,3.0348,3.1732,3.5255,4.2944,4.6848,5.0087,5.3626,5.5766,5.7306,5.8238,5.895,5.9108,5.8376,5.8197,5.7947,5.7546,5.7463,0.0,5.733,5.7277,5.7185,5.7185,5.7185,5.7185,5.7185,5.7185,5.7185,5.7185,5.7185,5.7185,5.7185,5.7587,5.7753,5.7764,5.7955,5.7595,5.6675,5.4901,5.2872,5.0664,4.8133,4.6077,4.433,4.3188,4.305,4.346,4.3636,4.4002,4.4323,4.4323,4.4323,4.4323,4.4323,4.4323,4.4323,4.4323,4.4189,4.4084,4.4084,4.2915,4.0778,3.7164,3.5152,3.3055,2.9375,2.8731,2.8929,2.9127,2.9418,2.9645,2.9843,2.9872,2.9872,2.9872,2.9872,2.9872,2.9872,2.9872,2.9872,2.9872,2.9872,2.9872,2.9872,2.9872,2.9872,2.9872,2.9872,2.9872,2.9872,2.9919,3.0023,3.0174,3.0269,3.0467,3.0788,3.0845,3.0939,3.1119,3.1062,3.0586,2.5323,2.5678,2.651,2.8881,3.1003,3.2834,3.4182,3.5788,3.6828,3.6163,3.5139,3.4505,3.5029,3.792,4.1328,4.467,4.8383,5.1789,5.4303,0.0,5.7828,5.8735,5.885,5.8967,5.93,5.8876,5.857,5.8519,5.8105,0.0,5.7877,5.7463,5.7185,5.7185,5.7185,5.7185,5.7185,5.7185,5.7185,5.7185,5.7185,5.7185,5.7185,5.7206,5.7227,5.7218,5.7076,5.6055,5.4364,5.2976,5.0334,4.7039,4.5795,4.4186,4.2606,4.2449,4.2831,4.3416,4.3402,4.3797,4.4323,4.4323,4.4323,4.4323,4.4323,4.4323,4.4323,4.4323,4.3919,4.3439,4.3439,4.159,3.9031,3.6245,3.4105,3.1961,2.9168,2.8731,2.8929,2.9127,2.9418,2.9645,2.9843,2.9872,2.9872,2.9872,2.9872,2.9872,2.9872,2.9872,2.9872,2.9872,2.9872,2.9872,2.9872,2.9872,2.9872,2.9872,2.9872,2.9872,2.9872,3.0107,3.0212,3.0174,3.0543,3.0769,3.0788,3.0987,3.1091,3.1119,3.0921,3.0176,2.5168,2.5427,2.6223,2.8062,3.0601,3.3363,3.6036,3.8243,3.984,4.0248,3.9911,0.0,0.0,4.041,4.3403,4.657,4.9585,5.2577,5.557,5.688,5.7622,5.7908,5.8476,5.8733,5.848,5.8538,5.8601,5.8601,0.0,0.0,5.7939,5.7753,5.7525,5.7235,5.7185,5.7185,5.7185,5.7185,5.7185,5.7185,5.7185,5.7185,5.7185,5.6835,5.6685,5.6625,5.571,5.4326,5.2481,5.0731,4.8356,4.557,4.4031,4.2991,4.2392,4.2392,4.267,4.3138,4.3343,4.3636,4.4031,4.4236,4.4323,4.4323,4.4323,4.4024,4.371,4.371,4.2388,4.1047,4.1456,4.0233,3.7983,3.4452,3.2807,3.1371,2.9279,2.8929,2.9127,2.9399,2.9616,2.9833,2.9909,2.9872,2.9872,2.9872,2.9872,2.9872,2.9872,2.9872,2.9872,2.9872,2.9872,2.9872,2.9872,2.9872,2.9919,3.0107,2.9947,2.9984,3.0107,3.0183,3.0297,3.0543,3.0713,3.0864,3.0987,3.1062,3.1119,3.1119,3.0487,2.9218,2.5212,2.5189,2.5759,2.7667,3.0238,3.3381,3.746,4.0288,4.2389,4.378,4.3805,4.3053,4.147,0.0,4.5019,4.7924,5.0568,5.332,5.6356,5.7091,5.7322,5.7384,5.78,5.8034,5.7886,5.8084,5.8229,5.8374,0.0,0.0,0.0,5.7691,5.7546,5.7185,5.7185,5.7185,5.7185,5.7185,5.7185,5.7185,5.7035,5.7035,5.7185,5.6635,5.6112,5.5527,5.426,5.2224,4.9796,4.8328,4.6318,4.4114,4.2892,4.2392,4.2392,4.2392,4.2582,4.2904,4.3182,4.3475,4.3811,4.4075,4.4236,4.4323,4.4323,4.3844,4.329,4.2615,4.0879,3.897,3.8128,3.7408,3.6147,3.2982,3.1641,3.0692,2.9233,2.9144,2.9399,2.955,2.9785,2.9872,2.9872,2.9872,2.9872,2.9872,2.9872,2.9872,2.9872,2.9872,2.9872,2.9872,2.9872,2.9872,2.9872,2.9872,3.0013,3.0212,3.0042,3.0107,3.0269,3.0344,3.0495,3.0788,3.0864,3.0968,3.1119,3.1043,3.087,3.0676,2.9462,2.7968,2.5594,2.4984,2.5099,2.7903,3.0007,3.2822,3.8449,4.1855,4.4434,4.6687,4.6551,4.5762,4.4801,4.5391,0.0,4.8602,5.1332,5.4041,5.6465,5.6813,5.6967,5.7336,5.6938,5.6927,5.7824,5.7484,5.7371,5.7877,0.0,0.0,0.0,5.7185,5.7185,5.7185,5.7185,5.7185,5.7185,5.7185,5.7185,5.7165,5.6685,5.6685,5.7185,5.6635,5.5436,5.3843,5.2619,4.9778,4.5942,4.5596,4.4275,4.2392,4.2392,4.2392,4.2392,4.2392,4.2582,4.2875,4.2875,4.327,4.3767,4.3767,4.4031,4.4323,4.4323,4.3844,4.299,4.0945,3.9479,3.7543,3.3527,3.3015,3.3222,3.1899,3.0723,2.9676,2.9082,2.9267,2.9569,2.9569,2.9749,2.9872,2.9872,2.9872,2.9872,2.9872,2.9872,2.9872,2.9872,2.9872,2.9872,2.9872,2.9872,2.9872,2.9872,2.9872,3.0013,3.0174,3.0174,3.0269,3.0495,3.0694,3.0788,3.0788,3.1015,3.1119,3.1119,3.0892,3.0461,2.9719,2.7841,2.6387,2.5046,2.554,2.6817,2.9308,3.2547,3.636,4.108,4.3523,4.6047,5.0491,5.0121,4.8536,4.692,4.7116,0.0,4.9213,5.155,5.404,5.6463,5.6796,5.6697,5.6458,5.6507,5.6676,5.6954,5.7132,5.7277,0.0,0.0,0.0,0.0,5.7185,5.7185,5.7185,5.7185,5.7185,5.7185,5.7185,5.7185,5.7165,5.6685,5.6484,5.6584,5.49,5.3678,5.2634,5.0601,4.8058,4.5292,4.3671,4.2765,4.2392,4.2392,4.2392,4.2392,4.2392,4.2465,4.261,4.2845,4.2992,4.3226,4.368,4.3854,4.3971,4.4236,4.3545,4.23,4.0233,3.8092,3.5705,3.2673,3.135,3.0593,2.9678,2.9226,2.9037,2.9097,2.9248,2.9418,2.972,2.989,2.9872,2.9872,2.9872,2.9872,2.9872,2.9872,2.9872,2.9872,2.9872,2.9872,2.9872,2.9872,2.9872,2.9872,2.9872,3.0023,3.0372,3.0391,3.0495,3.0694,3.0769,3.0864,3.1015,3.0537,3.0342,3.0342,2.9674,2.8696,2.7461,2.6153,2.429,2.5753,2.7063,2.9093,3.1921,3.5799,4.0289,4.5426,4.7365,4.9089,5.275,5.2271,5.0764,4.9454,4.9319,0.0,5.0873,5.2599,5.4475,5.6537,5.6602,5.6286,5.5777,5.5763,5.5835,5.6021,5.6097,5.6172,0.0,0.0,0.0,0.0,5.6594,5.6697,5.6697,5.6697,5.678,5.6966,5.6966,5.7049,5.7185,5.6434,5.5709,5.5032,5.3525,5.1913,5.0183,4.7323,4.5362,4.4058,4.226,4.1777,4.2187,4.2187,4.226,4.2392,4.2392,4.2392,4.2421,4.2626,4.2815,4.2948,4.3314,4.3577,4.3811,4.4015,4.3324,4.1832,3.9005,3.676,3.4413,3.1215,2.9783,2.9106,2.8687,2.8637,2.8823,2.9005,2.9248,2.9446,2.9766,2.9824,2.9872,2.9872,2.9872,2.9872,2.9872,2.9872,2.9872,2.9872,2.9872,2.9872,2.9872,2.9872,2.9872,2.9872,2.9872,3.0042,3.0467,3.0495,3.0618,3.0921,3.0921,3.0851,3.0633,2.9669,2.8978,2.8713,2.7418,2.6219,2.5105,2.3762,2.21,2.7239,2.9159,3.1575,3.5252,3.9621,4.4511,5.0496,5.2237,5.2803,5.3778,5.3298,5.2555,5.2075,5.166,5.1876,5.3189,5.4194,5.5259,5.653,5.632,5.5803,5.5304,5.483,5.4689,5.5082,5.4772,0.0,0.0,0.0,0.0,0.0,5.5579,5.5876,5.5918,5.5918,5.6146,5.6602,5.6622,5.678,5.7185,5.6132,5.4646,5.2852,5.2306,5.0217,4.6908,4.363,4.2385,4.2635,4.147,4.1338,4.1894,4.1894,4.2099,4.2392,4.2392,4.2392,4.2392,4.2392,4.2582,4.2831,4.2875,4.327,4.3797,4.3767,4.3166,4.159,3.7579,3.5509,3.356,2.9615,2.8624,2.8624,2.8624,2.8766,2.8854,2.8882,2.9248,2.9522,2.9569,2.972,2.9909,2.9872,2.9872,2.9872,2.9872,2.9872,2.9872,2.9872,2.9872,2.9872,2.9872,2.9872,2.9872,2.9872,2.9872,3.0042,3.0467,3.0495,3.0694,3.1091,3.1119,3.0779,3.001,2.85,2.732,2.6575,2.4744,2.3437,2.2687,2.1103,1.9984,2.7714,3.0297,3.3286,3.7376,4.3175,4.8675,5.1656,5.2969,5.3756,5.4412,5.4369,5.4084,5.3517,5.3691,5.415,5.4805,5.5417,5.5885,5.6149,5.6085,5.5661,5.4782,5.4592,5.4517,5.4621,5.4538,0.0,0.0,0.0,0.0,5.5165,5.5269,5.5496,5.5918,5.5918,5.6146,5.6602,5.6622,5.678,0.0,5.6132,5.4016,5.1133,5.0581,4.8509,4.5202,4.3106,4.2385,4.2635,4.147,4.1338,4.1894,4.1894,4.2099,4.2392,4.2392,4.2392,4.2392,4.2392,4.2421,4.2538,4.2787,4.3153,4.3519,4.3753,4.3166,4.159,3.7579,3.5509,3.356,2.9615,2.8624,2.8624,2.8624,2.8643,2.8684,2.8854,2.8958,2.9172,2.9558,2.9662,2.9692,2.9843,2.9872,2.9872,2.9872,2.9872,2.9872,2.9872,2.9872,2.9872,2.9872,2.9872,2.9872,2.9872,2.9872,3.0042,3.0467,3.0495,3.0694,3.1091,3.1119,3.0779,3.001,2.8013,2.6575,2.5828,2.3631,2.1847,2.055,1.9989,1.9017,2.8517,3.2137,3.6396,4.257,4.7355,5.0925,5.2488,5.3582,5.4346,5.4653,5.4696,5.4631,5.4325,5.4522,5.4849,5.5308,5.5592,5.5644,5.539,5.5502,5.5276,5.4287,5.4352,5.4497,5.4497,5.4497,0.0,0.0,0.0,5.4579,5.4855,5.4875,5.4979,5.5227,5.5227,5.5455,5.5939,5.5666,5.5898,5.6506,5.4884,5.2303,4.8963,4.7613,4.6039,4.4307,4.2852,4.2293,4.2367,4.1218,4.1016,4.1455,4.1455,4.1733,4.2143,4.2143,4.226,4.2392,4.2392,4.2392,4.2421,4.2582,4.3006,4.346,4.3563,4.3037,4.159,3.7579,3.5509,3.356,2.9615,2.8624,2.8624,2.8624,2.8624,2.8643,2.8703,2.8807,2.8976,2.9342,2.9494,2.9645,2.9843,2.9872,2.9872,2.9872,2.9872,2.9872,2.9872,2.9872,2.9872,2.9872,2.9872,2.9872,2.9872,2.9872,3.0042,3.0467,3.0495,3.0694,3.1091,3.0779,3.0224,2.9456,2.6986,2.5133,2.4033,2.1282,1.9572,1.8817,1.8613,1.8128,2.9189,3.4318,4.0083,4.7596,5.0589,5.1944,5.297,5.3888,5.4609,5.4675,5.4696,5.4696,5.4696,5.4696,5.4849,5.5308,5.5395,5.5233,5.4686,5.4953,5.4812,5.3934,5.4145,5.4393,5.4476,5.4497,0.0,0.0,0.0,5.4497,5.4497,5.4497,5.4497,5.4497,5.4497,5.4751,5.5186,5.4655,5.4675,5.5241,5.2707,4.9972,4.7101,4.4881,4.3877,4.3823,4.2689,4.2187,4.2093,4.0966,4.0694,4.0973,4.0973,4.1394,4.1894,4.1894,4.2099,4.2392,4.2392,4.2392,4.2392,4.2392,4.2729,4.3168,4.3211,4.2583,4.1072,3.7347,3.5263,3.3324,2.9543,2.8624,2.8624,2.8624,2.8624,2.8624,2.8624,2.8703,2.8901,2.9127,2.9446,2.9673,2.9843,2.9872,2.9872,2.9872,2.9872,2.9872,2.9872,2.9872,2.9872,2.9872,2.9872,2.9872,2.9872,2.9872,3.0042,3.0467,3.0495,3.0617,3.0896,3.0079,2.9192,2.8372,2.5683,2.3551,2.1915,1.9104,1.775,1.775,1.7527,1.7467,2.9118,3.6502,4.3679,4.7926,5.0087,5.157,5.2905,5.3647,5.415,5.4609,5.4696,5.4696,5.4696,5.4696,5.4849,5.5308,5.5395,5.5233,5.4686,5.4655,5.4499,5.3893,5.3856,5.4042,5.4455,5.4497,0.0,0.0,5.4497,5.4497,5.4497,5.4497,5.4497,5.4497,5.4497,5.4751,5.5186,5.4655,5.3955,5.3063,4.9296,4.7164,4.6571,4.4736,4.3877,4.3823,4.2689,4.2187,4.2093,4.0966,4.0694,4.0973,4.0973,4.1394,4.1894,4.1894,4.2099,4.2392,4.2392,4.2392,4.2392,4.2392,4.231,4.2236,4.2451,4.1123,3.8903,3.6357,3.4278,3.2198,2.9365,2.8624,2.8624,2.8624,2.8624,2.8624,2.8624,2.8643,2.8775,2.9108,2.9569,2.9843,2.9872,2.9872,2.9872,2.9872,2.9872,2.9872,2.9872,2.9872,2.9872,2.9872,2.9872,2.9872,2.9872,2.9872,3.0042,3.0467,3.0495,3.0406,3.0128,2.8833,2.7465,2.6095,2.4369,2.2517,2.0381,1.8713,1.7875,1.7875,1.7734,1.7679,3.161,3.8348,4.4109,4.8547,5.0393,5.1417,5.2533,5.3385,5.3953,5.4215,5.4477,5.4696,5.4696,5.4696,5.4762,5.4981,5.4757,5.4376,5.3895,5.3832,5.3629,5.3146,5.3483,5.3876,5.4083,5.4331,0.0,0.0,5.4497,5.4497,5.4497,5.4497,5.4497,5.4497,5.4497,5.4579,5.4813,5.3998,5.2433,5.0047,4.7441,4.5925,4.5226,4.4318,4.3877,4.3823,4.2689,4.2187,4.2093,4.0966,4.0563,4.0749,4.0749,4.109,4.1589,4.1589,4.1968,4.2392,4.2392,4.2392,4.2392,4.2392,4.2194,4.1787,4.085,3.954,3.7774,3.4579,3.2895,3.1516,2.9168,2.8624,2.8624,2.8624,2.8624,2.8624,2.8624,2.8624,2.8747,2.9108,2.9598,2.9872,2.9872,2.9872,2.9872,2.9872,2.9872,2.9872,2.9872,2.9872,2.9872,2.9872,2.9872,2.9872,2.9872,2.9545,2.9394,2.9709,2.9377,2.8825,2.8055,2.7043,2.5437,2.3192,2.2517,2.1488,2.0116,1.8602,1.7902,1.7902,1.7777,1.7766,3.2535,3.7965,4.2301,4.6943,4.8776,4.9803,5.1245,5.2315,5.3146,5.3779,5.4237,5.4565,5.4675,5.4696,5.4652,5.452,5.4165,5.3699,5.3096,5.3032,5.2876,5.252,5.3095,5.3504,5.3628,5.3938,0.0,0.0,5.4249,5.4311,5.4311,5.4435,5.4497,5.4497,5.4497,5.4497,5.4497,5.2664,5.0427,4.7799,4.5925,4.4693,4.406,4.373,4.3636,4.3608,4.2635,4.2093,4.1876,4.0912,4.049,4.049,4.049,4.0885,4.1385,4.1385,4.1794,4.2392,4.2392,4.232,4.2163,4.2163,4.1632,4.0658,3.911,3.7733,3.6032,3.2878,3.1524,3.0728,2.9,2.8624,2.8624,2.8624,2.8624,2.8624,2.8624,2.8671,2.876,2.9108,2.9541,2.9824,2.9872,2.9872,2.9872,2.9872,2.9872,2.9872,2.9872,2.9872,2.9872,2.9872,2.9872,2.9797,2.9657,2.8807,2.8307,2.8305,2.7518,2.6597,2.5694,2.4737,2.3242,2.094,2.0564,2.0116,1.9562,1.8458,1.7902,1.7902,1.7804,1.7821,2.9769,3.3793,3.785,4.1287,4.3534,4.5653,4.8449,4.9825,5.1157,5.3429,5.391,5.4128,5.4609,5.4696,5.452,5.401,5.3922,5.3566,5.2671,5.2557,5.2521,5.2479,5.2536,5.2743,5.3178,5.324,5.3261,0.0,5.3633,5.3835,5.3835,5.4249,5.4497,5.4497,5.4497,5.4497,5.4497,5.0472,4.8048,4.7175,4.4096,4.2876,4.3406,4.2905,4.2826,4.3083,4.2473,4.1876,4.1278,4.0763,4.049,4.049,4.049,4.0885,4.1385,4.1385,4.1794,4.2392,4.2392,4.2006,4.1546,4.1546,3.9933,3.7944,3.7442,3.5346,3.2845,3.1672,3.0545,2.9543,2.8793,2.8624,2.8624,2.8624,2.8624,2.8624,2.8624,2.8775,2.8929,2.9127,2.9418,2.971,2.9843,2.9872,2.9872,2.9872,2.9872,2.9872,2.9872,2.9872,2.9872,2.9872,2.9872,2.962,2.8947,2.761,2.6644,2.6165,2.4843,2.3784,2.3295,2.1936,2.0861,1.9977,1.8736,1.8047,1.7977,1.7908,1.7902,1.7902,1.7902,1.7902,2.678,3.0034,3.3498,3.6729,3.9503,4.2148,4.5034,4.7597,5.0087,5.2512,5.3451,5.4041,5.4609,5.4696,5.452,5.3988,5.3676,5.323,5.2581,5.2242,5.2034,5.2019,5.2309,5.2557,5.2723,5.3013,5.3178,0.0,0.0,5.3427,5.3427,5.3794,5.4042,5.4042,5.4046,5.3357,5.1988,4.9149,4.7093,4.5814,4.3501,4.2628,4.3073,4.3099,4.2917,4.2542,4.254,4.2058,4.1293,4.0969,4.068,4.0519,4.0724,4.1046,4.1429,4.1646,4.2011,4.2392,4.2392,4.1991,4.1317,4.0021,3.849,3.6655,3.4088,3.2435,3.1224,2.9609,2.9084,2.8928,2.8687,2.8624,2.8624,2.8624,2.8624,2.8624,2.8624,2.8731,2.8929,2.9127,2.9418,2.9645,2.9843,2.9872,2.9872,2.9872,2.9872,2.9872,2.9872,2.9872,2.9872,2.9872,2.9479,2.8741,2.7544,2.6166,2.4873,2.3826,2.2925,2.1981,2.0976,2.0444,1.9745,1.8667,1.8158,1.7902,1.7902,1.7902,1.7902,1.7902,1.7902,1.7902,2.4149,2.6571,2.915,3.1676,3.4622,3.7689,4.0574,4.3949,4.7335,5.0415,5.1944,5.3014,5.3997,5.4215,5.4105,5.3701,5.3409,5.2961,5.2378,5.2017,5.1791,5.1791,5.2081,5.2267,5.2267,5.2536,5.2723,0.0,0.0,0.0,5.295,5.3385,5.3602,5.3558,5.3209,5.2133,5.0334,4.7866,4.599,4.4767,4.3049,4.2437,4.2882,4.2909,4.2792,4.2488,4.2444,4.1906,4.1036,4.1006,4.0823,4.0519,4.0724,4.109,4.1429,4.1633,4.187,4.2091,4.2091,4.1288,4.0021,3.849,3.6746,3.4699,3.1719,3.0534,2.9865,2.8429,2.8293,2.8624,2.8624,2.8624,2.8624,2.8624,2.8624,2.8624,2.8624,2.8684,2.8854,2.9127,2.9371,2.955,2.9824,2.9872,2.9872,2.9872,2.9872,2.9872,2.9872,2.9872,2.9797,2.9545,2.8667,2.7496,2.6092,2.4256,2.2708,2.1562,2.0655,1.9836,1.9022,1.9021,1.872,1.7837,1.7891,1.7902,1.7902,1.7902,1.7902,1.7902,1.7902,1.7864,0.0,0.0,0.0,2.6095,2.8921,3.2175,3.5109,3.8782,4.2791,4.7198,4.9257,5.0895,5.2839,5.3232,5.3191,5.3193,5.3143,5.2829,5.1885,5.1771,5.1791,5.1791,5.1791,5.1791,5.1791,5.1791,5.1791,0.0,5.2226,5.2474,5.2474,5.2909,5.3131,5.3019,5.1904,5.0813,4.9727,4.6573,4.4683,4.4144,4.255,4.2199,4.2866,4.2303,4.2414,4.3045,4.217,4.1332,4.0534,4.0855,4.0823,4.049,4.049,4.0885,4.1385,4.1385,4.1469,4.1475,4.1417,3.979,3.7619,3.6875,3.4569,3.1811,3.0497,2.9582,2.8857,2.8194,2.8293,2.8624,2.8624,2.8624,2.8624,2.8624,2.8624,2.8624,2.8624,2.8624,2.8747,2.9108,2.9184,2.9325,2.9796,2.9872,2.9872,2.9872,2.9872,2.9872,2.9872,2.9872,2.9545,2.8807,2.7496,2.6051,2.4594,2.1937,2.0092,1.9499,1.8167,1.7413,1.747,1.7594,1.7723,1.7723,1.7848,1.7902,1.7902,1.7902,1.7902,1.7902,1.7902,1.7777,1.9708,0.0,0.0,0.0,0.0,0.0,2.9687,3.4344,3.9493,4.4539,4.7837,5.0483,5.2796,5.3451,5.3365,5.2361,5.2209,5.1857,5.0931,5.1087,5.1294,5.1294,5.1605,5.1791,5.1791,5.1791,5.1791,0.0,5.1915,5.1998,5.1998,5.2092,5.1757,5.0886,5.0185,4.8869,4.7007,4.5305,4.3992,4.3111,4.2192,4.2088,4.2532,4.2614,4.266,4.2687,4.2501,4.1906,4.109,4.1006,4.0823,4.0519,4.0793,4.109,4.1429,4.169,4.1643,4.1317,3.9892,3.8361,3.6584,3.3665,3.1789,3.0389,2.8673,2.8205,2.8255,2.8062,2.8293,2.8624,2.8624,2.8624,2.8624,2.8624,2.8624,2.8624,2.8624,2.8684,2.8917,2.9127,2.9371,2.9569,2.9824,2.9872,2.9872,2.9872,2.9479,2.9134,2.9134,2.8694,2.7907,2.6643,2.5722,2.4183,2.1745,2.0367,1.9116,1.7896,1.7594,1.7494,1.747,1.7734,1.7848,1.7848,1.7891,1.7902,1.7902,1.7902,1.7902,1.7902,1.7902,1.7777,0.0,0.0,0.0,0.0,0.0,0.0,2.5841,3.0275,3.5321,4.0017,4.3512,4.6526,4.9126,4.9847,4.9692,4.8682,4.8887,4.9469,5.0264,5.0653,5.0818,5.0818,5.1067,5.1294,5.1501,5.1522,5.1584,5.1791,5.1791,5.1701,5.152,5.1041,5.0296,4.9215,4.7898,4.6507,4.4981,4.3773,4.2907,4.231,4.1952,4.204,4.2405,4.2723,4.2914,4.2852,4.2589,4.2167,4.162,4.1049,4.0705,4.0544,4.0749,4.1046,4.1429,4.1589,4.1444,4.0828,3.8882,3.707,3.5085,3.1789,3.0102,2.916,2.7796,2.7679,2.8001,2.8001,2.8293,2.8624,2.8624,2.8624,2.8624,2.8624,2.8624,2.8624,2.8624,2.8731,2.8929,2.9127,2.9418,2.9645,2.9843,2.9872,2.9797,2.9479,2.8601,2.7815,2.7496,2.6577,2.5582,2.4462,2.3406,2.2069,2.0095,1.9032,1.8074,1.7328,1.7386,1.7511,1.7609,1.775,1.7848,1.7902,1.7902,1.7902,1.7902,1.7902,1.7902,1.7902,1.7902,1.7777,2.0895,2.0634,0.0,0.0,0.0,0.0,2.3117,2.6584,3.0712,3.4497,3.7623,4.0498,4.3359,4.3862,4.372,4.3235,4.4154,4.6106,4.9479,5.0073,5.0239,5.0342,5.0384,5.0591,5.0984,5.1025,5.1232,5.1688,5.1771,5.1565,5.1066,4.9967,4.8833,4.7762,4.5545,4.4071,4.354,4.2372,4.1798,4.1798,4.1798,4.2008,4.2342,4.2707,4.3057,4.3321,4.252,4.2187,4.2093,4.0966,4.049,4.049,4.0519,4.0929,4.1385,4.1429,4.1058,4.031,3.8142,3.5833,3.3464,3.0783,2.91,2.8095,2.7566,2.7679,2.8001,2.8048,2.835,2.8624,2.8624,2.8624,2.8624,2.8624,2.8624,2.8624,2.8624,2.8731,2.8929,2.9108,2.9399,2.9645,2.9843,2.9806,2.9479,2.8676,2.7356,2.6166,2.5376,2.4117,2.2988,2.2209,2.1017,1.9956,1.9171,1.7924,1.7228,1.7399,1.7359,1.7456,1.7696,1.7706,1.7777,1.7902,1.7902,1.7902,1.7902,1.7902,1.7902,1.7891,1.7891,1.775,2.1882,2.1713,2.1464,0.0,0.0,0.0,2.0849,2.3591,2.7042,3.0146,3.3355,3.6413,3.8903,3.9362,3.9203,3.8733,4.0161,4.2649,4.6455,4.8025,4.9081,4.9847,5.0197,5.0466,5.0549,5.0549,5.0736,5.1212,5.1584,5.1384,5.0519,4.9117,4.7684,4.6213,4.4341,4.304,4.2403,4.2016,4.1798,4.1798,4.1798,4.183,4.1925,4.2596,4.2914,4.2972,4.2412,4.2187,4.2093,4.0966,4.049,4.0519,4.0823,4.1133,4.1429,4.1677,4.1316,4.0093,3.665,3.444,3.2627,2.909,2.7796,2.7566,2.7437,2.7679,2.8076,2.8397,2.8549,2.8624,2.8624,2.8624,2.8624,2.8624,2.8624,2.8624,2.8624,2.8731,2.8882,2.8929,2.9324,2.9645,2.9843,2.9405,2.8601,2.7291,2.5911,2.4528,2.3281,2.2348,2.1355,2.0041,1.9702,1.8965,1.7718,1.739,1.7201,1.7217,1.7366,1.7429,1.7565,1.7663,1.7777,1.7902,1.7902,1.7902,1.7902,1.7902,1.7848,1.7766,1.7766,1.7625,2.356,2.2973,2.2291,2.141,0.0,0.0,0.0,2.2,2.4441,2.6867,2.9248,3.156,3.377,3.4163,3.408,3.3859,3.5666,3.8061,4.0814,4.4722,4.7755,4.8957,4.9516,4.9742,4.9742,4.9949,5.0363,5.1067,5.1315,5.1113,5.0317,4.8142,4.6372,4.5048,4.2996,4.1813,4.1441,4.1681,4.1798,4.1798,4.1798,4.1798,4.1814,4.2564,4.2882,4.2861,4.2381,4.2187,4.2093,4.1144,4.0724,4.0793,4.0955,4.0955,4.1007,4.1326,4.0489,3.8722,3.5541,3.3441,3.1585,2.8444,2.7377,2.7377,2.7377,2.7679,2.8076,2.8501,2.8624,2.8624,2.8624,2.8624,2.8624,2.8624,2.8624,2.8624,2.8624,2.87,2.876,2.8854,2.8881,2.8949,2.9172,2.8416,2.7291,2.5845,2.3861,2.2136,2.103,1.9974,1.905,1.8318,1.8245,1.799,1.7257,1.719,1.719,1.719,1.7244,1.7359,1.7459,1.7524,1.7723,1.7902,1.7902,1.7902,1.7902,1.7902,1.7848,1.7723,1.7723,1.7598,0.0,0.0,0.0,0.0,0.0,2.0877,0.0,0.0,0.0,0.0,2.5469,2.6868,2.8637,2.8854,2.8832,2.8919,3.0932,0.0,0.0,4.0064,0.0,4.6967,4.7714,4.8169,4.8439,4.9102,4.9827,5.0529,5.0756,5.06,5.0055,4.7351,4.5321,4.4317,4.203,4.0785,4.0785,4.1433,4.1798,4.1798,4.1798,4.1798,4.1814,4.2564,4.2882,4.2861,4.2381,4.2187,4.2163,4.1307,4.0903,4.0821,4.109,4.0918,4.0588,4.0519,3.9283,3.7225,3.4381,3.2402,3.0588,2.8214,2.7377,2.7405,2.7481,2.7726,2.8076,2.8501,2.8624,2.8624,2.8624,2.8624,2.8624,2.8624,2.8624,2.8624,2.8624,2.8624,2.8609,2.8643,2.815,2.7847,2.8081,2.7104,2.5705,2.4066,2.1745,1.9889,1.9032,1.7924,1.719,1.719,1.719,1.719,1.719,1.719,1.719,1.719,1.719,1.7299,1.7459,1.7581,1.7706,1.7902,1.7902,1.7902,1.7902,1.7902,1.7837,1.7679,1.7679,1.7554,0.0,0.0,0.0,0.0,2.2215,0.0,0.0,0.0,0.0,0.0,0.0,0.0,2.4248,0.0,0.0,0.0,0.0,0.0,3.0316,3.3099,3.695,4.2359,4.3718,4.4712,4.5994,4.761,4.8625,4.8686,4.9495,4.972,4.9194,4.7047,4.5321,4.4317,4.203,4.0785,4.0785,4.1433,4.1798,4.1798,4.1798,4.1798,4.1814,4.2564,4.2882,4.2861,4.2381,4.2187,4.2163,4.1307,4.0626,4.0226,4.1348,4.144,4.0747,3.9382,3.8032,3.6383,3.2723,3.0912,2.9973,2.8025,2.7377,2.7452,2.7821,2.7953,2.8076,2.8501,2.8624,2.8624,2.8624,2.8624,2.8624,2.8624,2.8624,2.8624,2.8624,2.8624,2.8446,2.7837,2.691,2.6254,2.6565,2.5665,2.3934,2.1289,2.0028,1.8917,1.7585,1.7323,1.719,1.719,1.719,1.719,1.719,1.719,1.719,1.719,1.719,1.7299,1.7459,1.775,1.7875,1.7902,1.7902,1.7902,1.7902,1.7902,1.7793,1.7554,1.7554,1.7429,0.0,0.0,0.0,0.0,0.0,0.0,0.0,0.0,2.1113,0.0,0.0,0.0,0.0,0.0,0.0,0.0,2.4705,0.0,0.0,0.0,3.2313,0.0,0.0,0.0,4.4277,4.5643,4.6637,0.0,4.7568,4.8014,4.8546,4.6584,4.5038,4.4317,4.203,4.0785,4.0785,4.1433,4.1798,4.1798,4.1798,4.1798,4.1814,4.2564,4.2882,4.2861,4.2381,4.2187,4.2124,4.1489,4.0846,4.0289,4.0078,3.9518,3.8735,3.7863,3.6092,3.3758,3.1375,2.9913,2.8931,2.7796,2.7377,2.7424,2.7726,2.7897,2.8076,2.8369,2.852,2.8624,2.8624,2.8624,2.8624,2.8624,2.8624,2.8624,2.8624,2.8624,2.8418,2.7738,2.6314,2.4981,2.3948,2.2834,2.1524,1.9956,1.8778,1.7857,1.7257,1.719,1.719,1.719,1.719,1.719,1.719,1.719,1.719,1.719,1.7315,1.744,1.747,1.7777,1.7902,1.7902,1.7902,1.7875,1.7793,1.7793,1.7668,1.744,1.7511,1.7413,3.2139,0.0,0.0,0.0,0.0,0.0,0.0,0.0,0.0,0.0,0.0,0.0,0.0,0.0,0.0,0.0,0.0,2.4393,0.0,2.5466,0.0,0.0,0.0,0.0,0.0,4.3077,4.4008,4.4756,0.0,4.5594,4.6957,4.5406,4.4376,4.398,4.1832,4.0689,4.0785,4.1389,4.1703,4.1798,4.1798,4.1798,4.1814,4.2564,4.2882,4.2861,4.2381,4.2187,4.2139,4.1607,4.0951,4.0137,3.8827,3.7547,3.6306,3.5538,3.37,3.1397,2.9913,2.8802,2.7985,2.7566,2.7377,2.7424,2.7623,2.7802,2.7972,2.8246,2.8426,2.8549,2.8596,2.8624,2.8624,2.8624,2.8624,2.8624,2.8624,2.8624,2.8383,2.7478,2.563,2.3624,2.1917,2.0704,1.9606,1.8832,1.7857,1.719,1.719,1.719,1.719,1.719,1.719,1.719,1.719,1.719,1.719,1.719,1.7369,1.7511,1.747,1.7734,1.7875,1.7902,1.7902,1.7848,1.7723,1.7723,1.7598,1.7426,1.744,1.7386,0.0,0.0,0.0,2.7787,0.0,0.0,0.0,0.0,2.2524,0.0,0.0,0.0,0.0,0.0,0.0,0.0,0.0,0.0,0.0,0.0,0.0,0.0,0.0,0.0,0.0,3.9578,4.0572,0.0,4.1498,0.0,4.3698,4.3305,4.3054,4.3037,4.1271,4.0467,4.0785,4.115,4.15,4.1798,4.1798,4.1798,4.1814,4.2564,4.2882,4.2861,4.2381,4.2187,4.2139,4.1607,4.0727,3.9475,3.8207,3.6254,3.3864,3.1956,3.0853,2.9973,2.8155,2.7437,2.7437,2.7437,2.7377,2.7424,2.7623,2.7698,2.7802,2.8199,2.8322,2.8369,2.8568,2.8624,2.8624,2.8624,2.8624,2.8624,2.8624,2.8624,2.8186,2.6859,2.4458,2.2221,2.1127,1.9933,1.8689,1.7435,1.7257,1.719,1.719,1.719,1.719,1.719,1.719,1.719,1.719,1.719,1.719,1.719,1.7299,1.7413,1.747,1.7594,1.7777,1.7902,1.7902,1.7848,1.7723,1.7723,1.7598,1.7426,1.7426,1.7299,0.0,0.0,3.3511,3.1622,0.0,0.0,0.0,0.0,0.0,0.0,0.0,0.0,0.0,0.0,0.0,0.0,0.0,0.0,0.0,0.0,0.0,0.0,0.0,0.0,0.0,0.0,0.0,0.0,3.7405,0.0,4.1269,4.1012,4.117,4.2132,4.0959,4.034,4.0467,4.1023,4.1373,4.15,4.1687,4.1798,4.1814,4.2564,4.2882,4.2861,4.2381,4.2187,4.2139,4.1607,4.0671,3.9376,3.6852,3.4804,3.3111,3.1208,2.9843,2.8802,2.7736,2.7377,2.7377,2.7377,2.7377,2.7405,2.7481,2.7575,2.7755,2.8029,2.8218,2.8369,2.8568,2.8624,2.8624,2.8624,2.8624,2.8624,2.8624,2.8248,2.7406,2.5647,2.3432,2.1386,1.9831,1.8492,1.7471,1.7229,1.719,1.719,1.719,1.719,1.719,1.719,1.719,1.719,1.719,1.719,1.719,1.719,1.7299,1.7437,1.7413,1.7609,1.7734,1.7777,1.7864,1.7804,1.7598,1.7598,1.7484,1.7244,1.7244,1.7228,3.8821,3.7896,0.0,3.5444,3.3311,0.0,2.8855,0.0,0.0,0.0,0.0,0.0,0.0,0.0,0.0,0.0,0.0,0.0,0.0,2.0916,0.0,0.0,0.0,0.0,0.0,0.0,3.2685,3.343,3.3637,3.5087,0.0,0.0,3.9366,4.0975,4.0534,4.0356,4.0467,4.1023,4.1373,4.15,4.1687,4.1861,4.2056,4.2628,4.2946,4.3052,4.2442,4.2187,4.2139,4.1607,4.0671,3.9305,3.6144,3.4147,3.2698,3.0141,2.8673,2.7925,2.7506,2.7377,2.7377,2.7377,2.7377,2.7377,2.7377,2.7481,2.7651,2.7925,2.8095,2.8275,2.8549,2.8624,2.8624,2.8624,2.8624,2.8552,2.8311,2.754,2.6356,2.4576,2.2372,2.0352,1.9049,1.7711,1.6907,1.7147,1.719,1.719,1.719,1.719,1.719,1.719,1.719,1.719,1.719,1.719,1.719,1.719,1.7261,1.7382,1.7426,1.7554,1.7679,1.7723,1.7848,1.7777,1.747,1.747,1.7413,1.719,1.719,1.719]},{"header":{"parameterUnit":"m.s-1","parameterCategory":1,"la1":30.6,"la2":29.2853,"lo1":-89.7004,"lo2":-87.6739,"dy":0.0162,"dx":0.0183,"nx":112,"ny":82,"refTime":"2026-03-24T00:00:00:Z","depth":0,"parameterNumber":3,"parameterNumberName":"V-component_of_WINDS"},"data":[0.0,0.0,0.0,0.0,0.0,0.0,0.0,0.0,0.0,0.0,0.0,0.0,0.0,0.0,0.0,0.0,0.0,0.0,0.0,0.0,0.0,0.0,0.0,0.0,0.0,0.0,0.0,0.0,0.0,0.0,0.0,0.0,0.0,0.0,0.0,0.0,0.0,0.0,0.0,0.0,0.0,0.0,0.0,0.0,0.0,0.0,0.0,0.0,0.0,0.0,0.0,0.0,0.0,0.0,0.0,0.0,0.0,0.0,0.0,0.0,0.0,0.0,0.0,0.0,0.0,0.0,0.0,0.0,0.0,0.0,0.0,0.0,0.0,0.0,0.0,0.0,0.0,0.0,0.0,0.0,0.0,0.0,0.0,0.0,0.0,0.0,0.0,0.0,0.0,0.0,0.0,5.528,6.493,6.9981,6.8128,6.6018,6.2381,5.6809,0.0,0.0,0.0,0.0,0.0,0.0,0.0,0.0,0.0,0.0,0.0,0.0,0.0,0.0,0.0,0.0,0.0,0.0,0.0,0.0,0.0,0.0,0.0,0.0,0.0,0.0,0.0,0.0,0.0,0.0,0.0,0.0,0.0,0.0,0.0,0.0,0.0,0.0,0.0,0.0,0.0,0.0,0.0,0.0,0.0,0.0,0.0,0.0,0.0,0.0,0.0,0.0,0.0,0.0,0.0,0.0,0.0,0.0,0.0,0.0,0.0,0.0,0.0,0.0,0.0,0.0,0.0,0.0,0.0,0.0,0.0,0.0,0.0,0.0,0.0,0.0,0.0,0.0,0.0,0.0,0.0,0.0,0.0,0.0,0.0,0.0,0.0,0.0,0.0,0.0,0.0,0.0,0.0,0.0,0.0,0.0,0.0,0.0,0.0,0.0,0.0,0.0,0.0,0.0,5.0876,6.3052,6.9043,7.1493,6.9852,6.8313,6.4595,5.7891,0.0,0.0,0.0,0.0,0.0,0.0,0.0,0.0,0.0,0.0,0.0,0.0,0.0,0.0,0.0,0.0,0.0,0.0,0.0,0.0,0.0,0.0,0.0,0.0,0.0,0.0,0.0,0.0,0.0,0.0,0.0,0.0,0.0,0.0,0.0,0.0,0.0,0.0,0.0,0.0,0.0,0.0,0.0,0.0,0.0,0.0,0.0,0.0,0.0,0.0,0.0,0.0,0.0,0.0,0.0,0.0,0.0,0.0,0.0,0.0,0.0,0.0,0.0,0.0,0.0,0.0,0.0,0.0,0.0,0.0,0.0,0.0,0.0,0.0,0.0,0.0,0.0,0.0,0.0,0.0,0.0,0.0,0.0,0.0,0.0,0.0,0.0,0.0,0.0,0.0,0.0,0.0,0.0,0.0,0.0,0.0,0.0,0.0,0.0,0.0,0.0,0.0,0.0,5.0797,5.9242,6.6728,7.0764,7.2141,7.0204,6.7833,6.3683,5.7227,4.8758,0.0,0.0,0.0,0.0,0.0,0.0,0.0,0.0,0.0,0.0,0.0,0.0,0.0,0.0,0.0,0.0,0.0,0.0,0.0,0.0,0.0,0.0,0.0,0.0,0.0,0.0,0.0,0.0,0.0,0.0,0.0,0.0,0.0,0.0,0.0,0.0,0.0,0.0,0.0,0.0,0.0,0.0,0.0,0.0,0.0,0.0,0.0,0.0,0.0,0.0,0.0,0.0,0.0,0.0,0.0,0.0,0.0,0.0,0.0,0.0,0.0,0.0,0.0,0.0,0.0,0.0,0.0,0.0,0.0,0.0,0.0,0.0,0.0,0.0,0.0,0.0,0.0,0.0,0.0,0.0,0.0,0.0,0.0,0.0,0.0,0.0,0.0,0.0,0.0,0.0,0.0,0.0,0.0,0.0,0.0,0.0,0.0,0.0,0.0,0.0,0.0,0.0,5.9935,6.6409,6.9182,7.1981,7.258,6.9876,6.6641,6.1967,5.5434,4.7051,0.0,0.0,0.0,0.0,0.0,0.0,0.0,0.0,0.0,0.0,0.0,0.0,0.0,0.0,0.0,0.0,0.0,0.0,0.0,0.0,0.0,0.0,0.0,0.0,0.0,0.0,0.0,0.0,0.0,0.0,0.0,0.0,0.0,0.0,0.0,0.0,0.0,0.0,0.0,0.0,0.0,0.0,0.0,0.0,0.0,0.0,0.0,0.0,0.0,0.0,0.0,0.0,0.0,0.0,0.0,0.0,0.0,0.0,0.0,0.0,0.0,0.0,0.0,0.0,0.0,0.0,0.0,0.0,0.0,0.0,0.0,0.0,0.0,0.0,0.0,0.0,0.0,0.0,0.0,0.0,0.0,0.0,0.0,0.0,0.0,0.0,0.0,0.0,0.0,0.0,0.0,0.0,0.0,0.0,0.0,0.0,0.0,0.0,0.0,0.0,0.0,0.0,6.2891,6.9031,7.1414,7.354,7.3103,6.8954,6.5584,6.0299,5.2338,4.4348,0.0,0.0,0.0,0.0,0.0,0.0,0.0,0.0,0.0,0.0,0.0,0.0,0.0,0.0,0.0,0.0,0.0,0.0,0.0,0.0,0.0,0.0,0.0,0.0,0.0,0.0,0.0,0.0,0.0,0.0,0.0,0.0,0.0,0.0,0.0,0.0,0.0,0.0,0.0,0.0,0.0,0.0,0.0,0.0,0.0,0.0,0.0,0.0,0.0,0.0,0.0,0.0,0.0,0.0,0.0,0.0,0.0,0.0,0.0,0.0,0.0,0.0,0.0,0.0,0.0,0.0,0.0,0.0,0.0,0.0,0.0,0.0,0.0,0.0,0.0,0.0,0.0,0.0,0.0,0.0,0.0,0.0,0.0,0.0,0.0,0.0,0.0,0.0,0.0,0.0,0.0,0.0,0.0,0.0,0.0,0.0,0.0,0.0,0.0,0.0,0.0,0.0,6.5037,7.1218,0.0,7.4634,7.4138,6.9974,6.5827,6.0262,5.2716,0.0,0.0,0.0,0.0,0.0,0.0,0.0,0.0,0.0,0.0,0.0,0.0,0.0,0.0,0.0,0.0,0.0,0.0,0.0,0.0,0.0,0.0,0.0,0.0,0.0,0.0,0.0,0.0,0.0,0.0,0.0,0.0,0.0,0.0,0.0,0.0,0.0,0.0,0.0,0.0,0.0,0.0,0.0,0.0,0.0,0.0,0.0,0.0,0.0,0.0,0.0,0.0,0.0,0.0,0.0,0.0,0.0,0.0,0.0,0.0,0.0,0.0,0.0,0.0,0.0,0.0,0.0,0.0,0.0,0.0,0.0,0.0,0.0,0.0,0.0,0.0,0.0,0.0,0.0,0.0,0.0,0.0,0.0,0.0,0.0,0.0,0.0,0.0,0.0,0.0,0.0,0.0,0.0,0.0,0.0,0.0,0.0,0.0,0.0,0.0,0.0,0.0,5.7467,6.7049,7.339,0.0,7.6265,7.5642,7.1125,6.6721,6.0946,5.332,0.0,0.0,0.0,0.0,0.0,0.0,0.0,0.0,0.0,0.0,0.0,0.0,0.0,0.0,0.0,0.0,0.0,0.0,0.0,0.0,0.0,0.0,0.0,0.0,0.0,0.0,0.0,0.0,0.0,0.0,0.0,0.0,0.0,0.0,0.0,0.0,0.0,0.0,0.0,0.0,0.0,0.0,0.0,0.0,0.0,0.0,0.0,0.0,0.0,0.0,0.0,0.0,0.0,0.0,0.0,0.0,0.0,0.0,0.0,0.0,0.0,0.0,0.0,0.0,0.0,0.0,0.0,0.0,0.0,0.0,0.0,0.0,0.0,0.0,0.0,0.0,0.0,0.0,0.0,0.0,0.0,0.0,0.0,0.0,0.0,0.0,0.0,0.0,0.0,0.0,0.0,0.0,0.0,0.0,0.0,0.0,0.0,0.0,0.0,0.0,0.0,0.0,5.9055,6.9058,7.5609,7.6627,7.8518,7.7562,7.2226,6.8273,6.2383,0.0,0.0,0.0,0.0,0.0,0.0,0.0,0.0,0.0,0.0,0.0,0.0,0.0,0.0,0.0,0.0,0.0,0.0,0.0,0.0,0.0,0.0,0.0,0.0,0.0,0.0,0.0,0.0,0.0,0.0,0.0,0.0,0.0,0.0,0.0,0.0,0.0,0.0,0.0,0.0,0.0,0.0,0.0,0.0,0.0,0.0,0.0,0.0,0.0,0.0,0.0,0.0,0.0,0.0,0.0,0.0,0.0,0.0,0.0,0.0,0.0,0.0,0.0,0.0,0.0,0.0,0.0,0.0,0.0,0.0,0.0,0.0,0.0,0.0,0.0,0.0,0.0,0.0,0.0,0.0,0.0,0.0,0.0,0.0,0.0,0.0,0.0,0.0,0.0,0.0,0.0,0.0,0.0,0.0,0.0,0.0,0.0,0.0,0.0,0.0,0.0,0.0,0.0,6.0893,7.0678,7.7145,7.8124,7.9907,7.9528,7.5767,7.2377,6.6739,5.8018,0.0,0.0,0.0,0.0,0.0,0.0,0.0,0.0,0.0,0.0,0.0,0.0,0.0,0.0,0.0,0.0,0.0,0.0,0.0,0.0,0.0,0.0,0.0,0.0,0.0,0.0,0.0,0.0,0.0,0.0,0.0,0.0,0.0,0.0,0.0,0.0,0.0,0.0,0.0,0.0,0.0,0.0,0.0,0.0,0.0,0.0,0.0,0.0,0.0,0.0,0.0,0.0,0.0,0.0,0.0,0.0,0.0,0.0,0.0,0.0,0.0,0.0,0.0,0.0,0.0,0.0,0.0,0.0,0.0,0.0,0.0,0.0,0.0,0.0,0.0,0.0,0.0,0.0,0.0,0.0,0.0,0.0,0.0,0.0,0.0,0.0,0.0,0.0,0.0,0.0,0.0,0.0,0.0,0.0,0.0,0.0,0.0,0.0,0.0,0.0,0.0,0.0,6.2521,7.2343,7.8746,7.9681,8.1312,8.1181,7.8374,7.5816,7.0647,6.188,0.0,0.0,0.0,0.0,0.0,0.0,0.0,0.0,0.0,0.0,0.0,0.0,0.0,0.0,0.0,0.0,0.0,0.0,0.0,0.0,0.0,0.0,0.0,0.0,0.0,0.0,0.0,0.0,0.0,0.0,0.0,0.0,0.0,0.0,0.0,0.0,0.0,0.0,0.0,0.0,0.0,0.0,0.0,0.0,0.0,0.0,0.0,0.0,0.0,0.0,0.0,0.0,0.0,0.0,0.0,0.0,0.0,0.0,0.0,0.0,0.0,0.0,0.0,0.0,0.0,0.0,0.0,0.0,0.0,0.0,0.0,0.0,0.0,0.0,0.0,0.0,0.0,0.0,0.0,0.0,0.0,0.0,0.0,0.0,0.0,0.0,0.0,0.0,0.0,0.0,0.0,0.0,0.0,0.0,0.0,0.0,0.0,0.0,0.0,0.0,0.0,0.0,6.3959,7.3882,8.0328,8.1113,8.2576,8.2611,8.0435,7.8757,7.4136,6.5397,0.0,0.0,0.0,0.0,0.0,0.0,0.0,0.0,0.0,0.0,0.0,0.0,0.0,0.0,0.0,0.0,0.0,0.0,0.0,0.0,0.0,0.0,0.0,0.0,0.0,0.0,0.0,0.0,0.0,0.0,0.0,0.0,0.0,0.0,0.0,0.0,0.0,0.0,0.0,0.0,0.0,0.0,0.0,0.0,0.0,0.0,0.0,0.0,0.0,0.0,0.0,0.0,0.0,0.0,0.0,0.0,0.0,0.0,0.0,0.0,3.416,0.0,0.0,0.0,0.0,0.0,0.0,0.0,0.0,0.0,0.0,0.0,0.0,0.0,0.0,0.0,0.0,0.0,0.0,0.0,0.0,0.0,0.0,0.0,0.0,0.0,0.0,0.0,0.0,0.0,0.0,0.0,0.0,0.0,0.0,0.0,0.0,0.0,0.0,0.0,0.0,0.0,6.5177,7.4847,8.1113,8.1898,8.3397,8.3896,8.2754,8.122,7.681,6.8616,6.0466,0.0,0.0,0.0,0.0,0.0,0.0,0.0,0.0,0.0,0.0,0.0,0.0,0.0,0.0,0.0,0.0,0.0,0.0,0.0,0.0,0.0,0.0,0.0,0.0,0.0,0.0,0.0,0.0,0.0,0.0,0.0,0.0,0.0,0.0,0.0,0.0,0.0,0.0,0.0,0.0,0.0,0.0,0.0,0.0,0.0,0.0,0.0,0.0,0.0,0.0,0.0,0.0,0.0,0.0,0.0,0.0,0.0,0.0,0.0,0.0,3.7707,0.0,0.0,0.0,0.0,0.0,0.0,0.0,0.0,0.0,0.0,0.0,0.0,0.0,0.0,0.0,0.0,0.0,0.0,0.0,0.0,0.0,0.0,0.0,0.0,0.0,0.0,0.0,0.0,0.0,0.0,0.0,0.0,0.0,0.0,0.0,0.0,0.0,0.0,0.0,0.0,6.619,7.5438,8.1541,8.2647,8.386,8.4289,8.3488,8.229,7.8541,7.1337,6.4242,0.0,0.0,0.0,0.0,0.0,0.0,0.0,0.0,0.0,0.0,0.0,0.0,0.0,0.0,0.0,0.0,0.0,0.0,0.0,0.0,0.0,0.0,0.0,0.0,0.0,0.0,0.0,0.0,0.0,0.0,0.0,0.0,0.0,0.0,0.0,0.0,0.0,0.0,0.0,0.0,0.0,0.0,0.0,0.0,0.0,0.0,0.0,0.0,0.0,0.0,0.0,0.0,0.0,5.1774,5.3646,5.4771,5.6543,5.8012,5.8788,5.1304,4.6693,4.4467,0.0,0.0,0.0,0.0,0.0,0.0,0.0,0.0,0.0,0.0,0.0,0.0,0.0,0.0,0.0,0.0,0.0,0.0,0.0,0.0,0.0,0.0,0.0,0.0,0.0,6.2995,6.2065,0.0,0.0,0.0,0.0,0.0,0.0,0.0,0.0,0.0,0.0,0.0,0.0,6.7338,7.6224,8.2183,8.3468,8.4431,8.4681,8.3916,8.3075,8.0042,7.4011,6.8088,6.1751,0.0,0.0,0.0,0.0,0.0,0.0,0.0,0.0,0.0,0.0,0.0,0.0,0.0,0.0,0.0,0.0,0.0,0.0,0.0,0.0,0.0,0.0,0.0,0.0,0.0,0.0,0.0,0.0,0.0,0.0,0.0,0.0,3.0459,3.0712,0.0,0.0,0.0,0.0,0.0,0.0,0.0,0.0,0.0,0.0,0.0,0.0,0.0,4.7787,5.101,5.3729,5.6014,5.7762,5.9329,6.098,6.2717,6.407,6.547,6.6731,6.6081,0.0,5.4521,5.4032,0.0,0.0,0.0,0.0,0.0,0.0,0.0,0.0,0.0,0.0,0.0,0.0,0.0,0.0,0.0,0.0,0.0,0.0,0.0,0.0,0.0,0.0,6.6864,7.0255,7.2564,7.3529,0.0,6.5419,5.892,5.4949,0.0,0.0,0.0,0.0,0.0,0.0,0.0,0.0,6.9158,7.8365,8.4217,8.4431,8.5752,8.6287,8.5538,8.4753,8.2183,7.7187,7.2905,6.7747,6.1322,5.479,0.0,0.0,0.0,0.0,0.0,0.0,0.0,0.0,0.0,0.0,0.0,0.0,0.0,0.0,0.0,0.0,0.0,0.0,0.0,0.0,0.0,0.0,0.0,0.0,0.0,0.0,0.0,0.0,0.0,3.1291,3.4608,3.4608,3.5124,3.5012,0.0,0.0,0.0,0.0,0.0,0.0,0.0,0.0,0.0,4.8691,5.2904,5.6363,5.8895,6.2303,6.4796,6.64,6.8906,7.0739,7.2023,7.4122,7.5448,7.6059,7.7147,7.4843,6.9836,6.4277,5.9157,5.4477,0.0,0.0,0.0,0.0,5.299,5.5898,5.8872,5.953,0.0,0.0,0.0,0.0,0.0,0.0,0.0,0.0,0.0,0.0,0.0,0.0,0.0,7.5258,7.7329,7.8484,7.796,7.4497,6.9718,0.0,6.0108,5.6284,5.0611,0.0,0.0,0.0,0.0,6.3413,7.0835,7.9293,8.4768,8.5252,8.6251,8.6787,8.6465,8.5716,8.3825,8.0363,7.7294,7.303,6.716,6.2556,5.7453,0.0,0.0,0.0,0.0,0.0,0.0,0.0,0.0,0.0,0.0,0.0,0.0,0.0,0.0,0.0,0.0,0.0,0.0,0.0,0.0,0.0,0.0,0.0,0.0,0.0,0.0,0.0,0.0,3.5574,3.8945,3.9114,3.9816,3.9788,0.0,0.0,0.0,0.0,0.0,0.0,4.7299,4.9828,5.2796,5.6223,6.046,6.3632,6.5783,6.9151,7.1562,7.3032,7.5922,7.7914,7.9158,8.1557,8.2839,8.326,8.4328,8.3875,8.1777,7.3884,6.7937,6.3422,6.0273,5.8805,5.862,5.9733,6.2021,6.5026,6.8005,6.8813,6.8185,6.6051,0.0,5.9062,5.5789,0.0,0.0,0.0,0.0,6.2839,6.7855,7.2691,7.6901,7.9327,8.1106,8.2129,8.1569,8.0989,7.8392,0.0,6.7712,6.4183,5.8062,0.0,0.0,0.0,0.0,6.6482,7.3155,8.0542,8.5502,8.6287,8.7072,8.7429,8.7215,8.6537,8.5145,8.2968,8.0613,7.7294,7.2762,6.9194,6.4448,5.8345,0.0,0.0,0.0,0.0,0.0,0.0,0.0,0.0,0.0,0.0,0.0,0.0,0.0,0.0,0.0,0.0,0.0,0.0,0.0,0.0,0.0,0.0,0.0,0.0,0.0,0.0,0.0,0.0,0.0,4.4823,4.5974,0.0,0.0,0.0,0.0,4.7294,4.9876,5.2514,5.5367,5.7108,6.0019,6.4484,6.6385,6.8704,7.1466,7.2911,7.4466,7.6163,7.7714,7.9679,8.2041,8.3446,8.4879,8.6207,8.6272,8.6239,8.5819,8.1906,7.7769,7.3431,6.9226,6.8417,6.9536,6.9274,7.1362,7.4793,7.756,7.8508,7.8167,7.6194,7.124,6.5613,6.3405,6.2146,0.0,0.0,6.6949,7.0168,7.4215,7.8068,8.1377,8.35,8.5156,8.5973,8.5065,8.4442,8.2199,0.0,7.2598,6.9446,6.5364,0.0,6.013,6.2556,6.6375,7.0961,7.6545,8.2826,8.7108,8.7893,8.8714,8.8892,8.8107,8.7322,8.618,8.4554,8.229,8.0149,7.8348,7.3851,6.9836,6.6462,5.8881,0.0,0.0,0.0,0.0,0.0,0.0,0.0,0.0,0.0,0.0,0.0,0.0,0.0,0.0,0.0,0.0,0.0,0.0,0.0,0.0,0.0,0.0,0.0,0.0,0.0,0.0,0.0,0.0,5.1112,5.2742,0.0,5.1983,5.1694,5.2563,5.4884,5.8292,6.1388,6.3855,6.6572,6.9293,7.1941,7.4326,7.6257,7.7726,7.8569,7.9703,8.1033,8.2234,8.3422,8.4556,8.5728,8.6563,8.7049,8.7567,8.7502,8.692,8.5625,8.2582,7.8406,7.552,7.4588,7.4871,7.5174,7.6943,7.9406,8.1317,8.2109,8.1849,7.9251,7.5868,7.2515,7.0816,6.9822,6.9467,7.0693,7.2448,7.4604,7.735,8.0443,8.3254,8.4717,8.6344,8.7218,8.6053,8.4727,8.2882,7.989,7.8207,7.6146,7.2402,7.0203,6.9248,7.0105,7.2298,7.5296,7.9293,8.3967,8.7215,8.8,8.8821,8.8963,8.8143,8.7358,8.6251,8.4696,8.3325,8.1648,7.9543,7.8365,7.5296,7.0139,6.5732,5.9745,0.0,0.0,0.0,0.0,0.0,0.0,0.0,0.0,0.0,0.0,0.0,0.0,0.0,0.0,0.0,0.0,0.0,0.0,0.0,0.0,0.0,0.0,0.0,0.0,0.0,0.0,5.4035,5.5917,5.78,5.8677,5.7954,5.8141,5.9178,6.1305,6.4557,6.7435,6.9627,7.2044,7.4328,7.6441,7.8292,7.9914,8.1374,8.1987,8.291,8.4175,8.4999,8.5797,8.6583,8.7404,8.7923,8.8182,8.8668,8.8603,8.8117,8.7891,8.6173,8.3445,8.1044,8.012,8.0218,8.0648,8.1976,8.3771,8.505,8.5457,8.5136,8.3153,8.1393,7.9802,7.8604,7.7908,7.755,7.7808,7.8544,7.964,8.1197,8.3483,8.56,8.6538,8.8053,8.8835,8.7182,8.5287,8.3543,8.2413,8.1309,7.9662,7.6898,7.596,7.5581,7.5581,7.6723,7.8722,8.1898,8.5002,8.7322,8.8392,8.8999,8.8963,8.8143,8.7143,8.5966,8.4661,8.3111,8.1755,8.072,8.0207,7.7888,7.3422,6.8262,6.1552,5.3241,0.0,0.0,0.0,0.0,0.0,0.0,0.0,0.0,0.0,0.0,0.0,0.0,0.0,0.0,0.0,0.0,0.0,0.0,0.0,0.0,0.0,0.0,0.0,4.6139,5.2349,5.7292,5.9205,6.1088,6.2375,6.277,6.2835,6.3928,6.6487,6.8426,7.038,7.2365,7.3037,7.4739,7.7818,7.7949,7.9336,8.2182,8.2898,8.3991,8.5427,8.5765,8.668,8.8048,8.8408,8.8927,8.9608,8.9608,8.9608,8.951,8.8797,8.8733,8.873,8.5897,8.5245,8.5892,8.5812,8.6711,8.809,8.9056,8.8945,8.8349,8.8316,8.7885,8.7219,8.6424,8.6159,8.596,8.5169,8.4937,8.5048,8.5709,8.7096,8.8482,8.914,9.0482,9.0962,8.8607,8.6251,8.436,8.3539,8.1585,7.9735,7.8745,7.8785,7.8919,7.8919,7.9543,0.0,8.4268,8.6002,8.7536,8.912,8.9299,8.8963,8.8107,8.668,8.5431,8.4554,8.1628,8.0577,8.204,7.9324,7.7395,7.6535,6.6301,5.7916,5.169,0.0,0.0,0.0,0.0,0.0,0.0,0.0,0.0,0.0,0.0,0.0,0.0,0.0,0.0,0.0,0.0,0.0,0.0,0.0,0.0,0.0,4.4211,4.8946,5.0689,5.6816,6.179,6.3673,6.6198,6.765,6.7267,6.8164,6.9171,7.0205,7.2591,7.4027,7.4055,7.5633,7.7026,7.8156,7.9466,8.1526,8.4379,8.6143,8.7493,8.8399,8.8499,8.8761,8.9152,8.925,8.9413,8.9608,8.9608,8.9608,8.9543,8.909,8.8895,8.8861,8.7558,8.7416,8.8046,8.8033,8.8445,8.9022,8.9282,8.9246,8.9012,8.8482,8.8548,8.8382,8.6097,8.5037,8.4299,8.2643,8.1403,8.1082,8.3137,8.4967,8.6745,8.8573,9.0349,9.0962,8.8607,8.6251,8.436,8.3539,8.2435,8.1871,8.276,8.3427,8.386,8.386,8.3539,0.0,8.6002,8.6644,8.7536,8.912,8.9299,8.8728,8.7358,8.6358,8.4967,8.2968,8.1006,7.9886,7.9878,7.8781,7.6904,7.4208,6.8531,6.3165,0.0,0.0,0.0,0.0,0.0,0.0,0.0,0.0,0.0,0.0,0.0,0.0,0.0,0.0,0.0,0.0,0.0,0.0,0.0,0.0,0.0,0.0,5.0266,5.5278,5.7566,6.1507,6.5005,6.7299,6.9536,7.0958,7.1159,7.2135,7.3155,7.4002,7.6245,7.7312,7.6796,7.7841,7.8841,7.965,8.0539,8.2517,8.5721,8.7567,8.8862,8.9608,8.9608,8.9608,8.9608,8.9608,8.9608,0.0,8.9608,8.9673,8.9805,8.9578,8.964,0.0,0.0,0.0,0.0,0.0,8.9689,8.9875,9.0204,9.0138,8.9842,8.9707,8.9774,8.9379,8.6792,8.507,8.3536,8.1264,7.9527,7.8991,8.1698,8.4383,8.6927,8.9049,9.136,9.2389,8.9677,8.7251,8.5431,8.4967,0.0,0.0,8.5752,8.618,8.6251,8.6251,8.5859,8.6002,8.7251,8.7393,8.7893,8.9156,8.9299,8.8656,8.7036,8.6216,0.0,0.0,0.0,7.9734,7.934,7.8853,0.0,0.0,0.0,0.0,0.0,0.0,0.0,0.0,5.8258,6.0582,0.0,0.0,0.0,0.0,0.0,0.0,0.0,0.0,0.0,0.0,0.0,0.0,0.0,0.0,0.0,0.0,5.6276,6.1543,6.5176,6.6404,6.7891,7.0384,7.1937,7.3339,7.4609,7.5304,7.6266,7.7763,7.9446,8.0227,7.9852,0.0,0.0,0.0,0.0,8.2905,8.6369,8.7891,8.8959,8.9608,8.9608,8.9608,8.9608,8.9608,8.9608,8.9608,8.9641,8.9837,9.0131,9.0163,9.0583,9.1024,8.9705,8.9178,8.9308,9.028,9.0604,9.0734,9.1364,0.0,0.0,9.1297,9.1099,9.0204,8.7912,8.5724,8.3494,8.0928,7.8999,7.8422,8.1356,8.4882,8.8194,9.0188,9.2954,9.4388,9.139,8.8928,8.7286,8.7179,8.6073,8.5823,8.8,8.7643,8.7036,8.7036,8.6965,8.7179,8.8,8.8107,8.8392,8.9192,0.0,0.0,8.7179,8.6358,8.4931,8.2611,8.0973,8.0052,7.9877,7.9577,7.9344,7.9274,7.6765,7.4714,7.3138,7.3602,7.3794,7.3645,7.014,6.9831,0.0,0.0,0.0,0.0,0.0,0.0,0.0,0.0,0.0,0.0,0.0,0.0,0.0,0.0,0.0,5.3859,5.8897,6.3852,6.8482,7.1688,7.355,7.3512,7.5627,7.7354,7.7935,7.8612,7.9567,8.0764,8.1992,8.2254,8.1253,8.1429,8.1722,8.1973,8.2517,8.394,8.6401,8.8376,8.9445,8.9608,0.0,0.0,8.9608,8.9608,8.9608,8.9608,8.9903,9.0066,9.0131,9.0679,9.1156,9.1469,9.1202,9.1103,9.1103,9.1331,9.1364,9.1397,9.1561,9.1496,9.1297,9.0867,9.1032,9.0829,8.7685,8.5615,0.0,8.1862,7.9948,7.9303,8.2708,8.5879,8.8822,9.1442,9.3671,9.4673,9.2782,9.0997,8.9606,8.8942,8.8585,8.8728,8.9856,8.8821,8.7857,8.7857,8.7322,8.7179,8.8,8.8107,8.8392,8.9192,8.9299,8.8928,8.7929,8.7143,8.5966,8.4253,8.2392,8.1037,8.0293,8.1742,8.2769,8.3276,8.3373,8.2921,8.1955,8.3314,8.3626,8.2898,7.8327,7.751,0.0,0.0,0.0,0.0,0.0,0.0,0.0,0.0,0.0,0.0,0.0,4.4969,4.8163,0.0,5.4813,5.8441,6.2735,6.7058,7.1211,7.5538,7.7894,7.7011,7.8235,7.9414,8.013,8.1018,8.1935,8.2884,8.4283,8.4689,8.3739,8.4051,8.4264,8.4264,8.462,8.5656,8.7437,8.8862,8.9608,8.9608,8.9608,8.9802,9.0093,9.0093,9.0387,9.091,9.1075,9.1371,9.1729,9.2244,9.2331,9.219,9.2556,9.2225,9.1627,9.1627,9.1828,9.2093,9.1759,9.1859,9.2026,9.1297,9.1297,9.1094,8.8505,8.6707,8.5248,8.3491,8.2033,8.1699,8.4801,8.7747,9.0502,9.272,9.4854,9.6029,9.4816,9.3959,9.3174,9.2402,9.1925,9.164,9.164,9.0641,8.9856,8.9856,8.9499,8.9392,8.9784,8.9856,8.9998,9.0427,9.0462,8.9998,8.8821,8.7251,8.6043,8.5381,8.4339,8.37,8.356,8.519,8.6147,8.6264,8.7452,8.7638,8.6858,8.8455,8.905,8.8604,8.7007,8.6279,0.0,0.0,0.0,0.0,0.0,0.0,0.0,3.9795,4.1166,4.4363,4.833,5.1995,5.4536,5.7258,6.0096,6.2994,6.6493,7.0095,7.378,7.8322,8.0951,8.0023,8.0443,8.1279,8.2424,8.3393,8.4271,8.5158,8.6574,8.7165,8.6566,8.6856,8.7016,8.7016,8.7016,8.7567,8.87,8.9283,8.9608,8.9608,8.9608,8.9931,9.0611,9.0678,9.1267,9.2217,9.2349,9.2811,9.3396,9.3686,9.3451,9.2954,9.355,9.3053,9.2058,9.2058,9.2391,9.2821,9.2225,9.2291,9.2621,9.2087,9.182,9.1415,8.9836,8.8542,8.7341,8.602,8.5213,8.5252,8.7638,9.0227,9.2675,9.4102,9.5993,9.7314,9.6671,9.6422,9.61,9.5351,9.4673,9.3982,9.3174,9.2496,9.1961,9.164,9.1604,9.1604,9.1604,9.1604,9.1604,9.1604,9.1604,9.1105,8.9834,8.8078,8.7118,8.7372,8.7161,8.7301,8.7956,8.9104,8.9654,8.9533,9.0945,9.1465,9.0982,9.2096,9.2653,9.2691,9.4028,9.3508,2.9026,3.2621,3.8209,4.0823,4.4368,4.7207,0.0,4.757,4.8887,5.1875,5.4926,5.7671,5.9615,6.1412,6.3516,6.6471,6.8875,7.1936,7.6495,7.9981,8.1912,8.1409,8.2746,8.444,8.6143,8.6661,8.7502,8.8859,8.9183,8.9249,8.9186,8.9218,8.9218,8.9218,8.9218,8.9316,8.9478,8.9575,8.9608,8.9608,8.9608,8.9931,9.0612,9.0943,9.1532,9.2217,9.2909,9.3396,9.375,9.3782,9.3749,9.3683,9.3749,9.3683,9.355,9.355,9.3616,9.3649,9.3583,9.3153,9.2752,9.2935,9.2594,9.1975,9.1522,9.0995,9.0481,9.0228,8.9948,9.0046,9.1534,9.3326,9.503,9.5851,9.6778,9.7492,9.7385,9.6814,9.61,9.5351,9.5137,9.4816,9.4018,9.3804,9.3246,9.1818,9.1604,9.1604,9.1604,9.1604,9.1604,9.1604,9.1604,9.1533,9.1354,9.1338,9.1484,9.1913,9.1603,9.1774,9.2516,9.2876,9.3541,9.4585,9.5477,9.6257,9.6926,9.6331,9.6071,9.6071,9.6257,9.5811,3.5213,3.8716,4.3777,4.7178,5.1607,5.5053,5.4813,5.5596,5.6982,5.9054,6.1968,6.4335,6.4895,6.5787,6.7073,0.0,7.1096,7.3815,7.7368,8.0713,8.2493,8.1691,8.094,8.1348,8.3604,8.4885,8.6174,8.7632,8.8895,8.9608,8.9608,8.9608,8.9608,8.9608,8.9608,8.9608,8.9608,8.9608,8.9608,8.9608,8.9608,9.029,9.1528,9.1693,9.2611,9.409,9.465,9.4713,9.4478,9.4908,9.4842,9.4478,9.4908,9.5074,9.4975,9.4113,9.408,9.4378,9.3948,9.3881,9.3978,9.3896,9.3995,9.423,9.4476,9.5143,9.5879,9.6017,9.6335,9.6754,9.7302,9.8027,9.8563,9.842,9.8991,9.9276,9.8384,9.8313,9.8027,9.6778,9.6529,9.6279,9.5458,9.5351,9.5101,9.4459,9.3567,9.2996,9.2996,9.2996,9.2996,9.2996,9.2568,9.2349,9.2518,9.2403,9.2541,9.3033,9.3326,9.3694,9.4149,9.5479,9.6254,9.6277,9.8128,9.9036,9.8887,9.9036,9.9111,9.9111,9.9111,9.9409,4.0086,4.3864,4.8618,5.2643,5.7457,6.1203,6.1204,6.2004,6.3131,6.4511,6.6577,6.8213,6.8358,6.8589,6.9305,7.0958,7.3276,7.5768,7.8433,8.16,8.3064,8.145,7.9233,7.8448,8.0115,8.1943,8.3875,8.5948,8.8085,8.938,8.9608,8.9608,8.9608,8.9608,8.9608,8.9608,8.9608,8.9608,8.9608,8.9608,8.9673,9.0618,9.2249,9.2807,9.3991,9.5607,9.587,9.5703,9.524,9.577,9.5703,9.5273,9.5803,9.6001,9.5869,9.4809,9.4743,9.514,9.4706,9.4771,9.5067,9.5103,9.5473,9.6113,9.699,9.8284,9.9525,9.9898,10.0493,10.1025,10.1025,10.1025,10.0918,10.0287,10.0597,10.0572,9.9312,9.9491,9.9419,9.7813,9.7492,9.7242,9.6457,9.6315,9.6315,9.6315,9.5351,9.4625,9.4625,9.4625,9.4625,9.4625,9.4171,9.403,9.4319,9.42,9.4472,9.5257,9.5714,9.6141,9.6634,9.8018,9.8646,9.8324,10.03,10.1185,10.1102,10.1513,10.1812,10.2074,10.1812,10.2299,4.2003,4.7393,5.2895,5.6689,6.1225,6.4918,6.5537,6.579,6.6232,6.7515,6.738,6.7507,6.9089,6.8829,6.9495,7.2763,7.5381,7.7831,8.0172,8.297,8.3701,8.0869,7.8943,7.7593,0.0,7.8856,8.1573,8.5041,8.7308,8.883,8.9542,8.9608,8.9608,8.9608,8.9608,8.9608,8.9608,8.9608,8.9608,8.9608,8.9936,9.0815,9.2282,9.4353,9.5541,9.5969,9.6001,9.6001,9.5968,9.6001,9.6001,9.5968,9.6001,9.6001,9.6001,9.5968,9.5968,9.6001,9.6292,9.5955,9.5578,9.6815,9.6903,9.6874,9.8373,9.9271,9.9907,10.0407,10.0828,10.1025,10.1025,10.1025,10.1025,10.1025,10.1025,10.0811,10.0002,9.9883,9.9419,9.7813,9.7492,9.7242,9.6457,9.6315,9.6315,9.6315,9.6279,9.6243,9.6243,9.6243,9.6243,9.6243,9.644,9.6783,9.7216,9.7672,9.8614,10.0301,9.9831,10.0075,10.1199,10.0781,10.0897,10.1814,10.2112,10.3118,10.4783,10.4086,10.4086,10.5004,10.4103,10.3706,4.67,5.1949,5.6855,6.0799,6.5042,6.8274,6.8489,6.9295,6.9697,6.8768,6.8037,6.7822,6.8528,6.9062,7.0495,7.384,7.7412,8.029,8.1784,8.3376,8.3496,8.1137,7.8639,0.0,0.0,0.0,0.0,8.2191,8.4879,8.6887,8.8085,8.9057,8.9608,8.9608,8.9608,8.9608,8.9608,8.9608,8.9801,9.0255,9.1826,9.2941,9.3697,9.5145,9.587,9.6001,9.6001,9.6001,9.6001,9.6001,9.6001,9.6001,9.6001,9.6001,9.6001,9.6001,9.6001,9.6034,9.6391,9.6702,9.7156,9.8077,9.9049,9.9994,10.0682,10.1494,10.2208,10.2384,10.251,10.2595,10.2595,10.2595,10.2488,10.1917,10.2203,10.2203,10.0918,10.1001,10.1096,10.0026,9.9812,9.974,9.9491,9.9419,9.9419,9.9419,9.7635,9.6315,9.6315,9.6454,9.6639,9.6799,9.7147,9.7615,9.8209,9.8763,9.944,10.0296,10.0399,10.0701,10.1083,10.1495,10.2203,10.321,10.3899,10.4903,10.6208,10.5906,10.5718,10.5417,10.568,10.5793,5.1366,5.6539,6.1132,6.4429,6.7781,7.0336,7.0582,7.1136,7.0952,6.8643,6.6673,6.5553,6.6189,6.6975,6.8952,7.3246,7.7898,8.1361,8.2541,8.3786,8.3907,8.1999,7.973,7.7463,0.0,0.0,0.0,7.928,8.2159,8.4847,8.7243,8.9024,8.9931,8.9931,8.9931,8.9834,8.9608,8.9608,9.0063,9.1009,9.2907,9.4091,9.4616,9.5572,9.6001,9.6001,9.6001,9.6001,9.6001,9.6001,9.6001,9.6001,9.6001,9.6001,9.6001,9.6001,9.6001,9.6067,9.652,9.7247,9.814,9.9077,10.0403,10.1786,10.2219,10.2801,10.3405,10.3405,10.3405,10.3405,10.3405,10.3405,10.3298,10.2799,10.2988,10.2988,10.1703,10.181,10.1989,10.1203,10.1025,10.1025,10.1025,10.1025,10.1025,10.1025,9.9099,9.7658,9.7599,9.7619,9.7938,9.8603,9.9128,9.9853,10.1004,10.1481,10.1903,10.2403,10.2718,10.2686,10.2407,10.2985,10.369,10.4392,10.5115,10.6116,10.7403,10.7101,10.6987,10.7101,10.7592,10.8023,5.5862,6.1097,6.5688,6.766,6.9628,7.1229,7.1906,7.1444,7.012,6.726,6.341,6.0913,6.216,6.2744,6.5063,7.1171,7.6878,8.1057,8.2508,8.4207,8.4782,0.0,0.0,0.0,0.0,0.0,0.0,7.6848,0.0,8.2841,8.7049,8.9348,9.0546,9.0546,9.0546,9.0222,8.9608,8.9672,9.0424,9.1795,9.3204,9.4256,9.4975,9.567,9.6001,9.6001,9.6001,9.6001,9.6001,9.6001,9.6001,9.6001,9.6001,9.6001,9.6001,9.6001,9.6034,9.6132,9.6809,9.7623,9.8591,9.9901,10.1079,10.2193,10.2811,10.3204,10.3405,10.3405,10.3405,10.3405,10.3405,10.3405,10.3405,10.3405,10.3405,10.3227,10.2417,10.231,10.1989,10.1311,10.1072,10.1072,10.1072,10.1072,10.1096,10.1096,10.0697,10.0172,9.9991,9.9669,10.0003,10.1408,10.2218,10.3281,10.5187,10.5494,10.5776,10.6297,10.6314,10.6013,10.5095,10.5295,10.5492,10.5686,10.5891,10.6798,10.8703,10.7779,10.8196,10.9802,10.9787,11.0295,6.0732,6.5626,6.9751,7.129,7.246,7.3137,7.2829,7.1783,6.9566,6.4826,6.0183,5.7215,5.7954,5.9034,6.214,6.9223,7.5874,8.0839,8.2781,8.4362,8.4944,8.4037,8.3616,8.2353,7.9727,7.7949,0.0,0.0,8.0313,8.242,8.5656,8.8376,8.9834,8.9834,8.9834,8.9769,8.9608,9.0877,9.1859,9.2548,9.419,9.5244,9.5736,9.5902,9.6001,9.6001,9.6001,9.6001,9.6001,9.6001,9.6001,9.6001,9.6001,9.6001,9.6034,9.6262,9.6359,9.652,9.7656,9.8629,9.9478,10.0289,10.1713,10.3102,10.3193,10.3294,10.3405,10.3405,10.3405,10.3405,10.3405,10.3405,10.3405,10.3405,10.3405,10.3309,10.3095,10.3095,10.2988,10.2809,10.2809,10.2809,10.2809,10.2809,10.2884,10.3082,10.261,10.182,10.06,10.0399,10.0895,10.2391,10.3217,10.4315,10.5804,10.621,10.6391,10.6692,10.6692,10.6579,10.639,10.64,10.6795,10.7607,10.76,10.8312,10.9499,10.931,10.9423,10.9802,11.0485,11.0902,6.4826,6.8858,7.206,7.3168,7.3722,7.3568,7.1998,7.012,6.7073,6.1348,5.5899,5.2493,5.3645,5.5437,5.932,6.7017,7.4628,8.0051,8.1606,8.3001,8.3746,8.3325,8.3292,8.2774,8.1541,8.0345,8.028,0.0,8.1349,8.2517,8.6045,8.8636,9.0028,9.0028,9.032,9.0452,9.0259,9.153,9.2481,9.304,9.4651,9.5607,9.6001,9.6001,9.6001,9.6001,0.0,9.6001,9.6001,9.6001,9.6001,9.6001,9.6001,9.6001,9.6034,9.6359,9.6976,9.7718,9.8744,10.0177,10.1498,10.1178,10.2114,10.3405,10.3405,10.3405,10.3405,10.3405,10.3405,10.3405,10.3405,10.3405,10.3405,10.3405,10.3405,10.3405,10.3405,10.3405,10.3405,10.3405,10.3405,10.3405,10.3405,10.348,10.369,10.3925,10.3698,10.3412,10.2709,10.2405,10.2794,10.4504,10.5311,10.6201,10.7703,10.7906,10.8188,10.8697,10.8697,10.8697,10.8697,10.8697,10.9007,10.9515,10.9515,11.0015,11.0902,11.0522,11.0598,11.0902,11.1394,11.1811,6.8304,7.1321,7.3506,7.3999,7.4061,7.3199,7.0182,6.7196,6.3318,5.7124,5.1027,4.739,4.9344,5.2102,5.6718,6.4799,7.3079,7.8758,7.9597,8.0766,8.1608,8.1802,8.1835,8.2223,8.3227,8.3001,8.3357,8.4685,8.3065,8.3585,8.7211,8.9348,9.0514,9.0611,9.1261,9.1493,9.1239,9.2055,9.281,9.3464,9.4815,9.5673,9.6001,9.6001,9.6001,9.6001,0.0,0.0,9.6001,9.6001,9.6001,9.6001,9.6001,9.6001,9.6034,9.6523,9.7724,9.9198,10.0004,10.1902,10.3689,10.2292,10.258,10.3487,10.338,10.3512,10.362,10.362,10.3594,10.3701,10.3701,10.3701,10.3701,10.3701,10.3701,10.3701,10.3701,10.3594,10.362,10.362,10.3512,10.3405,10.3395,10.3715,10.3974,10.4288,10.4495,10.4896,10.5586,10.4891,10.4984,10.691,10.7503,10.8305,10.9682,10.9802,11.0219,11.1015,11.1091,11.1091,11.1281,11.1281,11.1281,11.1281,11.1281,11.1584,11.2304,11.1584,11.1697,11.2493,11.2493,11.2986,7.1105,7.3414,7.5384,7.4953,7.4399,7.2829,6.8427,6.4026,5.8947,5.232,4.6511,4.3346,4.5665,4.926,5.4517,6.2611,7.0885,7.6718,7.8014,7.8402,7.9017,8.0245,8.0375,8.1347,8.3778,8.5527,0.0,0.0,8.7405,8.7275,8.7373,8.8895,9.0028,9.0579,9.104,9.1531,9.1988,9.3335,9.4091,9.4222,9.5342,9.5936,9.6001,9.6001,9.6001,9.6001,9.6001,0.0,9.6001,9.6001,9.6001,9.6001,9.6001,9.6001,9.6133,9.7348,9.8509,9.9669,10.1494,10.3083,10.4193,10.3187,10.3587,10.4308,10.3594,10.388,10.4415,10.4415,10.4782,10.5307,10.5307,10.5307,10.5307,10.5307,10.5307,10.5307,10.5307,10.4808,10.4415,10.4415,10.388,10.3516,10.3679,10.3889,10.4407,10.5391,10.5913,10.6612,10.7898,10.652,10.5993,10.7411,10.788,10.8576,10.9697,10.9802,11.0219,11.1015,11.1091,11.1394,11.2114,11.2114,11.2114,11.2114,11.2114,11.219,11.2304,11.219,11.2493,11.3403,11.3403,11.4215,7.2645,7.4491,7.5692,7.4307,7.2891,7.0336,6.4518,5.8978,5.3345,4.725,4.1955,3.9164,4.1568,4.5313,5.0542,5.8283,6.6433,7.2314,7.3771,7.4581,7.5714,7.756,7.8078,7.9859,8.381,8.6142,8.7858,8.8992,8.8733,8.8668,8.9057,9.0093,9.11,9.1982,9.1824,9.2252,9.3335,9.4058,9.4485,9.4681,9.5572,9.6001,9.6001,9.6001,9.6001,9.6001,9.6001,0.0,9.6001,9.6001,9.6001,9.6001,9.6001,9.6233,9.6697,9.7746,9.9491,10.1583,10.3016,10.4717,10.6192,10.5411,10.4901,10.4594,10.4594,10.4594,10.4701,10.5093,10.5389,10.5674,10.5674,10.5674,10.5674,10.5674,10.5674,10.5674,10.5674,10.5103,10.4594,10.4594,10.4113,10.3594,10.3814,10.418,10.4779,10.5799,10.6608,10.7496,10.8722,10.8196,10.8194,10.9306,10.959,11.0091,11.1,11.1091,11.1508,11.2304,11.238,11.2797,11.3593,11.3593,11.3593,11.3593,11.3593,11.3782,11.4275,11.4275,11.4692,11.5488,11.5488,11.5996,7.3691,7.5076,7.5476,7.3322,7.089,6.7227,6.0301,5.3652,4.7496,4.2355,3.7738,3.5349,3.7795,4.1413,4.6456,5.3699,6.1593,6.7392,6.9043,7.0468,7.2282,7.4715,7.5779,7.8337,8.3486,8.6336,0.0,8.9478,8.9316,8.9607,9.0546,9.1392,9.2273,9.3258,9.2904,9.3269,9.4585,9.4716,9.488,9.514,9.5736,9.6001,9.6001,9.6001,9.6001,9.6001,9.6001,0.0,0.0,9.6001,9.6001,9.6001,9.6001,9.6366,9.6962,9.7947,10.0309,10.2998,10.4101,10.5986,10.7984,10.7377,10.6199,10.52,10.5593,10.5389,10.52,10.5807,10.6092,10.6199,10.6199,10.6322,10.6277,10.6389,10.6415,10.6415,10.6415,10.5807,10.5307,10.5307,10.4803,10.4306,10.4201,10.4911,10.5803,10.6523,10.7519,10.8502,10.9603,10.9995,11.0613,11.1493,11.1318,11.1394,11.219,11.2304,11.2683,11.3479,11.3593,11.4025,11.4805,11.4805,11.4805,11.4805,11.4995,11.5374,11.611,11.6299,11.6716,11.7323,11.7323,11.7323,7.4522,7.5446,7.5384,7.2768,6.9135,6.4334,5.686,4.9045,4.214,3.7923,3.4244,3.2506,3.4923,3.8525,4.3332,5.0108,5.7495,6.3117,6.5198,6.6776,6.8946,7.2379,7.3966,7.7042,8.2742,8.6984,8.9445,8.9608,9.0742,9.1162,9.0611,9.1593,9.2508,9.3292,9.3893,9.4552,9.531,9.5672,9.5869,9.5902,9.5968,9.6001,9.6001,9.6001,9.6001,9.6001,9.6001,0.0,0.0,9.6001,9.6001,9.6001,9.6001,9.6035,9.6332,9.8348,10.038,10.2406,10.4483,10.6514,10.8117,10.7984,10.7413,10.6592,10.5914,10.6199,10.6699,10.6806,10.7306,10.7877,10.7877,10.8121,10.8317,10.85,10.8587,10.8587,10.8587,10.7976,10.7401,10.7401,10.6779,10.6123,10.5585,10.659,10.7723,10.8279,10.9398,11.071,11.18,11.1993,11.2402,11.3289,11.2001,11.1394,11.219,11.2304,11.2683,11.3479,11.3593,11.4025,11.4805,11.4805,11.4805,11.4805,11.5617,11.5996,11.611,11.6792,11.7209,11.7323,11.7323,11.7323,7.3076,7.4861,7.5076,7.1136,6.6765,6.1255,5.2975,4.5095,3.8493,3.4903,3.2444,3.1406,3.2971,3.6023,4.0051,4.5396,5.1397,5.6608,6.004,6.2502,6.5416,6.9432,7.118,7.416,7.9438,8.3843,8.7243,8.9446,9.1103,9.1886,9.1593,9.2833,9.3851,9.4549,9.4453,9.465,9.5078,9.5274,9.5339,9.5339,9.5803,9.6001,9.6001,9.6001,9.6001,9.6001,9.6001,0.0,0.0,9.6001,9.6001,9.6001,9.6001,9.6266,9.6862,9.8548,10.0685,10.2894,10.4692,10.6514,10.8091,10.8091,10.8007,10.7799,10.7286,10.702,10.6984,10.7484,10.7903,10.8107,10.83,10.8496,10.8788,10.8914,10.8878,10.8878,10.8878,10.8303,10.7692,10.7692,10.7315,10.6907,10.6678,10.7672,10.8813,10.9484,11.031,11.1304,11.2196,11.2304,11.2607,11.3479,11.2986,11.291,11.3706,11.3782,11.4009,11.4313,11.4313,11.4692,11.5488,11.5617,11.5791,11.6299,11.6587,11.7095,11.761,11.7913,11.8103,11.8103,11.8103,11.8103,7.0736,7.3691,7.4522,6.9536,6.458,5.8701,5.0266,4.2435,3.6153,3.3489,3.1871,3.1195,3.1992,3.417,3.7203,4.1403,4.5962,5.057,5.5073,5.8507,6.1983,6.5837,6.7974,7.1019,7.5779,8.1058,8.572,8.948,9.1269,9.2283,9.2515,9.392,9.4907,9.5375,9.4848,9.4681,9.4908,9.4908,9.4908,9.4908,9.567,9.6001,9.6001,9.6001,9.6001,9.6001,0.0,0.0,0.0,9.6001,9.6001,9.6001,9.6132,9.6497,9.7126,9.8703,10.0827,10.3111,10.4716,10.6512,10.8117,10.8195,10.829,10.8481,10.8378,10.7922,10.76,10.8209,10.8316,10.8403,10.8722,10.8889,10.9029,10.9104,10.9093,10.9093,10.9093,10.8696,10.83,10.83,10.8196,10.8083,10.7989,10.9086,11.0097,11.0722,11.1477,11.2315,11.2909,11.2986,11.3289,11.3896,11.4025,11.4199,11.4805,11.4805,11.4805,11.4805,11.4995,11.5503,11.611,11.6299,11.6716,11.7323,11.7588,11.7989,11.8596,11.8807,11.9013,11.9013,11.9202,11.9375,6.7627,7.1906,7.3722,6.8304,6.2825,5.6878,4.9343,4.134,3.5182,3.392,3.2648,3.1899,3.224,3.308,3.4931,3.8631,4.1797,4.5532,5.057,5.4944,5.8702,6.153,6.4412,6.7845,7.2152,7.9633,8.5846,8.9805,9.1401,0.0,9.3235,9.4618,9.5375,9.5408,9.5077,9.4908,9.4908,9.4908,9.4908,9.4908,9.567,9.6001,9.6001,9.6001,9.6001,0.0,0.0,0.0,0.0,9.6001,9.6001,9.6034,9.6359,9.6488,9.6749,9.8747,10.0807,10.2798,10.4492,10.6418,10.8107,10.8403,10.8507,10.8496,10.8802,10.8914,10.8914,10.8914,10.8914,10.9026,10.9178,10.9289,10.9424,10.9596,10.9704,10.9704,10.9704,10.9704,10.9704,10.9704,10.9897,10.9994,10.9805,11.0781,11.1789,11.2188,11.3181,11.4108,11.4705,11.4805,11.4805,11.4805,11.4805,11.4805,11.4805,11.4805,11.4805,11.4805,11.5601,11.611,11.611,11.6906,11.7323,11.7323,11.8103,11.8596,11.8596,11.9392,11.9809,11.9809,12.0604,12.14,6.0799,6.498,6.6888,6.1928,5.7623,5.2667,4.5187,3.9017,3.4347,3.2728,3.2185,3.2099,3.2393,3.3189,3.4523,3.6681,3.9116,4.2699,4.822,5.3972,5.9026,6.2858,6.8395,7.3221,7.6556,8.1317,8.5846,8.9805,9.1175,9.2286,9.3267,9.3923,9.4779,9.5771,9.4711,9.4146,9.4146,9.3649,9.3384,9.3418,9.4643,9.524,9.5273,9.577,9.6001,0.0,0.0,0.0,0.0,9.6001,9.6001,9.6034,9.6359,9.687,9.7597,9.9237,10.1478,10.3888,10.5207,10.7009,10.8686,10.869,10.8914,10.9101,10.9104,10.8993,10.8878,10.8878,10.9004,10.9214,10.9289,10.94,10.9607,10.9704,10.9789,11.0005,11.0005,11.0111,11.0192,11.0192,11.0691,11.1096,11.1119,11.2112,11.3001,11.3316,11.3886,11.4411,11.4812,11.4805,11.4805,11.4805,11.4805,11.4805,11.4805,11.4805,11.5124,11.5693,11.592,11.6587,11.78,11.8103,11.8406,11.9013,11.9316,11.9375,11.9375,11.9695,11.9809,11.9809,12.0588,12.1081,5.33,5.7882,6.0116,5.6108,5.2729,4.8789,4.2584,3.7724,3.4146,3.2862,3.2572,3.2619,3.2902,3.352,3.4362,3.5504,3.7122,4.0401,4.6698,5.313,5.9781,6.6776,7.199,7.6265,7.9406,8.2677,8.6201,9.0,9.1174,9.2219,9.3428,9.3686,9.4345,9.5538,9.4146,9.3384,9.3384,9.2921,9.2689,9.2722,9.4179,9.4908,9.4941,9.567,9.6001,0.0,0.0,0.0,0.0,9.6001,9.6001,9.6067,9.6649,9.731,9.8174,9.9857,10.2189,10.4596,10.5606,10.7309,10.8903,10.9004,10.9203,10.9497,10.9497,10.9302,10.9178,10.9178,10.9302,10.9497,10.9497,10.9583,10.9704,10.9704,10.9897,11.0194,11.0402,11.0581,11.0793,11.1118,11.1499,11.2017,11.2289,11.3094,11.3712,11.4179,11.4519,11.4695,11.4805,11.4805,11.4881,11.5314,11.5314,11.5374,11.5677,11.5503,11.5488,11.611,11.6701,11.7496,11.8596,11.8899,11.9316,11.9809,11.9809,11.9809,11.9809,12.0095,12.0415,12.0794,12.159,12.2121,0.0,5.0515,5.3353,5.0636,4.805,4.5126,4.1076,3.7123,0.0,3.3827,3.3442,3.3229,3.3578,3.386,3.4295,3.515,3.5979,3.9023,4.6132,5.3142,6.166,7.2762,7.5326,7.7532,8.0898,8.3809,8.6912,9.0354,9.1237,9.2282,9.3651,9.3649,9.3981,9.471,9.3351,9.2623,9.2689,9.2623,9.2623,9.2623,9.4047,9.4743,9.4776,9.5571,9.5935,0.0,0.0,0.0,0.0,9.6001,9.6001,9.6099,9.7127,9.787,9.8651,10.0585,10.2903,10.5083,10.5904,10.7398,10.8979,10.9203,10.951,10.9704,10.9704,10.9704,10.9704,10.9704,10.9704,10.9704,10.9704,10.9692,10.9692,10.9692,11.0005,11.0392,11.089,11.13,11.1684,11.2189,11.2486,11.2907,11.3402,11.3817,11.4108,11.4705,11.4805,11.4805,11.4805,11.4897,11.5184,11.5996,11.6186,11.6489,11.7209,11.6603,11.6224,11.6299,11.7686,11.8579,11.8709,11.9392,11.9809,11.9809,11.9809,11.9809,11.9809,12.0718,12.1514,12.231,12.3182,12.4016,3.4651,0.0,4.6326,4.3568,4.2399,4.1014,0.0,3.4706,3.2773,3.2364,3.1966,3.1943,3.2773,3.3163,3.3951,3.5752,3.7566,4.124,4.835,6.0073,7.0533,7.7653,8.0245,8.1964,8.3325,8.5779,8.8208,9.0452,9.1003,9.1716,9.2921,9.2391,9.2488,9.3186,9.2324,9.2126,9.2689,9.2157,9.1859,9.1892,9.2755,9.3219,9.3252,9.4577,9.5173,0.0,0.0,0.0,9.6001,9.6001,9.6001,9.6099,9.7127,9.8387,9.9884,10.1701,10.4091,10.6492,10.7301,10.8519,10.9498,10.9607,10.962,10.9704,10.9704,10.9704,10.9704,10.9704,10.9704,10.9704,10.9704,10.9885,10.9992,10.9992,11.0586,11.1221,11.1493,11.2017,11.2499,11.281,11.3113,11.3517,11.38,11.4108,11.4481,11.4812,11.4805,11.4805,11.4805,11.539,11.592,11.611,11.6716,11.7095,11.7323,11.7095,11.7307,11.7989,11.8406,11.8899,11.9505,11.9695,11.9809,11.9809,11.9809,11.9809,11.9809,12.1287,12.2083,12.231,12.3788,12.4584,3.0223,3.4988,3.9202,3.8046,3.7738,3.7092,3.4644,3.2981,3.1817,3.1413,3.1275,3.1499,3.2498,3.3176,3.436,3.6853,3.9912,4.5905,5.7288,6.8104,7.7107,8.3163,8.5203,8.6465,0.0,8.8602,8.977,9.0774,9.0998,9.1548,9.2656,9.2024,9.1927,9.2656,9.1991,9.1793,9.2192,9.1794,9.1627,9.1596,9.2324,9.2689,9.2722,9.4213,9.4908,0.0,0.0,0.0,9.6001,9.6165,9.6327,9.6585,9.7842,9.9249,10.0802,10.2395,10.469,10.7004,10.7486,10.8606,10.9704,10.9704,10.9704,10.9704,10.9704,10.9704,10.9704,10.9704,10.9704,10.9704,10.9704,10.9897,11.0194,11.0398,11.1089,11.1821,11.2385,11.2907,11.3521,11.4309,11.4609,11.4892,11.5408,11.561,11.5809,11.5905,11.5905,11.5905,11.5905,11.6413,11.6792,11.7193,11.761,11.7989,11.8406,11.8406,11.8482,11.8596,11.8883,11.93,11.9809,11.9809,11.9809,11.9809,11.9809,11.9998,12.0415,12.1704,12.25,12.2916,12.4205,12.4812,2.9025,3.1264,3.3511,3.4305,3.472,3.4659,3.3472,3.2715,3.2118,3.1714,3.1608,3.1936,3.3105,3.413,3.5849,3.9153,4.4204,5.2916,6.787,7.539,8.1608,8.7632,8.9154,8.9999,9.0847,9.1044,9.1076,9.1094,9.1156,9.1578,9.249,9.1927,9.1892,9.249,9.1927,9.1627,9.1627,9.1627,9.1627,9.1627,9.2225,9.2523,9.2556,9.3948,9.4577,0.0,0.0,0.0,9.5868,9.639,9.6841,9.7312,9.8869,10.0198,10.15,10.2975,10.4918,10.6787,10.7292,10.8509,10.9704,10.9704,10.9704,10.9704,10.9704,10.9704,10.9704,10.9704,10.9704,10.9704,10.9704,10.9884,11.0285,11.089,11.1493,11.222,11.3296,11.3797,11.4406,11.5787,11.611,11.6413,11.7209,11.7323,11.7323,11.7323,11.7323,11.7323,11.7323,11.7383,11.78,11.8504,11.8693,11.9088,11.9678,11.9809,11.9489,11.8807,11.9375,11.9809,11.9809,11.9809,11.9809,11.9809,11.9906,12.0285,12.1021,12.2007,12.2803,12.3485,12.4395,12.4791,2.8552,3.0884,3.3148,3.4232,3.5783,3.7016,3.6971,3.646,3.5851,3.5457,3.418,3.3799,3.5856,3.7063,3.9444,4.4739,5.4276,6.3829,7.1822,7.7949,8.3098,8.7081,8.9026,9.0099,9.0229,9.0779,9.1096,9.1093,9.1376,9.1597,9.1761,9.166,9.166,9.1761,9.166,9.1627,9.1627,9.1627,9.1627,9.1627,9.1726,9.1761,9.1794,9.2623,9.302,0.0,0.0,9.5074,9.5172,9.6415,9.7342,9.8133,9.9508,10.0995,10.2582,10.4088,10.5295,10.641,10.7797,10.8908,10.9704,10.9704,10.9704,10.9704,10.9704,10.9704,10.9704,10.9704,10.9704,10.9704,10.9704,11.0027,11.0503,11.1206,11.1996,11.281,11.3695,11.4087,11.4686,11.5911,11.611,11.6413,11.7209,11.7323,11.7323,11.7323,11.7323,11.7323,11.7323,11.7913,11.8482,11.8596,11.9202,11.9695,11.9809,11.9809,11.9678,11.9603,11.9678,11.9809,11.9809,11.9809,11.9809,11.9809,12.0491,12.0908,12.1021,12.2613,12.3409,12.3485,12.4395,12.4896,2.8344,3.0447,3.2656,3.4775,3.7517,3.9759,3.9963,4.0441,4.053,3.9393,3.7765,3.7228,3.9505,4.0974,4.5111,5.5086,6.3052,7.0112,7.6196,8.0604,8.4358,0.0,0.0,9.0228,9.0615,9.0934,9.1187,9.1376,9.1533,9.1627,9.1627,9.1627,9.1627,9.1627,9.1627,9.1627,9.1627,9.1627,9.1627,9.1627,9.1627,9.1627,9.166,9.2358,9.2689,9.2787,0.0,9.5261,9.5583,9.7291,9.8508,9.9415,10.0781,10.2078,10.3373,10.4995,10.6101,10.6892,10.8075,10.898,10.9704,10.9704,10.9704,10.9704,10.9704,10.9704,10.9704,10.9704,10.9704,10.9704,10.9704,11.0014,11.0723,11.161,11.2383,11.3113,11.4179,11.4886,11.5598,11.6587,11.708,11.7686,11.8482,11.8709,11.8709,11.8709,11.8709,11.8709,11.8709,11.9013,11.9186,11.9186,11.9619,11.9809,11.9809,11.9809,11.9809,11.9809,11.9809,11.9809,11.9809,11.9809,11.9998,12.0399,12.0794,12.1384,12.2386,12.3106,12.3712,12.4205,12.4584,12.4913,2.7976,2.9805,3.206,3.512,3.8794,4.1811,4.2732,4.4416,4.546,4.4239,4.2844,4.2462,4.4363,4.6823,5.2268,6.3667,6.9374,7.4257,7.9503,8.2677,8.536,8.7884,8.9381,9.0585,9.1522,9.1682,9.1841,9.2093,9.196,0.0,9.1859,9.1662,9.1627,9.1627,9.1627,9.1627,9.1627,9.1627,9.1627,9.1627,9.1627,9.1627,9.1627,9.2159,9.2424,9.2555,9.4458,9.55,9.6094,9.8284,9.9832,10.0927,10.2201,10.3187,10.412,10.5401,10.6385,10.7399,10.8002,10.8908,10.9704,10.9704,10.9704,10.9704,10.9704,10.9704,10.9704,10.9704,10.9716,10.9801,10.9801,11.0179,11.0905,11.2085,11.2773,11.3406,11.4616,11.5503,11.6299,11.7095,11.7989,11.8899,11.9695,11.9809,11.9809,11.9809,11.9809,11.9809,11.9809,11.9809,11.9809,11.9809,11.9809,11.9809,11.9809,11.9809,11.9809,11.9809,11.9809,11.9809,11.9809,11.9998,12.0415,12.1021,12.14,12.2196,12.3485,12.3712,12.4091,12.4812,12.4584,12.4702,2.7126,2.8864,3.1246,3.4764,3.8629,4.2358,4.531,4.8255,5.04,5.064,5.0359,5.0322,5.1147,5.5889,6.1271,6.6226,7.1731,7.669,8.0413,0.0,8.6139,8.8633,8.9867,9.1236,9.2971,9.3425,9.3618,9.3649,9.2987,0.0,9.2623,9.196,9.1627,9.1627,9.1627,9.1627,9.1627,9.1627,9.1627,9.1627,9.1627,9.1627,9.1627,9.166,9.1693,9.1791,9.3942,9.5281,9.6211,9.898,10.1092,10.2623,10.3313,10.4096,10.4795,10.4901,10.601,10.729,10.7423,10.8401,10.9704,10.9704,10.9704,10.9704,10.9704,10.9704,10.9704,10.9704,10.9909,11.01,11.01,11.0686,11.1573,11.2385,11.3094,11.38,11.4588,11.5503,11.6299,11.7095,11.7989,11.8899,11.9695,11.9809,11.9809,11.9809,11.9809,11.9809,11.9809,11.9809,11.9809,11.9809,11.9809,11.9809,11.9809,11.9809,11.9809,11.9809,11.9809,11.9809,11.9809,12.0474,12.0891,12.1021,12.25,12.3409,12.3485,12.4281,12.4698,12.4812,12.4016,12.4199,2.7376,2.893,3.1182,3.4577,3.8948,4.3529,4.7875,5.1978,5.5405,5.7081,5.7935,0.0,0.0,5.977,6.4347,6.9043,7.3512,7.7949,8.2385,8.4328,8.6136,8.8429,8.9831,9.1201,9.2797,9.3453,9.3782,9.3782,0.0,0.0,9.2722,9.2424,9.2059,9.1596,9.1627,9.1627,9.1627,9.1627,9.1627,9.1627,9.1627,9.1627,9.1627,9.1844,9.1937,9.2066,9.4577,9.6143,9.7162,10.0105,10.2096,10.3412,10.4204,10.4595,10.4924,10.4924,10.5612,10.6602,10.7109,10.8002,10.898,10.9487,10.9704,10.9704,10.9704,10.9825,10.9908,10.9908,11.0425,11.0889,11.0695,11.1104,11.1893,11.2907,11.3477,11.4086,11.5285,11.6299,11.7095,11.7913,11.8785,11.9375,11.9678,11.9809,11.9809,11.9809,11.9809,11.9809,11.9809,11.9809,11.9809,11.9809,11.9809,11.9809,11.9809,11.9809,11.9998,12.0474,12.0112,11.9982,12.0474,12.0778,12.1514,12.25,12.3182,12.3788,12.4281,12.4584,12.4812,12.4812,12.4002,12.4388,2.797,2.9137,3.111,3.4744,3.923,4.4349,5.0566,5.5515,5.9633,6.2524,6.3885,6.3829,6.141,0.0,6.6744,7.1051,7.4969,7.905,8.3551,8.494,8.6195,8.8258,8.9431,9.0767,9.2525,9.2954,9.3186,9.3418,0.0,0.0,0.0,9.2324,9.2093,9.1627,9.1627,9.1627,9.1627,9.1627,9.1627,9.1627,9.172,9.172,9.1627,9.1968,9.2242,9.2641,9.5056,9.6812,9.8127,10.0898,10.2822,10.4084,10.4678,10.4924,10.4924,10.4924,10.5394,10.6191,10.6711,10.7604,10.8606,10.9089,10.9487,10.9704,10.9704,10.9897,11.0074,11.0296,11.0993,11.1594,11.172,11.2004,11.2499,11.3386,11.4092,11.4796,11.5901,11.689,11.7913,11.852,11.9186,11.9809,11.9809,11.9809,11.9809,11.9809,11.9809,11.9809,11.9809,11.9809,11.9809,11.9809,11.9809,11.9809,11.9809,11.9809,12.0095,12.0891,12.0491,12.0474,12.14,12.1704,12.231,12.3485,12.3788,12.4205,12.4812,12.4508,12.4391,12.4479,12.3607,12.3914,2.8834,2.9415,3.0995,3.5355,3.9505,4.4764,5.3471,5.8815,6.3019,6.6831,6.797,6.7845,6.642,6.7294,0.0,7.2055,7.6103,8.0119,8.3713,8.5127,8.6477,8.829,8.8732,8.9897,9.2425,9.1993,9.1925,9.2623,0.0,0.0,0.0,9.1627,9.1627,9.1627,9.1627,9.1627,9.1627,9.1627,9.1627,9.1594,9.1937,9.1937,9.1627,9.1968,9.2604,9.3495,9.5172,9.704,9.9086,10.122,10.3208,10.4924,10.4924,10.4924,10.4924,10.4924,10.5394,10.6119,10.6119,10.7097,10.8497,10.8497,10.898,10.9704,10.9704,10.9897,11.0192,11.0801,11.1291,11.2,11.3185,11.3499,11.3519,11.3817,11.4909,11.5789,11.61,11.7383,11.8596,11.8596,11.9316,11.9809,11.9809,11.9809,11.9809,11.9809,11.9809,11.9809,11.9809,11.9809,11.9809,11.9809,11.9809,11.9809,11.9809,11.9809,12.0095,12.1021,12.1021,12.14,12.231,12.3106,12.3485,12.3485,12.4395,12.4812,12.4812,12.3902,12.3606,12.3787,12.2421,12.2822,2.926,3.119,3.4171,3.8761,4.4287,5.045,5.7592,6.1941,6.6609,7.3983,7.4046,7.1958,6.9561,6.9853,0.0,7.2962,7.6427,8.0401,8.4702,8.5607,8.6374,8.788,8.8591,8.9501,9.1035,9.143,9.1662,0.0,0.0,0.0,0.0,9.1627,9.1627,9.1627,9.1627,9.1627,9.1627,9.1627,9.1627,9.1594,9.1937,9.2061,9.1999,9.2969,9.368,9.4225,9.6304,9.799,9.9385,10.2107,10.3885,10.4924,10.4924,10.4924,10.4924,10.4924,10.5105,10.5299,10.5878,10.6409,10.6988,10.8111,10.8714,10.9004,10.9487,11.0016,11.0375,11.1104,11.1814,11.2599,11.3476,11.401,11.4175,11.4497,11.4815,11.5387,11.6701,11.7307,11.7989,11.9202,11.9603,11.9809,11.9809,11.9809,11.9809,11.9809,11.9809,11.9809,11.9809,11.9809,11.9809,11.9809,11.9809,11.9809,11.9809,11.9809,12.0415,12.1817,12.1893,12.231,12.3106,12.3409,12.3788,12.4395,12.4794,12.4882,12.4882,12.4199,12.3988,12.4187,12.2712,12.2816,3.0862,3.4176,3.8433,4.3584,5.0131,5.7339,6.5329,6.8595,7.1676,7.8021,7.7495,7.5261,7.3318,7.3032,0.0,7.5423,7.7981,8.1144,8.5216,8.5923,8.6363,8.7342,8.7953,8.86,8.9544,8.9774,9.0003,0.0,0.0,0.0,0.0,9.0569,9.0734,9.0734,9.0734,9.0867,9.1165,9.1165,9.1297,9.1627,9.2092,9.2486,9.2845,9.3767,9.4625,9.5509,9.7566,9.8966,9.9981,10.2023,10.3402,10.4417,10.4417,10.4598,10.4924,10.4924,10.4924,10.4996,10.5503,10.5806,10.63,10.7205,10.8026,10.8606,10.9113,10.9809,11.0595,11.1499,11.2301,11.3001,11.4007,11.4389,11.4604,11.479,11.5124,11.5601,11.6603,11.7307,11.8103,11.911,11.9619,11.9809,11.9809,11.9809,11.9809,11.9809,11.9809,11.9809,11.9809,11.9809,11.9809,11.9809,11.9809,11.9809,11.9809,11.9809,12.0491,12.2196,12.231,12.2803,12.4016,12.4016,12.4315,12.4892,12.5084,12.5206,12.5307,12.4317,12.4016,12.4087,12.2601,12.2594,3.308,3.7744,4.3112,4.9082,5.6519,6.4916,7.4688,7.6811,7.737,7.9636,7.9017,7.7916,7.7204,7.6589,7.6819,7.8856,8.0345,8.2312,8.5408,8.6107,8.6444,8.681,8.711,8.7521,8.815,8.7654,0.0,0.0,0.0,0.0,0.0,8.8945,8.9313,8.9379,8.9379,8.9743,9.0472,9.0505,9.0867,9.1627,9.2276,9.3118,9.4013,9.4363,9.5447,9.7116,9.8718,9.9853,10.0595,10.1208,10.2316,10.3692,10.3692,10.4199,10.4924,10.4924,10.4924,10.4924,10.4924,10.5394,10.601,10.6119,10.7097,10.8401,10.8497,10.9409,11.0686,11.1905,11.262,11.3298,11.4513,11.4805,11.4805,11.4805,11.5374,11.5996,11.611,11.7307,11.8406,11.8596,11.9202,11.9678,11.9809,11.9809,11.9809,11.9809,11.9809,11.9809,11.9809,11.9809,11.9809,11.9809,11.9809,11.9809,11.9809,11.9809,12.0491,12.2196,12.231,12.3106,12.4698,12.4812,12.4896,12.5002,12.5315,12.5498,12.5698,12.4399,12.3817,12.3917,12.2413,12.2284,3.3397,3.9085,4.5344,5.174,6.166,7.1155,7.6403,7.8438,7.9509,8.0575,8.051,8.0089,7.9435,7.96,8.0186,8.1252,8.2159,8.3539,8.5846,8.6261,8.6535,8.714,8.7259,8.7352,8.7518,8.7385,0.0,0.0,0.0,0.0,8.8283,8.8449,8.8813,8.9379,8.9379,8.9743,9.0472,9.0505,9.0867,0.0,9.2276,9.344,9.4915,9.5255,9.637,9.8051,9.899,9.9853,10.0595,10.1208,10.2316,10.3692,10.3692,10.4199,10.4924,10.4924,10.4924,10.4924,10.4924,10.4996,10.5286,10.5902,10.6807,10.7712,10.8292,10.9409,11.0686,11.1905,11.262,11.3298,11.4513,11.4805,11.4805,11.4805,11.4881,11.5314,11.5996,11.6413,11.7004,11.8276,11.8693,11.9088,11.9695,11.9809,11.9809,11.9809,11.9809,11.9809,11.9809,11.9809,11.9809,11.9809,11.9809,11.9809,11.9809,11.9809,12.0491,12.2196,12.231,12.3106,12.4698,12.4812,12.4896,12.5002,12.5385,12.5698,12.5893,12.5211,12.5099,12.5318,12.3589,12.311,3.3948,4.1366,5.0038,6.0796,6.8982,7.5058,7.7726,7.9438,8.0572,8.0931,8.0995,8.0898,8.054,8.0736,8.1222,8.1997,8.2418,8.3277,8.4988,8.5568,8.6039,8.6667,8.7087,8.7319,8.7319,8.7319,0.0,0.0,0.0,8.7451,8.7786,8.7819,8.7985,8.8382,8.8382,8.8747,8.9412,8.9628,9.022,9.1313,9.2252,9.3873,9.6096,9.6816,9.7617,9.8501,9.9143,9.9637,10.0115,10.0594,10.1519,10.2606,10.2606,10.3294,10.4308,10.4308,10.4598,10.4924,10.4924,10.4924,10.4996,10.5394,10.6276,10.7399,10.7821,10.9082,11.0686,11.1905,11.262,11.3298,11.4513,11.4805,11.4805,11.4805,11.4805,11.4881,11.539,11.5807,11.6489,11.7686,11.8292,11.8899,11.9695,11.9809,11.9809,11.9809,11.9809,11.9809,11.9809,11.9809,11.9809,11.9809,11.9809,11.9809,11.9809,11.9809,12.0491,12.2196,12.231,12.3106,12.4698,12.4896,12.4991,12.5094,12.561,12.5994,12.6208,12.5909,12.5791,12.5906,12.408,12.3599,3.4403,4.4223,5.5808,6.9905,7.5002,7.701,7.8532,7.9892,8.0866,8.0963,8.0995,8.0995,8.0995,8.0995,8.1222,8.1997,8.2126,8.2565,8.3909,8.462,8.5316,8.6104,8.6756,8.7153,8.7286,8.7319,0.0,0.0,0.0,8.7319,8.7319,8.7319,8.7319,8.7319,8.7319,8.762,8.8316,8.8646,8.955,9.1035,9.257,9.4605,9.7109,9.8198,9.8694,9.8718,9.9213,9.9386,9.9467,9.9979,10.0722,10.141,10.141,10.2293,10.3692,10.3692,10.4199,10.4924,10.4924,10.4924,10.4924,10.4924,10.5925,10.718,10.7289,10.8799,11.0588,11.2024,11.2698,11.3408,11.4492,11.4805,11.4805,11.4805,11.4805,11.4805,11.4805,11.539,11.6186,11.7095,11.8103,11.9013,11.9695,11.9809,11.9809,11.9809,11.9809,11.9809,11.9809,11.9809,11.9809,11.9809,11.9809,11.9809,11.9809,11.9809,12.0491,12.2196,12.231,12.3085,12.4786,12.4986,12.5196,12.5385,12.5883,12.6299,12.6712,12.6416,12.6298,12.6298,12.4712,12.4286,3.4206,4.757,6.1448,7.0389,7.4257,7.6366,7.8435,7.9536,8.028,8.0866,8.0995,8.0995,8.0995,8.0995,8.1222,8.1997,8.2126,8.2565,8.3909,8.4162,8.4728,8.6038,8.6292,8.659,8.7253,8.7319,0.0,0.0,8.7319,8.7319,8.7319,8.7319,8.7319,8.7319,8.7319,8.762,8.8316,8.8646,8.9575,9.1103,9.3945,9.6035,9.7365,9.8307,9.8694,9.8718,9.9213,9.9386,9.9467,9.9979,10.0722,10.141,10.141,10.2293,10.3692,10.3692,10.4199,10.4924,10.4924,10.4924,10.4924,10.4924,10.5715,10.6711,10.7424,10.89,11.0624,11.2103,11.3001,11.3692,11.4578,11.4805,11.4805,11.4805,11.4805,11.4805,11.4805,11.4881,11.5412,11.702,11.8596,11.9695,11.9809,11.9809,11.9809,11.9809,11.9809,11.9809,11.9809,11.9809,11.9809,11.9809,11.9809,11.9809,11.9809,11.9809,12.0491,12.2196,12.231,12.3097,12.4894,12.5199,12.5506,12.5798,12.6104,12.6488,12.6889,12.7106,12.7187,12.7187,12.6182,12.5795,4.0142,5.1706,6.2197,7.1384,7.471,7.614,7.7884,7.9147,8.0083,8.0378,8.0766,8.0995,8.0995,8.0995,8.1093,8.1416,8.1661,8.2056,8.2793,8.3392,8.4079,8.4846,8.5695,8.6325,8.6656,8.7054,0.0,0.0,8.7319,8.7319,8.7319,8.7319,8.7319,8.7319,8.7319,8.7451,8.772,8.8224,8.9571,9.1816,9.4634,9.6418,9.7265,9.8239,9.8694,9.8718,9.9213,9.9386,9.9467,9.9979,10.0396,10.07,10.07,10.17,10.3099,10.3099,10.3873,10.4924,10.4924,10.4924,10.4924,10.4924,10.5593,10.6594,10.7291,10.882,11.0685,11.201,11.3086,11.3883,11.4588,11.4805,11.4805,11.4805,11.4805,11.4805,11.4805,11.4805,11.5298,11.702,11.8709,11.9809,11.9809,11.9809,11.9809,11.9809,11.9809,11.9809,11.9809,11.9809,11.9809,11.9809,11.9809,11.9809,11.9809,11.989,12.0409,12.1699,12.178,12.2714,12.4615,12.4879,12.5375,12.6286,12.6488,12.6706,12.701,12.732,12.7381,12.7381,12.6491,12.6414,4.3421,5.2375,5.9648,6.9026,7.2314,7.3836,7.5973,7.756,7.8885,7.9824,8.041,8.0801,8.0963,8.0995,8.1025,8.1115,8.1352,8.1613,8.2054,8.2745,8.34,8.3948,8.497,8.5728,8.5927,8.6424,0.0,0.0,8.6921,8.7021,8.7021,8.7219,8.7319,8.7319,8.7319,8.7319,8.7319,8.83,9.0044,9.2435,9.4815,9.6393,9.7242,9.8075,9.8587,9.8813,9.9236,9.9467,9.9559,10.0002,10.0215,10.0215,10.0215,10.1193,10.2592,10.2592,10.3606,10.4924,10.4924,10.4911,10.5016,10.5016,10.5689,10.6612,10.7272,10.9005,11.0894,11.2114,11.3192,11.4179,11.4711,11.4805,11.4805,11.4805,11.4805,11.4805,11.4805,11.4995,11.5617,11.702,11.8482,11.9619,11.9809,11.9809,11.9809,11.9809,11.9809,11.9809,11.9809,11.9809,11.9809,11.9809,11.9809,11.9787,11.9781,11.9989,12.0509,12.1392,12.1613,12.2497,12.4206,12.4719,12.5403,12.6402,12.6701,12.701,12.7097,12.7301,12.7381,12.7381,12.6684,12.68,3.9685,4.6618,5.3371,6.0638,6.4542,6.7683,7.1828,7.3868,7.5844,7.9306,8.0018,8.0248,8.0866,8.0995,8.1115,8.1408,8.1467,8.1701,8.228,8.2399,8.2839,8.3882,8.4076,8.4407,8.5103,8.5202,8.5235,0.0,8.5832,8.6258,8.6258,8.6921,8.7319,8.7319,8.7319,8.7319,8.7319,8.9436,9.1203,9.2711,9.443,9.6018,9.7492,9.7799,9.8345,9.9085,9.9306,9.9559,9.9809,10.0105,10.0215,10.0215,10.0215,10.1193,10.2592,10.2592,10.3606,10.4924,10.4924,10.5121,10.5303,10.5303,10.5925,10.6779,10.7783,10.9392,11.1106,11.2299,11.3501,11.4492,11.4683,11.4805,11.4805,11.4805,11.4805,11.4805,11.4805,11.5412,11.6299,11.7095,11.7989,11.8883,11.9695,11.9809,11.9809,11.9809,11.9809,11.9809,11.9809,11.9809,11.9809,11.9809,11.9809,11.9911,11.9995,12.019,12.0807,12.1791,12.2108,12.2716,12.3804,12.4805,12.5504,12.5688,12.6787,12.74,12.741,12.7419,12.7381,12.7381,12.7381,12.7381,3.5823,4.1576,4.7454,5.4007,5.8497,6.2414,6.6687,7.0565,7.4257,7.7852,7.9338,8.0213,8.0866,8.0995,8.1115,8.147,8.1675,8.1967,8.2338,8.26,8.2869,8.3248,8.3711,8.4109,8.4374,8.4838,8.5103,0.0,0.0,8.55,8.55,8.6192,8.659,8.659,8.7231,8.7929,8.87,9.017,9.1437,9.252,9.4362,9.5744,9.6743,9.7372,9.8263,9.9319,9.9914,9.9991,9.9845,10.0611,10.0686,10.0288,10.0795,10.1592,10.2701,10.3077,10.3982,10.4924,10.4924,10.5085,10.5394,10.5809,10.6292,10.7022,10.8112,10.972,11.141,11.2214,11.348,11.4689,11.479,11.4805,11.4805,11.4805,11.4805,11.4805,11.4805,11.5503,11.6299,11.7095,11.7989,11.8899,11.9695,11.9809,11.9809,11.9809,11.9809,11.9809,11.9809,11.9809,11.9809,11.9809,11.9906,12.0004,12.0205,12.0512,12.0905,12.1514,12.2204,12.3091,12.4099,12.5098,12.6001,12.6797,12.7187,12.7381,12.7381,12.7381,12.7381,12.7381,12.7381,12.7381,3.2083,3.6656,4.1294,4.6577,5.1329,5.581,6.0083,6.5157,7.0177,7.4743,7.701,7.8596,8.0054,8.0283,8.0593,8.1519,8.185,8.2141,8.2514,8.2742,8.2883,8.2883,8.3347,8.3645,8.3645,8.4076,8.4374,0.0,0.0,0.0,8.4738,8.5434,8.5989,8.6339,8.747,8.8614,8.9648,9.0858,9.1865,9.2554,9.4054,9.5315,9.6315,9.6944,9.7977,9.9342,10.0295,10.0394,9.9993,10.1018,10.0881,10.0288,10.0795,10.17,10.2701,10.3208,10.4123,10.5003,10.5003,10.5321,10.5809,10.6292,10.6908,10.759,10.8383,11.0102,11.1701,11.2196,11.3479,11.4805,11.4805,11.4805,11.4805,11.4805,11.4805,11.4805,11.4805,11.5314,11.5996,11.7095,11.78,11.852,11.9619,11.9809,11.9809,11.9809,11.9809,11.9809,11.9809,11.9809,11.9787,11.989,11.9982,12.0296,12.0488,12.0911,12.141,12.1896,12.2608,12.3495,12.4492,12.5401,12.6197,12.6916,12.7303,12.7381,12.7381,12.7381,12.7381,12.7381,12.7381,12.711,0.0,0.0,0.0,3.828,4.2877,4.7702,5.199,5.7428,6.3441,6.9892,7.3026,7.5455,7.8337,7.892,7.9607,8.1618,8.193,8.2133,8.2732,8.285,8.2883,8.2883,8.2883,8.2883,8.2883,8.2883,8.2883,0.0,8.3579,8.3976,8.3976,8.4672,8.5546,8.6625,8.8115,8.9243,8.9942,9.1527,9.2508,9.281,9.3637,9.478,9.6279,9.657,9.7545,9.9145,10.041,10.0716,10.0324,10.1121,10.0881,10.0215,10.0215,10.1193,10.2592,10.2592,10.3779,10.529,10.5312,10.5896,10.6604,10.6905,10.759,10.8478,10.8815,11.0402,11.2087,11.2296,11.3479,11.4805,11.4805,11.4805,11.4805,11.4805,11.4805,11.4805,11.4805,11.4805,11.5298,11.702,11.7323,11.7892,11.9505,11.9809,11.9809,11.9809,11.9809,11.9809,11.9809,11.9809,11.989,11.9989,12.0296,12.0617,12.0883,12.1313,12.2108,12.3114,12.3396,12.3899,12.4799,12.5688,12.6104,12.6104,12.6994,12.7381,12.7381,12.7381,12.7381,12.7381,12.7381,12.6491,2.5597,0.0,0.0,0.0,0.0,0.0,4.3962,5.0857,5.8551,6.6031,7.0921,7.4932,7.8273,7.9338,7.9866,8.0341,8.0394,8.0621,8.121,8.1757,8.2088,8.2088,8.2585,8.2883,8.2883,8.2883,8.2883,0.0,8.3082,8.3215,8.3215,8.4077,8.5609,8.7805,8.8477,8.9655,9.1393,9.2249,9.2882,9.338,9.3799,9.453,9.553,9.6135,9.7096,9.832,9.9974,10.0394,9.9971,10.1018,10.0881,10.0288,10.0809,10.17,10.2701,10.3185,10.4214,10.5394,10.5816,10.6297,10.7005,10.7795,10.8404,10.8886,10.939,11.0802,11.228,11.2289,11.3479,11.4805,11.4805,11.4805,11.4805,11.4805,11.4805,11.4805,11.4805,11.5314,11.598,11.7095,11.78,11.8596,11.9619,11.9809,11.9809,11.9809,11.9906,11.991,11.991,12.0096,12.0281,12.0488,12.0688,12.0886,12.1388,12.1706,12.1988,12.2488,12.3716,12.448,12.4799,12.6182,12.6994,12.6994,12.7303,12.7381,12.7381,12.7381,12.7381,12.7381,12.7381,12.6491,0.0,0.0,0.0,0.0,0.0,0.0,3.8311,4.4885,5.2365,5.9328,6.4509,6.8978,7.2832,7.3901,7.4193,7.4253,7.5099,7.6909,8.0245,8.1061,8.1326,8.1326,8.1724,8.2088,8.2419,8.2453,8.2552,8.2883,8.2883,8.294,8.3052,8.4216,8.5707,8.7544,8.9026,9.042,9.1842,9.2812,9.3474,9.3788,9.3949,9.4423,9.5244,9.5958,9.6813,9.7822,9.9426,9.9945,9.9709,10.0494,10.0592,10.0193,10.07,10.1592,10.2701,10.3099,10.421,10.55,10.6108,10.6713,10.7382,10.8404,10.9006,10.9302,10.9697,11.1015,11.2304,11.2304,11.3479,11.4805,11.4805,11.4805,11.4805,11.4805,11.4805,11.4805,11.4805,11.5503,11.6299,11.7095,11.7989,11.8899,11.9695,11.9809,11.9787,11.9906,11.9998,12.0182,12.0296,12.0502,12.0677,12.0909,12.1118,12.1289,12.1711,12.1882,12.2304,12.2807,12.3706,12.4596,12.5292,12.6298,12.6994,12.7381,12.7381,12.7381,12.7381,12.7381,12.7381,12.7381,12.7381,12.6491,2.7541,2.8367,0.0,0.0,0.0,0.0,3.4352,3.9458,4.5532,5.1083,5.5713,6.004,6.4283,6.5027,6.5123,6.5399,6.7506,7.1594,7.88,8.0134,8.0399,8.0564,8.0631,8.0962,8.1591,8.1658,8.1989,8.2718,8.285,8.3024,8.3332,8.4722,8.5875,8.661,8.9508,9.1242,9.1669,9.3246,9.4018,9.4018,9.4018,9.4352,9.5101,9.5922,9.6707,9.7444,9.8818,9.9386,9.9467,9.9979,10.0215,10.0215,10.0288,10.1302,10.2592,10.2701,10.39,10.5699,10.6418,10.7094,10.798,10.8694,10.9318,10.9621,10.9795,11.1015,11.2304,11.2493,11.3706,11.4805,11.4805,11.4805,11.4805,11.4805,11.4805,11.4805,11.4805,11.5503,11.6299,11.702,11.7913,11.8899,11.9695,11.9825,11.9906,12.002,12.0288,12.0512,12.0681,12.0899,12.1079,12.1304,12.1516,12.1695,12.19,12.2208,12.2584,12.331,12.3512,12.4209,12.5911,12.5988,12.6491,12.7381,12.7381,12.7381,12.7381,12.7381,12.7381,12.7303,12.7303,12.6298,2.9437,3.0335,3.0797,0.0,0.0,0.0,3.0982,3.4975,4.0045,4.4641,4.9451,5.3984,5.7676,5.8356,5.8463,5.8728,6.111,6.5596,7.3272,7.6485,7.8451,7.9676,8.0332,8.0763,8.0896,8.0896,8.1194,8.1956,8.2552,8.3136,8.3665,8.454,8.5804,8.749,8.9545,9.1128,9.2244,9.3407,9.4018,9.4018,9.4018,9.4089,9.4303,9.5672,9.6386,9.6659,9.8567,9.9386,9.9467,9.9979,10.0215,10.0288,10.0881,10.1809,10.2701,10.3317,10.4386,10.5823,10.6817,10.7591,10.8195,10.928,10.9697,10.9795,10.9787,11.1015,11.2607,11.3896,11.4502,11.4805,11.4805,11.4805,11.4805,11.4805,11.4805,11.4805,11.4805,11.5503,11.611,11.6299,11.761,11.8899,11.9695,11.9884,11.9998,12.0302,12.0607,12.0896,12.1182,12.1318,12.1497,12.1799,12.1815,12.1892,12.2198,12.2285,12.2391,12.2507,12.3077,12.4015,12.4982,12.5679,12.6491,12.7381,12.7381,12.7381,12.7381,12.7381,12.6994,12.6414,12.6414,12.5408,3.1986,3.217,3.1983,3.1593,0.0,0.0,0.0,3.2655,3.6192,3.9786,4.3362,4.6845,5.0066,5.0649,5.0705,5.0853,5.4013,5.8329,6.3758,7.0624,7.5962,7.8252,7.9146,7.9604,7.9604,7.9935,8.0598,8.1724,8.2121,8.2799,8.3741,8.4875,8.6077,8.7349,8.9765,9.1354,9.1995,9.3343,9.4018,9.4018,9.4018,9.4018,9.4054,9.5601,9.6315,9.6409,9.8495,9.9386,9.9467,10.0413,10.0795,10.0809,10.1207,10.2007,10.2786,10.3584,10.4794,10.6208,10.7191,10.7905,10.8585,10.949,10.9802,10.9802,10.9802,11.1015,11.2607,11.4313,11.4805,11.4805,11.4805,11.4805,11.4805,11.4805,11.4805,11.4805,11.4805,11.5109,11.5617,11.5996,11.7197,11.8306,11.9217,11.9801,12.0302,12.0621,12.099,12.1277,12.1593,12.181,12.1998,12.211,12.2081,12.2198,12.2304,12.2313,12.2313,12.2313,12.27,12.3512,12.4721,12.5185,12.6104,12.7381,12.7381,12.7381,12.7381,12.7381,12.6994,12.6104,12.6104,12.5214,0.0,0.0,0.0,0.0,0.0,3.0916,0.0,0.0,0.0,0.0,3.776,3.988,4.2456,4.2828,4.2795,4.2925,4.6513,0.0,0.0,6.2662,0.0,7.4981,7.6265,7.6994,7.7424,7.8484,7.9643,8.0863,8.1227,8.1968,8.3306,8.5095,8.637,8.6977,9.0006,9.1604,9.1604,9.3197,9.4018,9.4018,9.4018,9.4018,9.4054,9.5601,9.6315,9.6409,9.8495,9.9386,9.948,10.0811,10.1397,10.1514,10.17,10.24,10.3204,10.4195,10.5418,10.6783,10.7609,10.8303,10.8911,10.959,10.9802,10.9916,11.0219,11.1205,11.2607,11.4313,11.4805,11.4805,11.4805,11.4805,11.4805,11.4805,11.4805,11.4805,11.4805,11.4805,11.5011,11.5686,11.6691,11.7687,11.8676,11.9784,12.0611,12.0989,12.1388,12.1706,12.1882,12.2208,12.2313,12.2313,12.2313,12.2313,12.2313,12.2313,12.2313,12.2313,12.2313,12.3087,12.4721,12.5098,12.5988,12.7381,12.7381,12.7381,12.7381,12.7381,12.6916,12.5795,12.5795,12.4905,0.0,0.0,0.0,0.0,3.2935,0.0,0.0,0.0,0.0,0.0,0.0,0.0,3.5992,0.0,0.0,0.0,0.0,0.0,4.6963,5.1397,5.7791,6.7543,6.9964,7.1554,7.3516,7.6099,7.7722,7.7914,7.9113,8.0445,8.1772,8.4549,8.637,8.6977,9.0006,9.1604,9.1604,9.3197,9.4018,9.4018,9.4018,9.4018,9.4054,9.5601,9.6315,9.6409,9.8495,9.9386,9.948,10.0811,10.1508,10.1793,10.2986,10.3706,10.4107,10.5507,10.6291,10.699,10.8085,10.8698,10.9001,10.9598,10.9802,11.0106,11.1584,11.2114,11.2607,11.4313,11.4805,11.4805,11.4805,11.4805,11.4805,11.4805,11.4805,11.4805,11.4805,11.4805,11.489,11.5119,11.5981,11.7213,11.8904,12.0101,12.1015,12.1508,12.1722,12.2019,12.2218,12.2294,12.2313,12.2313,12.2313,12.2313,12.2313,12.2313,12.2313,12.2313,12.2313,12.3087,12.4721,12.6298,12.7187,12.7381,12.7381,12.7381,12.7381,12.7381,12.6607,12.4905,12.4905,12.4015,0.0,0.0,0.0,0.0,0.0,0.0,0.0,0.0,3.1228,0.0,0.0,0.0,0.0,0.0,0.0,0.0,3.6627,0.0,0.0,0.0,5.0417,0.0,0.0,0.0,7.0858,7.3045,7.4635,0.0,7.6125,7.778,8.0795,8.3824,8.5945,8.6977,9.0006,9.1604,9.1604,9.3197,9.4018,9.4018,9.4018,9.4018,9.4054,9.5601,9.6315,9.6409,9.8495,9.9386,9.9539,10.1412,10.2219,10.2608,10.4408,10.4997,10.4997,10.6185,10.7089,10.7888,10.8524,10.9017,10.9403,10.9697,10.9802,10.9992,11.1205,11.1887,11.2607,11.3782,11.4389,11.4805,11.4805,11.4805,11.4805,11.4805,11.4805,11.4805,11.4805,11.4805,11.4776,11.4983,11.5998,11.7211,11.8702,11.9915,12.0911,12.1695,12.2001,12.2218,12.2304,12.2313,12.2313,12.2313,12.2313,12.2313,12.2313,12.2313,12.2313,12.2313,12.3203,12.4093,12.4799,12.6491,12.7381,12.7381,12.7381,12.7187,12.6607,12.6607,12.5717,12.4093,12.4596,12.3899,4.5161,0.0,0.0,0.0,0.0,0.0,0.0,0.0,0.0,0.0,0.0,0.0,0.0,0.0,0.0,0.0,0.0,3.6507,0.0,3.9308,0.0,0.0,0.0,0.0,0.0,6.8937,7.0428,7.1711,0.0,7.3949,7.8149,8.202,8.4793,8.6316,8.9581,9.139,9.1604,9.296,9.3804,9.4018,9.4018,9.4018,9.4054,9.5601,9.6315,9.6409,9.8495,9.9386,9.9575,10.1701,10.2808,10.3212,10.5421,10.6215,10.6192,10.6986,10.7907,10.8599,10.9017,10.9397,10.9689,10.9795,10.9802,10.9992,11.0788,11.1508,11.219,11.3289,11.4009,11.4502,11.4692,11.4805,11.4805,11.4805,11.4805,11.4805,11.4805,11.4805,11.4906,11.5005,11.5911,11.7094,11.8617,11.9707,12.0802,12.1913,12.2218,12.2313,12.2313,12.2313,12.2313,12.2313,12.2313,12.2313,12.2313,12.2313,12.2313,12.2313,12.359,12.4596,12.4799,12.6182,12.7187,12.7381,12.7381,12.6994,12.6104,12.6104,12.5214,12.3503,12.4093,12.3706,0.0,0.0,0.0,4.105,0.0,0.0,0.0,0.0,3.3433,0.0,0.0,0.0,0.0,0.0,0.0,0.0,0.0,0.0,0.0,0.0,0.0,0.0,0.0,0.0,0.0,6.3338,6.4929,0.0,6.633,0.0,7.2816,7.8629,8.2707,8.4692,8.8506,9.089,9.1604,9.2425,9.321,9.4018,9.4018,9.4018,9.4054,9.5601,9.6315,9.6409,9.8495,9.9386,9.9575,10.1701,10.2897,10.3509,10.5689,10.6993,10.7814,10.8314,10.8714,10.9001,10.9605,10.9787,10.9787,10.9787,10.9802,10.9992,11.0788,11.1091,11.1508,11.31,11.3593,11.3782,11.4578,11.4805,11.4805,11.4805,11.4805,11.4805,11.4805,11.4805,11.4914,11.5191,11.5685,11.6692,11.8681,11.9917,12.0987,12.2121,12.2304,12.2313,12.2313,12.2313,12.2313,12.2313,12.2313,12.2313,12.2313,12.2313,12.2313,12.2313,12.3087,12.3899,12.4799,12.5688,12.6491,12.7381,12.7381,12.6994,12.6104,12.6104,12.5214,12.3503,12.3503,12.3087,0.0,0.0,4.8872,4.6662,0.0,0.0,0.0,0.0,0.0,0.0,0.0,0.0,0.0,0.0,0.0,0.0,0.0,0.0,0.0,0.0,0.0,0.0,0.0,0.0,0.0,0.0,0.0,0.0,5.986,0.0,6.8853,7.4852,7.9723,8.3137,8.7962,9.0605,9.089,9.2139,9.2924,9.321,9.3768,9.4018,9.4054,9.5601,9.6315,9.6409,9.8495,9.9386,9.9575,10.1701,10.2919,10.3589,10.6086,10.7515,10.8089,10.8613,10.8996,10.9397,10.9712,10.9802,10.9802,10.9802,10.9802,10.9916,11.0219,11.0598,11.1318,11.2418,11.3176,11.3782,11.4578,11.4805,11.4805,11.4805,11.4805,11.4805,11.4805,11.4898,11.4982,11.5387,11.5817,11.6808,11.8904,11.9713,12.0498,12.211,12.2313,12.2313,12.2313,12.2313,12.2313,12.2313,12.2313,12.2313,12.2313,12.2313,12.2313,12.2313,12.3087,12.358,12.3899,12.5292,12.6182,12.6491,12.711,12.6684,12.5214,12.5214,12.4402,12.27,12.27,12.2584,5.6551,5.5527,0.0,5.2424,4.9386,0.0,4.278,0.0,0.0,0.0,0.0,0.0,0.0,0.0,0.0,0.0,0.0,0.0,0.0,3.2991,0.0,0.0,0.0,0.0,0.0,0.0,5.2307,5.35,5.3831,5.6977,0.0,0.0,7.6742,8.1183,8.7298,9.0641,9.089,9.2139,9.2924,9.321,9.3768,9.4161,9.4459,9.5744,9.6457,9.6838,9.8639,9.9386,9.9575,10.1701,10.2919,10.3574,10.6288,10.7684,10.8215,10.8914,10.939,10.9704,10.981,10.9802,10.9802,10.9802,10.9802,10.9802,10.9802,11.0219,11.0902,11.2001,11.2683,11.3403,11.4502,11.4805,11.4805,11.4805,11.4805,11.4783,11.4883,11.499,11.5307,11.562,11.6106,11.6913,11.8597,11.9396,12.0302,12.2004,12.2313,12.2313,12.2313,12.2313,12.2313,12.2313,12.2313,12.2313,12.2313,12.2313,12.2313,12.2313,12.2816,12.3194,12.3503,12.4905,12.5795,12.6104,12.6994,12.6491,12.4799,12.4799,12.3899,12.2313,12.2313,12.2313]}]]